<?xml version="1.0" encoding="UTF-8" standalone="no" ?>
<gpx xmlns="http://www.topografix.com/GPX/1/1" xmlns:xsi="http://www.w3.org/2001/XMLSchema-instance" xsi:schemaLocation="http://www.topografix.com/GPX/1/1 http://www.topografix.com/GPX/1/1/gpx.xsd" version="1.1" creator="VisuGPX - https://www.visugpx.com">
  <metadata>
    <name>repérage des JEP2015</name>
    <desc><![CDATA[Fait le 6/09/2015]]></desc>
  </metadata>
  <trk>
    <name><![CDATA[2015-09-06T07:19:52Z]]></name>
    <trkseg>
      <trkpt lat="45.8424" lon="4.80629">
        <ele>485</ele>
        <time>2015-09-06T07:19:52Z</time>
      </trkpt>
      <trkpt lat="45.84239" lon="4.80635">
        <ele>485</ele>
        <time>2015-09-06T07:19:56Z</time>
      </trkpt>
      <trkpt lat="45.84231" lon="4.80652">
        <ele>484</ele>
        <time>2015-09-06T07:20:02Z</time>
      </trkpt>
      <trkpt lat="45.84227" lon="4.8068">
        <ele>481</ele>
        <time>2015-09-06T07:20:09Z</time>
      </trkpt>
      <trkpt lat="45.84227" lon="4.80699">
        <ele>480</ele>
        <time>2015-09-06T07:20:14Z</time>
      </trkpt>
      <trkpt lat="45.84227" lon="4.80706">
        <ele>479</ele>
        <time>2015-09-06T07:20:16Z</time>
      </trkpt>
      <trkpt lat="45.84226" lon="4.80718">
        <ele>479</ele>
        <time>2015-09-06T07:20:19Z</time>
      </trkpt>
      <trkpt lat="45.84222" lon="4.80732">
        <ele>478</ele>
        <time>2015-09-06T07:20:23Z</time>
      </trkpt>
      <trkpt lat="45.84222" lon="4.80735">
        <ele>478</ele>
        <time>2015-09-06T07:20:24Z</time>
      </trkpt>
      <trkpt lat="45.84218" lon="4.80758">
        <ele>474</ele>
        <time>2015-09-06T07:20:30Z</time>
      </trkpt>
      <trkpt lat="45.84217" lon="4.80765">
        <ele>474</ele>
        <time>2015-09-06T07:20:32Z</time>
      </trkpt>
      <trkpt lat="45.84213" lon="4.8078">
        <ele>474</ele>
        <time>2015-09-06T07:20:37Z</time>
      </trkpt>
      <trkpt lat="45.84211" lon="4.80782">
        <ele>474</ele>
        <time>2015-09-06T07:20:38Z</time>
      </trkpt>
      <trkpt lat="45.84204" lon="4.8079">
        <ele>474</ele>
        <time>2015-09-06T07:20:42Z</time>
      </trkpt>
      <trkpt lat="45.84196" lon="4.808">
        <ele>473</ele>
        <time>2015-09-06T07:20:46Z</time>
      </trkpt>
      <trkpt lat="45.84188" lon="4.80811">
        <ele>473</ele>
        <time>2015-09-06T07:20:50Z</time>
      </trkpt>
      <trkpt lat="45.84182" lon="4.80821">
        <ele>472</ele>
        <time>2015-09-06T07:20:54Z</time>
      </trkpt>
      <trkpt lat="45.84172" lon="4.80834">
        <ele>469</ele>
        <time>2015-09-06T07:20:59Z</time>
      </trkpt>
      <trkpt lat="45.84168" lon="4.80839">
        <ele>469</ele>
        <time>2015-09-06T07:21:01Z</time>
      </trkpt>
      <trkpt lat="45.84161" lon="4.80849">
        <ele>466</ele>
        <time>2015-09-06T07:21:05Z</time>
      </trkpt>
      <trkpt lat="45.84158" lon="4.8086">
        <ele>465</ele>
        <time>2015-09-06T07:21:08Z</time>
      </trkpt>
      <trkpt lat="45.84155" lon="4.8087">
        <ele>464</ele>
        <time>2015-09-06T07:21:11Z</time>
      </trkpt>
      <trkpt lat="45.84149" lon="4.80885">
        <ele>463</ele>
        <time>2015-09-06T07:21:16Z</time>
      </trkpt>
      <trkpt lat="45.84147" lon="4.80888">
        <ele>463</ele>
        <time>2015-09-06T07:21:17Z</time>
      </trkpt>
      <trkpt lat="45.84136" lon="4.80906">
        <ele>463</ele>
        <time>2015-09-06T07:21:22Z</time>
      </trkpt>
      <trkpt lat="45.84132" lon="4.80911">
        <ele>462</ele>
        <time>2015-09-06T07:21:24Z</time>
      </trkpt>
      <trkpt lat="45.84124" lon="4.80923">
        <ele>459</ele>
        <time>2015-09-06T07:21:28Z</time>
      </trkpt>
      <trkpt lat="45.84123" lon="4.80926">
        <ele>459</ele>
        <time>2015-09-06T07:21:29Z</time>
      </trkpt>
      <trkpt lat="45.84116" lon="4.8095">
        <ele>458</ele>
        <time>2015-09-06T07:21:37Z</time>
      </trkpt>
      <trkpt lat="45.8411" lon="4.80966">
        <ele>457</ele>
        <time>2015-09-06T07:21:42Z</time>
      </trkpt>
      <trkpt lat="45.84106" lon="4.80974">
        <ele>457</ele>
        <time>2015-09-06T07:21:45Z</time>
      </trkpt>
      <trkpt lat="45.84102" lon="4.80981">
        <ele>457</ele>
        <time>2015-09-06T07:21:48Z</time>
      </trkpt>
      <trkpt lat="45.84096" lon="4.80996">
        <ele>456</ele>
        <time>2015-09-06T07:21:55Z</time>
      </trkpt>
      <trkpt lat="45.84087" lon="4.81004">
        <ele>454</ele>
        <time>2015-09-06T07:22:01Z</time>
      </trkpt>
      <trkpt lat="45.8408" lon="4.81007">
        <ele>452</ele>
        <time>2015-09-06T07:22:04Z</time>
      </trkpt>
      <trkpt lat="45.84075" lon="4.81007">
        <ele>451</ele>
        <time>2015-09-06T07:22:06Z</time>
      </trkpt>
      <trkpt lat="45.84063" lon="4.81002">
        <ele>450</ele>
        <time>2015-09-06T07:22:12Z</time>
      </trkpt>
      <trkpt lat="45.8405" lon="4.80999">
        <ele>450</ele>
        <time>2015-09-06T07:22:18Z</time>
      </trkpt>
      <trkpt lat="45.84043" lon="4.80996">
        <ele>449</ele>
        <time>2015-09-06T07:22:21Z</time>
      </trkpt>
      <trkpt lat="45.84036" lon="4.80995">
        <ele>448</ele>
        <time>2015-09-06T07:22:24Z</time>
      </trkpt>
      <trkpt lat="45.8403" lon="4.80997">
        <ele>448</ele>
        <time>2015-09-06T07:22:27Z</time>
      </trkpt>
      <trkpt lat="45.84029" lon="4.80996">
        <ele>447</ele>
        <time>2015-09-06T07:22:28Z</time>
      </trkpt>
      <trkpt lat="45.84024" lon="4.80997">
        <ele>447</ele>
        <time>2015-09-06T07:22:30Z</time>
      </trkpt>
      <trkpt lat="45.84021" lon="4.80997">
        <ele>447</ele>
        <time>2015-09-06T07:22:31Z</time>
      </trkpt>
      <trkpt lat="45.84017" lon="4.80998">
        <ele>446</ele>
        <time>2015-09-06T07:22:33Z</time>
      </trkpt>
      <trkpt lat="45.84005" lon="4.80996">
        <ele>444</ele>
        <time>2015-09-06T07:22:38Z</time>
      </trkpt>
      <trkpt lat="45.84001" lon="4.80994">
        <ele>444</ele>
        <time>2015-09-06T07:22:40Z</time>
      </trkpt>
      <trkpt lat="45.83986" lon="4.80991">
        <ele>437</ele>
        <time>2015-09-06T07:22:46Z</time>
      </trkpt>
      <trkpt lat="45.83974" lon="4.80989">
        <ele>434</ele>
        <time>2015-09-06T07:22:51Z</time>
      </trkpt>
      <trkpt lat="45.83967" lon="4.8099">
        <ele>433</ele>
        <time>2015-09-06T07:22:54Z</time>
      </trkpt>
      <trkpt lat="45.83962" lon="4.80989">
        <ele>432</ele>
        <time>2015-09-06T07:22:56Z</time>
      </trkpt>
      <trkpt lat="45.8396" lon="4.80975">
        <ele>431</ele>
        <time>2015-09-06T07:23:01Z</time>
      </trkpt>
      <trkpt lat="45.83958" lon="4.80968">
        <ele>431</ele>
        <time>2015-09-06T07:23:03Z</time>
      </trkpt>
      <trkpt lat="45.83956" lon="4.80961">
        <ele>431</ele>
        <time>2015-09-06T07:23:05Z</time>
      </trkpt>
      <trkpt lat="45.83956" lon="4.80938">
        <ele>431</ele>
        <time>2015-09-06T07:23:11Z</time>
      </trkpt>
      <trkpt lat="45.83955" lon="4.80921">
        <ele>430</ele>
        <time>2015-09-06T07:23:16Z</time>
      </trkpt>
      <trkpt lat="45.83956" lon="4.80906">
        <ele>433</ele>
        <time>2015-09-06T07:23:20Z</time>
      </trkpt>
      <trkpt lat="45.83956" lon="4.80902">
        <ele>433</ele>
        <time>2015-09-06T07:23:21Z</time>
      </trkpt>
      <trkpt lat="45.83961" lon="4.80883">
        <ele>434</ele>
        <time>2015-09-06T07:23:26Z</time>
      </trkpt>
      <trkpt lat="45.83963" lon="4.80879">
        <ele>435</ele>
        <time>2015-09-06T07:23:27Z</time>
      </trkpt>
      <trkpt lat="45.83964" lon="4.80868">
        <ele>435</ele>
        <time>2015-09-06T07:23:30Z</time>
      </trkpt>
      <trkpt lat="45.83964" lon="4.80859">
        <ele>436</ele>
        <time>2015-09-06T07:23:34Z</time>
      </trkpt>
      <trkpt lat="45.83964" lon="4.8085">
        <ele>436</ele>
        <time>2015-09-06T07:23:36Z</time>
      </trkpt>
      <trkpt lat="45.83959" lon="4.80844">
        <ele>436</ele>
        <time>2015-09-06T07:23:39Z</time>
      </trkpt>
      <trkpt lat="45.83957" lon="4.80843">
        <ele>436</ele>
        <time>2015-09-06T07:23:40Z</time>
      </trkpt>
      <trkpt lat="45.83945" lon="4.80839">
        <ele>435</ele>
        <time>2015-09-06T07:23:45Z</time>
      </trkpt>
      <trkpt lat="45.83929" lon="4.8084">
        <ele>435</ele>
        <time>2015-09-06T07:23:51Z</time>
      </trkpt>
      <trkpt lat="45.83927" lon="4.80839">
        <ele>435</ele>
        <time>2015-09-06T07:23:52Z</time>
      </trkpt>
      <trkpt lat="45.83914" lon="4.80839">
        <ele>432</ele>
        <time>2015-09-06T07:23:57Z</time>
      </trkpt>
      <trkpt lat="45.83909" lon="4.80838">
        <ele>431</ele>
        <time>2015-09-06T07:23:59Z</time>
      </trkpt>
      <trkpt lat="45.83896" lon="4.80839">
        <ele>427</ele>
        <time>2015-09-06T07:24:03Z</time>
      </trkpt>
      <trkpt lat="45.83888" lon="4.8084">
        <ele>425</ele>
        <time>2015-09-06T07:24:06Z</time>
      </trkpt>
      <trkpt lat="45.83884" lon="4.80839">
        <ele>424</ele>
        <time>2015-09-06T07:24:08Z</time>
      </trkpt>
      <trkpt lat="45.83881" lon="4.8084">
        <ele>424</ele>
        <time>2015-09-06T07:24:09Z</time>
      </trkpt>
      <trkpt lat="45.83871" lon="4.80839">
        <ele>423</ele>
        <time>2015-09-06T07:24:13Z</time>
      </trkpt>
      <trkpt lat="45.83869" lon="4.80838">
        <ele>423</ele>
        <time>2015-09-06T07:24:14Z</time>
      </trkpt>
      <trkpt lat="45.8386" lon="4.80838">
        <ele>422</ele>
        <time>2015-09-06T07:24:17Z</time>
      </trkpt>
      <trkpt lat="45.83856" lon="4.80836">
        <ele>422</ele>
        <time>2015-09-06T07:24:19Z</time>
      </trkpt>
      <trkpt lat="45.8385" lon="4.80837">
        <ele>422</ele>
        <time>2015-09-06T07:24:21Z</time>
      </trkpt>
      <trkpt lat="45.83842" lon="4.80837">
        <ele>422</ele>
        <time>2015-09-06T07:24:24Z</time>
      </trkpt>
      <trkpt lat="45.83832" lon="4.80832">
        <ele>423</ele>
        <time>2015-09-06T07:24:28Z</time>
      </trkpt>
      <trkpt lat="45.8383" lon="4.80831">
        <ele>423</ele>
        <time>2015-09-06T07:24:29Z</time>
      </trkpt>
      <trkpt lat="45.83822" lon="4.80817">
        <ele>423</ele>
        <time>2015-09-06T07:24:34Z</time>
      </trkpt>
      <trkpt lat="45.8382" lon="4.80811">
        <ele>423</ele>
        <time>2015-09-06T07:24:36Z</time>
      </trkpt>
      <trkpt lat="45.83819" lon="4.80803">
        <ele>424</ele>
        <time>2015-09-06T07:24:38Z</time>
      </trkpt>
      <trkpt lat="45.83817" lon="4.80785">
        <ele>425</ele>
        <time>2015-09-06T07:24:43Z</time>
      </trkpt>
      <trkpt lat="45.83816" lon="4.80782">
        <ele>426</ele>
        <time>2015-09-06T07:24:44Z</time>
      </trkpt>
      <trkpt lat="45.83809" lon="4.80768">
        <ele>427</ele>
        <time>2015-09-06T07:24:49Z</time>
      </trkpt>
      <trkpt lat="45.83803" lon="4.8076">
        <ele>426</ele>
        <time>2015-09-06T07:24:52Z</time>
      </trkpt>
      <trkpt lat="45.83799" lon="4.80756">
        <ele>426</ele>
        <time>2015-09-06T07:24:54Z</time>
      </trkpt>
      <trkpt lat="45.83794" lon="4.80751">
        <ele>425</ele>
        <time>2015-09-06T07:24:56Z</time>
      </trkpt>
      <trkpt lat="45.83787" lon="4.80741">
        <ele>430</ele>
        <time>2015-09-06T07:25:00Z</time>
      </trkpt>
      <trkpt lat="45.83776" lon="4.8073">
        <ele>428</ele>
        <time>2015-09-06T07:25:04Z</time>
      </trkpt>
      <trkpt lat="45.8377" lon="4.80726">
        <ele>428</ele>
        <time>2015-09-06T07:25:06Z</time>
      </trkpt>
      <trkpt lat="45.83766" lon="4.80722">
        <ele>428</ele>
        <time>2015-09-06T07:25:08Z</time>
      </trkpt>
      <trkpt lat="45.83755" lon="4.80708">
        <ele>428</ele>
        <time>2015-09-06T07:25:13Z</time>
      </trkpt>
      <trkpt lat="45.83752" lon="4.80704">
        <ele>428</ele>
        <time>2015-09-06T07:25:15Z</time>
      </trkpt>
      <trkpt lat="45.83739" lon="4.80697">
        <ele>422</ele>
        <time>2015-09-06T07:25:20Z</time>
      </trkpt>
      <trkpt lat="45.83729" lon="4.80696">
        <ele>422</ele>
        <time>2015-09-06T07:25:24Z</time>
      </trkpt>
      <trkpt lat="45.83724" lon="4.80691">
        <ele>422</ele>
        <time>2015-09-06T07:25:27Z</time>
      </trkpt>
      <trkpt lat="45.83723" lon="4.80689">
        <ele>423</ele>
        <time>2015-09-06T07:25:28Z</time>
      </trkpt>
      <trkpt lat="45.83723" lon="4.80686">
        <ele>423</ele>
        <time>2015-09-06T07:25:29Z</time>
      </trkpt>
      <trkpt lat="45.83721" lon="4.80675">
        <ele>423</ele>
        <time>2015-09-06T07:25:34Z</time>
      </trkpt>
      <trkpt lat="45.83721" lon="4.80668">
        <ele>423</ele>
        <time>2015-09-06T07:25:38Z</time>
      </trkpt>
      <trkpt lat="45.83721" lon="4.80662">
        <ele>430</ele>
        <time>2015-09-06T07:25:40Z</time>
      </trkpt>
      <trkpt lat="45.8372" lon="4.8066">
        <ele>430</ele>
        <time>2015-09-06T07:25:41Z</time>
      </trkpt>
      <trkpt lat="45.8372" lon="4.80652">
        <ele>431</ele>
        <time>2015-09-06T07:25:45Z</time>
      </trkpt>
      <trkpt lat="45.83717" lon="4.8065">
        <ele>431</ele>
        <time>2015-09-06T07:25:47Z</time>
      </trkpt>
      <trkpt lat="45.83716" lon="4.80648">
        <ele>431</ele>
        <time>2015-09-06T07:25:48Z</time>
      </trkpt>
      <trkpt lat="45.83715" lon="4.80647">
        <ele>432</ele>
        <time>2015-09-06T07:25:49Z</time>
      </trkpt>
      <trkpt lat="45.83716" lon="4.80635">
        <ele>433</ele>
        <time>2015-09-06T07:25:55Z</time>
      </trkpt>
      <trkpt lat="45.83715" lon="4.80625">
        <ele>433</ele>
        <time>2015-09-06T07:26:01Z</time>
      </trkpt>
      <trkpt lat="45.83716" lon="4.80623">
        <ele>434</ele>
        <time>2015-09-06T07:26:02Z</time>
      </trkpt>
      <trkpt lat="45.83717" lon="4.80608">
        <ele>435</ele>
        <time>2015-09-06T07:26:09Z</time>
      </trkpt>
      <trkpt lat="45.83715" lon="4.80592">
        <ele>436</ele>
        <time>2015-09-06T07:26:18Z</time>
      </trkpt>
      <trkpt lat="45.83714" lon="4.80582">
        <ele>445</ele>
        <time>2015-09-06T07:26:24Z</time>
      </trkpt>
      <trkpt lat="45.83714" lon="4.80578">
        <ele>445</ele>
        <time>2015-09-06T07:26:26Z</time>
      </trkpt>
      <trkpt lat="45.83711" lon="4.80572">
        <ele>445</ele>
        <time>2015-09-06T07:26:31Z</time>
      </trkpt>
      <trkpt lat="45.8371" lon="4.80568">
        <ele>445</ele>
        <time>2015-09-06T07:26:33Z</time>
      </trkpt>
      <trkpt lat="45.83707" lon="4.80565">
        <ele>446</ele>
        <time>2015-09-06T07:26:35Z</time>
      </trkpt>
      <trkpt lat="45.83703" lon="4.80562">
        <ele>446</ele>
        <time>2015-09-06T07:26:38Z</time>
      </trkpt>
      <trkpt lat="45.83701" lon="4.80562">
        <ele>446</ele>
        <time>2015-09-06T07:26:39Z</time>
      </trkpt>
      <trkpt lat="45.83698" lon="4.8056">
        <ele>446</ele>
        <time>2015-09-06T07:26:43Z</time>
      </trkpt>
      <trkpt lat="45.837" lon="4.80559">
        <ele>446</ele>
        <time>2015-09-06T07:26:45Z</time>
      </trkpt>
      <trkpt lat="45.83707" lon="4.80558">
        <ele>446</ele>
        <time>2015-09-06T07:26:52Z</time>
      </trkpt>
      <trkpt lat="45.8371" lon="4.80557">
        <ele>446</ele>
        <time>2015-09-06T07:26:53Z</time>
      </trkpt>
      <trkpt lat="45.83716" lon="4.80554">
        <ele>446</ele>
        <time>2015-09-06T07:26:58Z</time>
      </trkpt>
      <trkpt lat="45.83725" lon="4.80548">
        <ele>446</ele>
        <time>2015-09-06T07:27:05Z</time>
      </trkpt>
      <trkpt lat="45.83725" lon="4.80547">
        <ele>446</ele>
        <time>2015-09-06T07:27:06Z</time>
      </trkpt>
      <trkpt lat="45.83725" lon="4.80544">
        <ele>447</ele>
        <time>2015-09-06T07:27:08Z</time>
      </trkpt>
      <trkpt lat="45.83724" lon="4.80543">
        <ele>447</ele>
        <time>2015-09-06T07:27:09Z</time>
      </trkpt>
      <trkpt lat="45.83721" lon="4.80541">
        <ele>447</ele>
        <time>2015-09-06T07:27:11Z</time>
      </trkpt>
      <trkpt lat="45.83712" lon="4.80542">
        <ele>447</ele>
        <time>2015-09-06T07:27:15Z</time>
      </trkpt>
      <trkpt lat="45.83708" lon="4.80542">
        <ele>447</ele>
        <time>2015-09-06T07:27:17Z</time>
      </trkpt>
      <trkpt lat="45.837" lon="4.80542">
        <ele>448</ele>
        <time>2015-09-06T07:27:20Z</time>
      </trkpt>
      <trkpt lat="45.83696" lon="4.80536">
        <ele>448</ele>
        <time>2015-09-06T07:27:23Z</time>
      </trkpt>
      <trkpt lat="45.83696" lon="4.80534">
        <ele>448</ele>
        <time>2015-09-06T07:27:24Z</time>
      </trkpt>
      <trkpt lat="45.83696" lon="4.80529">
        <ele>449</ele>
        <time>2015-09-06T07:27:26Z</time>
      </trkpt>
      <trkpt lat="45.83694" lon="4.80523">
        <ele>450</ele>
        <time>2015-09-06T07:27:28Z</time>
      </trkpt>
      <trkpt lat="45.83693" lon="4.80517">
        <ele>450</ele>
        <time>2015-09-06T07:27:30Z</time>
      </trkpt>
      <trkpt lat="45.83692" lon="4.80511">
        <ele>451</ele>
        <time>2015-09-06T07:27:32Z</time>
      </trkpt>
      <trkpt lat="45.8369" lon="4.80504">
        <ele>451</ele>
        <time>2015-09-06T07:27:35Z</time>
      </trkpt>
      <trkpt lat="45.83689" lon="4.80501">
        <ele>452</ele>
        <time>2015-09-06T07:27:36Z</time>
      </trkpt>
      <trkpt lat="45.83689" lon="4.80496">
        <ele>458</ele>
        <time>2015-09-06T07:27:38Z</time>
      </trkpt>
      <trkpt lat="45.83688" lon="4.80489">
        <ele>458</ele>
        <time>2015-09-06T07:27:41Z</time>
      </trkpt>
      <trkpt lat="45.83688" lon="4.80477">
        <ele>458</ele>
        <time>2015-09-06T07:27:46Z</time>
      </trkpt>
      <trkpt lat="45.83687" lon="4.80474">
        <ele>458</ele>
        <time>2015-09-06T07:27:47Z</time>
      </trkpt>
      <trkpt lat="45.83685" lon="4.80464">
        <ele>459</ele>
        <time>2015-09-06T07:27:51Z</time>
      </trkpt>
      <trkpt lat="45.83682" lon="4.80448">
        <ele>460</ele>
        <time>2015-09-06T07:27:57Z</time>
      </trkpt>
      <trkpt lat="45.83683" lon="4.80444">
        <ele>461</ele>
        <time>2015-09-06T07:28:00Z</time>
      </trkpt>
      <trkpt lat="45.83682" lon="4.80439">
        <ele>461</ele>
        <time>2015-09-06T07:28:02Z</time>
      </trkpt>
      <trkpt lat="45.83681" lon="4.80435">
        <ele>462</ele>
        <time>2015-09-06T07:28:05Z</time>
      </trkpt>
      <trkpt lat="45.83681" lon="4.80427">
        <ele>463</ele>
        <time>2015-09-06T07:28:09Z</time>
      </trkpt>
      <trkpt lat="45.8368" lon="4.80422">
        <ele>463</ele>
        <time>2015-09-06T07:28:11Z</time>
      </trkpt>
      <trkpt lat="45.83681" lon="4.80416">
        <ele>466</ele>
        <time>2015-09-06T07:28:15Z</time>
      </trkpt>
      <trkpt lat="45.83681" lon="4.80412">
        <ele>466</ele>
        <time>2015-09-06T07:28:17Z</time>
      </trkpt>
      <trkpt lat="45.83681" lon="4.80407">
        <ele>466</ele>
        <time>2015-09-06T07:28:20Z</time>
      </trkpt>
      <trkpt lat="45.83681" lon="4.80404">
        <ele>466</ele>
        <time>2015-09-06T07:28:22Z</time>
      </trkpt>
      <trkpt lat="45.83678" lon="4.80397">
        <ele>466</ele>
        <time>2015-09-06T07:28:26Z</time>
      </trkpt>
      <trkpt lat="45.83678" lon="4.80395">
        <ele>466</ele>
        <time>2015-09-06T07:28:27Z</time>
      </trkpt>
      <trkpt lat="45.83678" lon="4.80394">
        <ele>466</ele>
        <time>2015-09-06T07:28:28Z</time>
      </trkpt>
      <trkpt lat="45.83678" lon="4.80385">
        <ele>467</ele>
        <time>2015-09-06T07:28:33Z</time>
      </trkpt>
      <trkpt lat="45.83678" lon="4.80382">
        <ele>467</ele>
        <time>2015-09-06T07:28:35Z</time>
      </trkpt>
      <trkpt lat="45.83677" lon="4.8038">
        <ele>467</ele>
        <time>2015-09-06T07:28:37Z</time>
      </trkpt>
      <trkpt lat="45.83675" lon="4.8038">
        <ele>467</ele>
        <time>2015-09-06T07:28:39Z</time>
      </trkpt>
      <trkpt lat="45.83672" lon="4.80381">
        <ele>467</ele>
        <time>2015-09-06T07:28:41Z</time>
      </trkpt>
      <trkpt lat="45.83668" lon="4.80383">
        <ele>467</ele>
        <time>2015-09-06T07:28:43Z</time>
      </trkpt>
      <trkpt lat="45.83666" lon="4.80384">
        <ele>469</ele>
        <time>2015-09-06T07:28:44Z</time>
      </trkpt>
      <trkpt lat="45.83658" lon="4.80388">
        <ele>469</ele>
        <time>2015-09-06T07:28:50Z</time>
      </trkpt>
      <trkpt lat="45.83652" lon="4.80394">
        <ele>469</ele>
        <time>2015-09-06T07:28:56Z</time>
      </trkpt>
      <trkpt lat="45.83651" lon="4.80394">
        <ele>469</ele>
        <time>2015-09-06T07:28:57Z</time>
      </trkpt>
      <trkpt lat="45.83644" lon="4.80403">
        <ele>469</ele>
        <time>2015-09-06T07:29:05Z</time>
      </trkpt>
      <trkpt lat="45.83641" lon="4.80406">
        <ele>469</ele>
        <time>2015-09-06T07:29:07Z</time>
      </trkpt>
      <trkpt lat="45.83635" lon="4.80411">
        <ele>469</ele>
        <time>2015-09-06T07:29:11Z</time>
      </trkpt>
      <trkpt lat="45.83633" lon="4.80414">
        <ele>469</ele>
        <time>2015-09-06T07:29:12Z</time>
      </trkpt>
      <trkpt lat="45.8363" lon="4.80417">
        <ele>466</ele>
        <time>2015-09-06T07:29:17Z</time>
      </trkpt>
      <trkpt lat="45.83629" lon="4.80418">
        <ele>466</ele>
        <time>2015-09-06T07:29:18Z</time>
      </trkpt>
      <trkpt lat="45.83622" lon="4.80424">
        <ele>466</ele>
        <time>2015-09-06T07:29:23Z</time>
      </trkpt>
      <trkpt lat="45.83618" lon="4.80426">
        <ele>467</ele>
        <time>2015-09-06T07:29:25Z</time>
      </trkpt>
      <trkpt lat="45.8361" lon="4.80433">
        <ele>467</ele>
        <time>2015-09-06T07:29:29Z</time>
      </trkpt>
      <trkpt lat="45.83603" lon="4.80437">
        <ele>467</ele>
        <time>2015-09-06T07:29:34Z</time>
      </trkpt>
      <trkpt lat="45.836" lon="4.80439">
        <ele>467</ele>
        <time>2015-09-06T07:29:36Z</time>
      </trkpt>
      <trkpt lat="45.83594" lon="4.80441">
        <ele>467</ele>
        <time>2015-09-06T07:29:40Z</time>
      </trkpt>
      <trkpt lat="45.83587" lon="4.8044">
        <ele>467</ele>
        <time>2015-09-06T07:29:45Z</time>
      </trkpt>
      <trkpt lat="45.83588" lon="4.8044">
        <ele>467</ele>
        <time>2015-09-06T07:29:46Z</time>
      </trkpt>
      <trkpt lat="45.83594" lon="4.80438">
        <ele>467</ele>
        <time>2015-09-06T07:29:49Z</time>
      </trkpt>
      <trkpt lat="45.83603" lon="4.80433">
        <ele>467</ele>
        <time>2015-09-06T07:29:53Z</time>
      </trkpt>
      <trkpt lat="45.83608" lon="4.8043">
        <ele>467</ele>
        <time>2015-09-06T07:29:55Z</time>
      </trkpt>
      <trkpt lat="45.83613" lon="4.80426">
        <ele>467</ele>
        <time>2015-09-06T07:29:57Z</time>
      </trkpt>
      <trkpt lat="45.8362" lon="4.80419">
        <ele>467</ele>
        <time>2015-09-06T07:30:00Z</time>
      </trkpt>
      <trkpt lat="45.83629" lon="4.80407">
        <ele>470</ele>
        <time>2015-09-06T07:30:04Z</time>
      </trkpt>
      <trkpt lat="45.8363" lon="4.80404">
        <ele>470</ele>
        <time>2015-09-06T07:30:05Z</time>
      </trkpt>
      <trkpt lat="45.83628" lon="4.80394">
        <ele>470</ele>
        <time>2015-09-06T07:30:09Z</time>
      </trkpt>
      <trkpt lat="45.83624" lon="4.80387">
        <ele>470</ele>
        <time>2015-09-06T07:30:12Z</time>
      </trkpt>
      <trkpt lat="45.83623" lon="4.80384">
        <ele>470</ele>
        <time>2015-09-06T07:30:14Z</time>
      </trkpt>
      <trkpt lat="45.83621" lon="4.80382">
        <ele>470</ele>
        <time>2015-09-06T07:30:15Z</time>
      </trkpt>
      <trkpt lat="45.8362" lon="4.80375">
        <ele>471</ele>
        <time>2015-09-06T07:30:19Z</time>
      </trkpt>
      <trkpt lat="45.8362" lon="4.80374">
        <ele>471</ele>
        <time>2015-09-06T07:30:20Z</time>
      </trkpt>
      <trkpt lat="45.83623" lon="4.80369">
        <ele>471</ele>
        <time>2015-09-06T07:30:25Z</time>
      </trkpt>
      <trkpt lat="45.83626" lon="4.80364">
        <ele>471</ele>
        <time>2015-09-06T07:30:48Z</time>
      </trkpt>
      <trkpt lat="45.83624" lon="4.80366">
        <ele>471</ele>
        <time>2015-09-06T07:30:50Z</time>
      </trkpt>
      <trkpt lat="45.83621" lon="4.80368">
        <ele>471</ele>
        <time>2015-09-06T07:30:52Z</time>
      </trkpt>
      <trkpt lat="45.83618" lon="4.80367">
        <ele>471</ele>
        <time>2015-09-06T07:30:55Z</time>
      </trkpt>
      <trkpt lat="45.83617" lon="4.80363">
        <ele>471</ele>
        <time>2015-09-06T07:30:57Z</time>
      </trkpt>
      <trkpt lat="45.83616" lon="4.80361">
        <ele>471</ele>
        <time>2015-09-06T07:30:58Z</time>
      </trkpt>
      <trkpt lat="45.8361" lon="4.80361">
        <ele>471</ele>
        <time>2015-09-06T07:31:02Z</time>
      </trkpt>
      <trkpt lat="45.83608" lon="4.80362">
        <ele>471</ele>
        <time>2015-09-06T07:31:03Z</time>
      </trkpt>
      <trkpt lat="45.83602" lon="4.80363">
        <ele>471</ele>
        <time>2015-09-06T07:31:07Z</time>
      </trkpt>
      <trkpt lat="45.83601" lon="4.80364">
        <ele>471</ele>
        <time>2015-09-06T07:31:08Z</time>
      </trkpt>
      <trkpt lat="45.83597" lon="4.80372">
        <ele>471</ele>
        <time>2015-09-06T07:31:13Z</time>
      </trkpt>
      <trkpt lat="45.83594" lon="4.80378">
        <ele>471</ele>
        <time>2015-09-06T07:31:16Z</time>
      </trkpt>
      <trkpt lat="45.83592" lon="4.80385">
        <ele>471</ele>
        <time>2015-09-06T07:31:19Z</time>
      </trkpt>
      <trkpt lat="45.83593" lon="4.80397">
        <ele>470</ele>
        <time>2015-09-06T07:31:23Z</time>
      </trkpt>
      <trkpt lat="45.83596" lon="4.80403">
        <ele>470</ele>
        <time>2015-09-06T07:31:25Z</time>
      </trkpt>
      <trkpt lat="45.83599" lon="4.80411">
        <ele>470</ele>
        <time>2015-09-06T07:31:28Z</time>
      </trkpt>
      <trkpt lat="45.83599" lon="4.80415">
        <ele>470</ele>
        <time>2015-09-06T07:31:29Z</time>
      </trkpt>
      <trkpt lat="45.83599" lon="4.8043">
        <ele>467</ele>
        <time>2015-09-06T07:31:33Z</time>
      </trkpt>
      <trkpt lat="45.83598" lon="4.80433">
        <ele>467</ele>
        <time>2015-09-06T07:31:34Z</time>
      </trkpt>
      <trkpt lat="45.83587" lon="4.80442">
        <ele>467</ele>
        <time>2015-09-06T07:31:38Z</time>
      </trkpt>
      <trkpt lat="45.83583" lon="4.80444">
        <ele>467</ele>
        <time>2015-09-06T07:31:39Z</time>
      </trkpt>
      <trkpt lat="45.83582" lon="4.80444">
        <ele>467</ele>
        <time>2015-09-06T07:31:40Z</time>
      </trkpt>
      <trkpt lat="45.83578" lon="4.80446">
        <ele>467</ele>
        <time>2015-09-06T07:31:42Z</time>
      </trkpt>
      <trkpt lat="45.83569" lon="4.8045">
        <ele>467</ele>
        <time>2015-09-06T07:31:47Z</time>
      </trkpt>
      <trkpt lat="45.83564" lon="4.80452">
        <ele>466</ele>
        <time>2015-09-06T07:31:49Z</time>
      </trkpt>
      <trkpt lat="45.83552" lon="4.80459">
        <ele>466</ele>
        <time>2015-09-06T07:31:52Z</time>
      </trkpt>
      <trkpt lat="45.83547" lon="4.80461">
        <ele>466</ele>
        <time>2015-09-06T07:31:55Z</time>
      </trkpt>
      <trkpt lat="45.83538" lon="4.80466">
        <ele>465</ele>
        <time>2015-09-06T07:31:59Z</time>
      </trkpt>
      <trkpt lat="45.83529" lon="4.80472">
        <ele>465</ele>
        <time>2015-09-06T07:32:02Z</time>
      </trkpt>
      <trkpt lat="45.83521" lon="4.80477">
        <ele>464</ele>
        <time>2015-09-06T07:32:05Z</time>
      </trkpt>
      <trkpt lat="45.83513" lon="4.80485">
        <ele>463</ele>
        <time>2015-09-06T07:32:08Z</time>
      </trkpt>
      <trkpt lat="45.83511" lon="4.80488">
        <ele>463</ele>
        <time>2015-09-06T07:32:09Z</time>
      </trkpt>
      <trkpt lat="45.83496" lon="4.80503">
        <ele>458</ele>
        <time>2015-09-06T07:32:15Z</time>
      </trkpt>
      <trkpt lat="45.83493" lon="4.80506">
        <ele>458</ele>
        <time>2015-09-06T07:32:16Z</time>
      </trkpt>
      <trkpt lat="45.83483" lon="4.80516">
        <ele>455</ele>
        <time>2015-09-06T07:32:21Z</time>
      </trkpt>
      <trkpt lat="45.8348" lon="4.80518">
        <ele>455</ele>
        <time>2015-09-06T07:32:22Z</time>
      </trkpt>
      <trkpt lat="45.83471" lon="4.80524">
        <ele>454</ele>
        <time>2015-09-06T07:32:26Z</time>
      </trkpt>
      <trkpt lat="45.83463" lon="4.80528">
        <ele>453</ele>
        <time>2015-09-06T07:32:29Z</time>
      </trkpt>
      <trkpt lat="45.83457" lon="4.80527">
        <ele>452</ele>
        <time>2015-09-06T07:32:32Z</time>
      </trkpt>
      <trkpt lat="45.83444" lon="4.80524">
        <ele>451</ele>
        <time>2015-09-06T07:32:39Z</time>
      </trkpt>
      <trkpt lat="45.83433" lon="4.80531">
        <ele>451</ele>
        <time>2015-09-06T07:32:44Z</time>
      </trkpt>
      <trkpt lat="45.83427" lon="4.80539">
        <ele>450</ele>
        <time>2015-09-06T07:32:47Z</time>
      </trkpt>
      <trkpt lat="45.8342" lon="4.80544">
        <ele>450</ele>
        <time>2015-09-06T07:32:50Z</time>
      </trkpt>
      <trkpt lat="45.83408" lon="4.80547">
        <ele>442</ele>
        <time>2015-09-06T07:32:55Z</time>
      </trkpt>
      <trkpt lat="45.83405" lon="4.80545">
        <ele>442</ele>
        <time>2015-09-06T07:32:57Z</time>
      </trkpt>
      <trkpt lat="45.83403" lon="4.80546">
        <ele>442</ele>
        <time>2015-09-06T07:32:58Z</time>
      </trkpt>
      <trkpt lat="45.83398" lon="4.80545">
        <ele>442</ele>
        <time>2015-09-06T07:33:00Z</time>
      </trkpt>
      <trkpt lat="45.8339" lon="4.80546">
        <ele>441</ele>
        <time>2015-09-06T07:33:05Z</time>
      </trkpt>
      <trkpt lat="45.83388" lon="4.80547">
        <ele>441</ele>
        <time>2015-09-06T07:33:06Z</time>
      </trkpt>
      <trkpt lat="45.83378" lon="4.80558">
        <ele>440</ele>
        <time>2015-09-06T07:33:10Z</time>
      </trkpt>
      <trkpt lat="45.83375" lon="4.80568">
        <ele>439</ele>
        <time>2015-09-06T07:33:12Z</time>
      </trkpt>
      <trkpt lat="45.83375" lon="4.80577">
        <ele>439</ele>
        <time>2015-09-06T07:33:14Z</time>
      </trkpt>
      <trkpt lat="45.83375" lon="4.80589">
        <ele>435</ele>
        <time>2015-09-06T07:33:17Z</time>
      </trkpt>
      <trkpt lat="45.83375" lon="4.80593">
        <ele>435</ele>
        <time>2015-09-06T07:33:18Z</time>
      </trkpt>
      <trkpt lat="45.83375" lon="4.80596">
        <ele>435</ele>
        <time>2015-09-06T07:33:19Z</time>
      </trkpt>
      <trkpt lat="45.83376" lon="4.80607">
        <ele>435</ele>
        <time>2015-09-06T07:33:22Z</time>
      </trkpt>
      <trkpt lat="45.83377" lon="4.80612">
        <ele>435</ele>
        <time>2015-09-06T07:33:23Z</time>
      </trkpt>
      <trkpt lat="45.83376" lon="4.80623">
        <ele>435</ele>
        <time>2015-09-06T07:33:26Z</time>
      </trkpt>
      <trkpt lat="45.83373" lon="4.80631">
        <ele>435</ele>
        <time>2015-09-06T07:33:28Z</time>
      </trkpt>
      <trkpt lat="45.83371" lon="4.80651">
        <ele>434</ele>
        <time>2015-09-06T07:33:34Z</time>
      </trkpt>
      <trkpt lat="45.83373" lon="4.8066">
        <ele>434</ele>
        <time>2015-09-06T07:33:37Z</time>
      </trkpt>
      <trkpt lat="45.83376" lon="4.80666">
        <ele>434</ele>
        <time>2015-09-06T07:33:39Z</time>
      </trkpt>
      <trkpt lat="45.83381" lon="4.80675">
        <ele>431</ele>
        <time>2015-09-06T07:33:42Z</time>
      </trkpt>
      <trkpt lat="45.83383" lon="4.80685">
        <ele>431</ele>
        <time>2015-09-06T07:33:45Z</time>
      </trkpt>
      <trkpt lat="45.8339" lon="4.807">
        <ele>431</ele>
        <time>2015-09-06T07:33:50Z</time>
      </trkpt>
      <trkpt lat="45.83396" lon="4.80713">
        <ele>430</ele>
        <time>2015-09-06T07:33:54Z</time>
      </trkpt>
      <trkpt lat="45.83396" lon="4.80716">
        <ele>430</ele>
        <time>2015-09-06T07:33:55Z</time>
      </trkpt>
      <trkpt lat="45.83399" lon="4.80726">
        <ele>430</ele>
        <time>2015-09-06T07:33:58Z</time>
      </trkpt>
      <trkpt lat="45.83399" lon="4.80727">
        <ele>430</ele>
        <time>2015-09-06T07:33:59Z</time>
      </trkpt>
      <trkpt lat="45.83398" lon="4.80728">
        <ele>429</ele>
        <time>2015-09-06T07:34:00Z</time>
      </trkpt>
      <trkpt lat="45.83393" lon="4.80736">
        <ele>429</ele>
        <time>2015-09-06T07:34:04Z</time>
      </trkpt>
      <trkpt lat="45.8339" lon="4.8074">
        <ele>429</ele>
        <time>2015-09-06T07:34:07Z</time>
      </trkpt>
      <trkpt lat="45.83386" lon="4.80745">
        <ele>429</ele>
        <time>2015-09-06T07:34:09Z</time>
      </trkpt>
      <trkpt lat="45.83383" lon="4.80749">
        <ele>429</ele>
        <time>2015-09-06T07:34:11Z</time>
      </trkpt>
      <trkpt lat="45.83372" lon="4.80759">
        <ele>424</ele>
        <time>2015-09-06T07:34:17Z</time>
      </trkpt>
      <trkpt lat="45.8337" lon="4.80761">
        <ele>424</ele>
        <time>2015-09-06T07:34:18Z</time>
      </trkpt>
      <trkpt lat="45.83363" lon="4.8077">
        <ele>424</ele>
        <time>2015-09-06T07:34:22Z</time>
      </trkpt>
      <trkpt lat="45.83356" lon="4.80779">
        <ele>423</ele>
        <time>2015-09-06T07:34:26Z</time>
      </trkpt>
      <trkpt lat="45.83352" lon="4.80782">
        <ele>423</ele>
        <time>2015-09-06T07:34:28Z</time>
      </trkpt>
      <trkpt lat="45.83342" lon="4.80792">
        <ele>423</ele>
        <time>2015-09-06T07:34:34Z</time>
      </trkpt>
      <trkpt lat="45.8334" lon="4.80794">
        <ele>423</ele>
        <time>2015-09-06T07:34:36Z</time>
      </trkpt>
      <trkpt lat="45.83337" lon="4.80797">
        <ele>423</ele>
        <time>2015-09-06T07:34:38Z</time>
      </trkpt>
      <trkpt lat="45.83334" lon="4.80803">
        <ele>422</ele>
        <time>2015-09-06T07:34:46Z</time>
      </trkpt>
      <trkpt lat="45.83334" lon="4.80805">
        <ele>422</ele>
        <time>2015-09-06T07:34:48Z</time>
      </trkpt>
      <trkpt lat="45.83335" lon="4.80806">
        <ele>422</ele>
        <time>2015-09-06T07:35:00Z</time>
      </trkpt>
      <trkpt lat="45.83332" lon="4.80812">
        <ele>421</ele>
        <time>2015-09-06T07:35:15Z</time>
      </trkpt>
      <trkpt lat="45.8333" lon="4.80814">
        <ele>421</ele>
        <time>2015-09-06T07:35:17Z</time>
      </trkpt>
      <trkpt lat="45.83327" lon="4.80817">
        <ele>421</ele>
        <time>2015-09-06T07:35:28Z</time>
      </trkpt>
      <trkpt lat="45.83328" lon="4.80815">
        <ele>421</ele>
        <time>2015-09-06T07:35:31Z</time>
      </trkpt>
      <trkpt lat="45.83329" lon="4.80814">
        <ele>421</ele>
        <time>2015-09-06T07:35:33Z</time>
      </trkpt>
      <trkpt lat="45.83334" lon="4.80812">
        <ele>422</ele>
        <time>2015-09-06T07:35:38Z</time>
      </trkpt>
      <trkpt lat="45.83335" lon="4.80808">
        <ele>422</ele>
        <time>2015-09-06T07:35:50Z</time>
      </trkpt>
      <trkpt lat="45.83334" lon="4.8081">
        <ele>422</ele>
        <time>2015-09-06T07:35:51Z</time>
      </trkpt>
      <trkpt lat="45.8333" lon="4.80814">
        <ele>421</ele>
        <time>2015-09-06T07:35:55Z</time>
      </trkpt>
      <trkpt lat="45.83331" lon="4.80813">
        <ele>421</ele>
        <time>2015-09-06T07:35:58Z</time>
      </trkpt>
      <trkpt lat="45.83329" lon="4.80813">
        <ele>421</ele>
        <time>2015-09-06T07:36:02Z</time>
      </trkpt>
      <trkpt lat="45.83326" lon="4.80815">
        <ele>421</ele>
        <time>2015-09-06T07:36:05Z</time>
      </trkpt>
      <trkpt lat="45.83324" lon="4.80819">
        <ele>421</ele>
        <time>2015-09-06T07:36:07Z</time>
      </trkpt>
      <trkpt lat="45.83322" lon="4.80821">
        <ele>421</ele>
        <time>2015-09-06T07:36:09Z</time>
      </trkpt>
      <trkpt lat="45.83321" lon="4.80822">
        <ele>421</ele>
        <time>2015-09-06T07:36:10Z</time>
      </trkpt>
      <trkpt lat="45.83318" lon="4.80825">
        <ele>421</ele>
        <time>2015-09-06T07:36:13Z</time>
      </trkpt>
      <trkpt lat="45.83316" lon="4.80829">
        <ele>421</ele>
        <time>2015-09-06T07:36:16Z</time>
      </trkpt>
      <trkpt lat="45.8331" lon="4.80831">
        <ele>420</ele>
        <time>2015-09-06T07:36:20Z</time>
      </trkpt>
      <trkpt lat="45.83307" lon="4.80834">
        <ele>416</ele>
        <time>2015-09-06T07:36:22Z</time>
      </trkpt>
      <trkpt lat="45.833" lon="4.80841">
        <ele>416</ele>
        <time>2015-09-06T07:36:25Z</time>
      </trkpt>
      <trkpt lat="45.83294" lon="4.80851">
        <ele>415</ele>
        <time>2015-09-06T07:36:30Z</time>
      </trkpt>
      <trkpt lat="45.83296" lon="4.80849">
        <ele>415</ele>
        <time>2015-09-06T07:36:39Z</time>
      </trkpt>
      <trkpt lat="45.83297" lon="4.80844">
        <ele>416</ele>
        <time>2015-09-06T07:36:53Z</time>
      </trkpt>
      <trkpt lat="45.83296" lon="4.80842">
        <ele>416</ele>
        <time>2015-09-06T07:36:56Z</time>
      </trkpt>
      <trkpt lat="45.83298" lon="4.80843">
        <ele>416</ele>
        <time>2015-09-06T07:36:58Z</time>
      </trkpt>
      <trkpt lat="45.833" lon="4.80848">
        <ele>416</ele>
        <time>2015-09-06T07:37:03Z</time>
      </trkpt>
      <trkpt lat="45.83297" lon="4.8085">
        <ele>415</ele>
        <time>2015-09-06T07:37:10Z</time>
      </trkpt>
      <trkpt lat="45.83293" lon="4.80848">
        <ele>415</ele>
        <time>2015-09-06T07:37:15Z</time>
      </trkpt>
      <trkpt lat="45.83292" lon="4.80847">
        <ele>415</ele>
        <time>2015-09-06T07:37:18Z</time>
      </trkpt>
      <trkpt lat="45.83291" lon="4.80841">
        <ele>415</ele>
        <time>2015-09-06T07:37:20Z</time>
      </trkpt>
      <trkpt lat="45.8329" lon="4.80836">
        <ele>415</ele>
        <time>2015-09-06T07:37:23Z</time>
      </trkpt>
      <trkpt lat="45.83285" lon="4.80817">
        <ele>420</ele>
        <time>2015-09-06T07:37:27Z</time>
      </trkpt>
      <trkpt lat="45.83281" lon="4.80803">
        <ele>420</ele>
        <time>2015-09-06T07:37:31Z</time>
      </trkpt>
      <trkpt lat="45.83278" lon="4.80795">
        <ele>420</ele>
        <time>2015-09-06T07:37:35Z</time>
      </trkpt>
      <trkpt lat="45.83276" lon="4.80794">
        <ele>420</ele>
        <time>2015-09-06T07:37:37Z</time>
      </trkpt>
      <trkpt lat="45.83276" lon="4.80793">
        <ele>420</ele>
        <time>2015-09-06T07:37:38Z</time>
      </trkpt>
      <trkpt lat="45.83272" lon="4.80785">
        <ele>420</ele>
        <time>2015-09-06T07:37:41Z</time>
      </trkpt>
      <trkpt lat="45.83271" lon="4.80785">
        <ele>420</ele>
        <time>2015-09-06T07:37:43Z</time>
      </trkpt>
      <trkpt lat="45.83271" lon="4.80785">
        <ele>420</ele>
        <time>2015-09-06T07:37:44Z</time>
      </trkpt>
      <trkpt lat="45.83264" lon="4.80791">
        <ele>420</ele>
        <time>2015-09-06T07:37:48Z</time>
      </trkpt>
      <trkpt lat="45.83261" lon="4.80794">
        <ele>420</ele>
        <time>2015-09-06T07:37:49Z</time>
      </trkpt>
      <trkpt lat="45.8326" lon="4.80796">
        <ele>420</ele>
        <time>2015-09-06T07:37:53Z</time>
      </trkpt>
      <trkpt lat="45.83254" lon="4.8079">
        <ele>420</ele>
        <time>2015-09-06T07:38:09Z</time>
      </trkpt>
      <trkpt lat="45.83259" lon="4.80788">
        <ele>420</ele>
        <time>2015-09-06T07:38:14Z</time>
      </trkpt>
      <trkpt lat="45.83262" lon="4.80786">
        <ele>420</ele>
        <time>2015-09-06T07:38:23Z</time>
      </trkpt>
      <trkpt lat="45.83267" lon="4.80781">
        <ele>420</ele>
        <time>2015-09-06T07:38:33Z</time>
      </trkpt>
      <trkpt lat="45.83266" lon="4.8078">
        <ele>420</ele>
        <time>2015-09-06T07:38:49Z</time>
      </trkpt>
      <trkpt lat="45.83264" lon="4.80782">
        <ele>420</ele>
        <time>2015-09-06T07:38:53Z</time>
      </trkpt>
      <trkpt lat="45.83262" lon="4.80785">
        <ele>420</ele>
        <time>2015-09-06T07:39:00Z</time>
      </trkpt>
      <trkpt lat="45.8326" lon="4.80788">
        <ele>420</ele>
        <time>2015-09-06T07:39:03Z</time>
      </trkpt>
      <trkpt lat="45.83259" lon="4.80787">
        <ele>420</ele>
        <time>2015-09-06T07:39:04Z</time>
      </trkpt>
      <trkpt lat="45.83258" lon="4.80782">
        <ele>420</ele>
        <time>2015-09-06T07:39:10Z</time>
      </trkpt>
      <trkpt lat="45.83259" lon="4.80781">
        <ele>420</ele>
        <time>2015-09-06T07:39:12Z</time>
      </trkpt>
      <trkpt lat="45.83259" lon="4.80786">
        <ele>420</ele>
        <time>2015-09-06T07:39:44Z</time>
      </trkpt>
      <trkpt lat="45.83261" lon="4.80785">
        <ele>420</ele>
        <time>2015-09-06T07:40:13Z</time>
      </trkpt>
      <trkpt lat="45.83266" lon="4.80789">
        <ele>420</ele>
        <time>2015-09-06T07:40:22Z</time>
      </trkpt>
      <trkpt lat="45.83267" lon="4.80793">
        <ele>420</ele>
        <time>2015-09-06T07:40:35Z</time>
      </trkpt>
      <trkpt lat="45.83267" lon="4.80794">
        <ele>420</ele>
        <time>2015-09-06T07:40:37Z</time>
      </trkpt>
      <trkpt lat="45.83265" lon="4.80792">
        <ele>420</ele>
        <time>2015-09-06T07:40:47Z</time>
      </trkpt>
      <trkpt lat="45.83263" lon="4.80791">
        <ele>420</ele>
        <time>2015-09-06T07:41:01Z</time>
      </trkpt>
      <trkpt lat="45.83267" lon="4.80783">
        <ele>420</ele>
        <time>2015-09-06T07:41:38Z</time>
      </trkpt>
      <trkpt lat="45.83267" lon="4.80782">
        <ele>420</ele>
        <time>2015-09-06T07:41:47Z</time>
      </trkpt>
      <trkpt lat="45.8327" lon="4.80777">
        <ele>420</ele>
        <time>2015-09-06T07:41:49Z</time>
      </trkpt>
      <trkpt lat="45.8327" lon="4.8078">
        <ele>420</ele>
        <time>2015-09-06T07:41:53Z</time>
      </trkpt>
      <trkpt lat="45.83269" lon="4.80781">
        <ele>420</ele>
        <time>2015-09-06T07:41:54Z</time>
      </trkpt>
      <trkpt lat="45.83272" lon="4.80781">
        <ele>420</ele>
        <time>2015-09-06T07:42:02Z</time>
      </trkpt>
      <trkpt lat="45.83273" lon="4.8078">
        <ele>420</ele>
        <time>2015-09-06T07:42:03Z</time>
      </trkpt>
      <trkpt lat="45.8327" lon="4.8078">
        <ele>420</ele>
        <time>2015-09-06T07:42:07Z</time>
      </trkpt>
      <trkpt lat="45.83266" lon="4.80778">
        <ele>420</ele>
        <time>2015-09-06T07:42:24Z</time>
      </trkpt>
      <trkpt lat="45.83267" lon="4.80777">
        <ele>420</ele>
        <time>2015-09-06T07:42:30Z</time>
      </trkpt>
      <trkpt lat="45.83265" lon="4.80778">
        <ele>420</ele>
        <time>2015-09-06T07:42:31Z</time>
      </trkpt>
      <trkpt lat="45.83265" lon="4.80782">
        <ele>420</ele>
        <time>2015-09-06T07:42:35Z</time>
      </trkpt>
      <trkpt lat="45.83266" lon="4.8078">
        <ele>420</ele>
        <time>2015-09-06T07:42:37Z</time>
      </trkpt>
      <trkpt lat="45.83269" lon="4.80778">
        <ele>420</ele>
        <time>2015-09-06T07:42:40Z</time>
      </trkpt>
      <trkpt lat="45.83269" lon="4.80784">
        <ele>420</ele>
        <time>2015-09-06T07:42:44Z</time>
      </trkpt>
      <trkpt lat="45.83269" lon="4.80785">
        <ele>420</ele>
        <time>2015-09-06T07:42:45Z</time>
      </trkpt>
      <trkpt lat="45.8327" lon="4.80786">
        <ele>420</ele>
        <time>2015-09-06T07:42:47Z</time>
      </trkpt>
      <trkpt lat="45.8327" lon="4.80784">
        <ele>420</ele>
        <time>2015-09-06T07:42:50Z</time>
      </trkpt>
      <trkpt lat="45.8327" lon="4.80783">
        <ele>420</ele>
        <time>2015-09-06T07:42:53Z</time>
      </trkpt>
      <trkpt lat="45.83269" lon="4.80785">
        <ele>420</ele>
        <time>2015-09-06T07:43:07Z</time>
      </trkpt>
      <trkpt lat="45.83265" lon="4.80787">
        <ele>420</ele>
        <time>2015-09-06T07:43:12Z</time>
      </trkpt>
      <trkpt lat="45.83259" lon="4.80789">
        <ele>420</ele>
        <time>2015-09-06T07:43:19Z</time>
      </trkpt>
      <trkpt lat="45.83262" lon="4.80789">
        <ele>420</ele>
        <time>2015-09-06T07:43:43Z</time>
      </trkpt>
      <trkpt lat="45.83272" lon="4.80774">
        <ele>420</ele>
        <time>2015-09-06T07:44:48Z</time>
      </trkpt>
      <trkpt lat="45.83273" lon="4.80769">
        <ele>420</ele>
        <time>2015-09-06T07:45:43Z</time>
      </trkpt>
      <trkpt lat="45.83273" lon="4.80771">
        <ele>420</ele>
        <time>2015-09-06T07:45:49Z</time>
      </trkpt>
      <trkpt lat="45.83271" lon="4.80768">
        <ele>420</ele>
        <time>2015-09-06T07:45:58Z</time>
      </trkpt>
      <trkpt lat="45.83268" lon="4.80777">
        <ele>420</ele>
        <time>2015-09-06T07:46:07Z</time>
      </trkpt>
      <trkpt lat="45.83269" lon="4.8078">
        <ele>420</ele>
        <time>2015-09-06T07:46:10Z</time>
      </trkpt>
      <trkpt lat="45.83259" lon="4.80788">
        <ele>420</ele>
        <time>2015-09-06T07:46:37Z</time>
      </trkpt>
      <trkpt lat="45.83263" lon="4.80783">
        <ele>420</ele>
        <time>2015-09-06T07:46:42Z</time>
      </trkpt>
      <trkpt lat="45.83263" lon="4.80783">
        <ele>420</ele>
        <time>2015-09-06T07:47:50Z</time>
      </trkpt>
      <trkpt lat="45.83262" lon="4.80779">
        <ele>420</ele>
        <time>2015-09-06T07:48:05Z</time>
      </trkpt>
      <trkpt lat="45.83263" lon="4.80776">
        <ele>420</ele>
        <time>2015-09-06T07:48:23Z</time>
      </trkpt>
      <trkpt lat="45.83259" lon="4.8078">
        <ele>420</ele>
        <time>2015-09-06T07:48:31Z</time>
      </trkpt>
      <trkpt lat="45.83257" lon="4.80778">
        <ele>420</ele>
        <time>2015-09-06T07:48:33Z</time>
      </trkpt>
      <trkpt lat="45.83256" lon="4.80777">
        <ele>420</ele>
        <time>2015-09-06T07:48:34Z</time>
      </trkpt>
      <trkpt lat="45.83249" lon="4.80778">
        <ele>419</ele>
        <time>2015-09-06T07:48:38Z</time>
      </trkpt>
      <trkpt lat="45.83247" lon="4.80779">
        <ele>419</ele>
        <time>2015-09-06T07:48:40Z</time>
      </trkpt>
      <trkpt lat="45.83242" lon="4.80783">
        <ele>419</ele>
        <time>2015-09-06T07:48:44Z</time>
      </trkpt>
      <trkpt lat="45.83241" lon="4.80784">
        <ele>419</ele>
        <time>2015-09-06T07:48:45Z</time>
      </trkpt>
      <trkpt lat="45.8324" lon="4.80787">
        <ele>419</ele>
        <time>2015-09-06T07:48:46Z</time>
      </trkpt>
      <trkpt lat="45.83239" lon="4.80788">
        <ele>419</ele>
        <time>2015-09-06T07:48:47Z</time>
      </trkpt>
      <trkpt lat="45.83235" lon="4.80795">
        <ele>419</ele>
        <time>2015-09-06T07:48:50Z</time>
      </trkpt>
      <trkpt lat="45.83229" lon="4.80808">
        <ele>418</ele>
        <time>2015-09-06T07:48:54Z</time>
      </trkpt>
      <trkpt lat="45.83228" lon="4.8081">
        <ele>418</ele>
        <time>2015-09-06T07:48:55Z</time>
      </trkpt>
      <trkpt lat="45.83227" lon="4.80811">
        <ele>418</ele>
        <time>2015-09-06T07:48:56Z</time>
      </trkpt>
      <trkpt lat="45.83225" lon="4.80813">
        <ele>418</ele>
        <time>2015-09-06T07:48:58Z</time>
      </trkpt>
      <trkpt lat="45.83221" lon="4.80813">
        <ele>418</ele>
        <time>2015-09-06T07:49:01Z</time>
      </trkpt>
      <trkpt lat="45.8322" lon="4.80815">
        <ele>418</ele>
        <time>2015-09-06T07:49:03Z</time>
      </trkpt>
      <trkpt lat="45.83218" lon="4.80817">
        <ele>418</ele>
        <time>2015-09-06T07:49:04Z</time>
      </trkpt>
      <trkpt lat="45.83215" lon="4.80822">
        <ele>418</ele>
        <time>2015-09-06T07:49:06Z</time>
      </trkpt>
      <trkpt lat="45.83213" lon="4.80828">
        <ele>418</ele>
        <time>2015-09-06T07:49:08Z</time>
      </trkpt>
      <trkpt lat="45.8321" lon="4.80834">
        <ele>414</ele>
        <time>2015-09-06T07:49:10Z</time>
      </trkpt>
      <trkpt lat="45.83208" lon="4.80836">
        <ele>414</ele>
        <time>2015-09-06T07:49:11Z</time>
      </trkpt>
      <trkpt lat="45.83206" lon="4.80838">
        <ele>414</ele>
        <time>2015-09-06T07:49:12Z</time>
      </trkpt>
      <trkpt lat="45.83195" lon="4.80844">
        <ele>414</ele>
        <time>2015-09-06T07:49:17Z</time>
      </trkpt>
      <trkpt lat="45.83194" lon="4.80845">
        <ele>414</ele>
        <time>2015-09-06T07:49:18Z</time>
      </trkpt>
      <trkpt lat="45.83184" lon="4.80853">
        <ele>414</ele>
        <time>2015-09-06T07:49:22Z</time>
      </trkpt>
      <trkpt lat="45.83182" lon="4.80855">
        <ele>414</ele>
        <time>2015-09-06T07:49:24Z</time>
      </trkpt>
      <trkpt lat="45.83179" lon="4.80861">
        <ele>413</ele>
        <time>2015-09-06T07:49:26Z</time>
      </trkpt>
      <trkpt lat="45.83178" lon="4.80865">
        <ele>413</ele>
        <time>2015-09-06T07:49:27Z</time>
      </trkpt>
      <trkpt lat="45.83177" lon="4.80871">
        <ele>412</ele>
        <time>2015-09-06T07:49:28Z</time>
      </trkpt>
      <trkpt lat="45.83173" lon="4.80887">
        <ele>410</ele>
        <time>2015-09-06T07:49:31Z</time>
      </trkpt>
      <trkpt lat="45.83172" lon="4.8089">
        <ele>410</ele>
        <time>2015-09-06T07:49:32Z</time>
      </trkpt>
      <trkpt lat="45.83169" lon="4.80911">
        <ele>406</ele>
        <time>2015-09-06T07:49:37Z</time>
      </trkpt>
      <trkpt lat="45.83168" lon="4.80914">
        <ele>406</ele>
        <time>2015-09-06T07:49:38Z</time>
      </trkpt>
      <trkpt lat="45.83167" lon="4.8093">
        <ele>403</ele>
        <time>2015-09-06T07:49:42Z</time>
      </trkpt>
      <trkpt lat="45.83162" lon="4.80941">
        <ele>404</ele>
        <time>2015-09-06T07:49:46Z</time>
      </trkpt>
      <trkpt lat="45.83162" lon="4.80943">
        <ele>404</ele>
        <time>2015-09-06T07:49:47Z</time>
      </trkpt>
      <trkpt lat="45.83159" lon="4.80948">
        <ele>403</ele>
        <time>2015-09-06T07:49:49Z</time>
      </trkpt>
      <trkpt lat="45.83154" lon="4.80953">
        <ele>403</ele>
        <time>2015-09-06T07:49:52Z</time>
      </trkpt>
      <trkpt lat="45.83148" lon="4.80964">
        <ele>402</ele>
        <time>2015-09-06T07:49:55Z</time>
      </trkpt>
      <trkpt lat="45.83145" lon="4.80974">
        <ele>401</ele>
        <time>2015-09-06T07:49:57Z</time>
      </trkpt>
      <trkpt lat="45.8314" lon="4.80992">
        <ele>399</ele>
        <time>2015-09-06T07:50:01Z</time>
      </trkpt>
      <trkpt lat="45.83137" lon="4.81002">
        <ele>390</ele>
        <time>2015-09-06T07:50:03Z</time>
      </trkpt>
      <trkpt lat="45.83135" lon="4.81016">
        <ele>390</ele>
        <time>2015-09-06T07:50:06Z</time>
      </trkpt>
      <trkpt lat="45.83135" lon="4.81019">
        <ele>390</ele>
        <time>2015-09-06T07:50:07Z</time>
      </trkpt>
      <trkpt lat="45.83135" lon="4.81022">
        <ele>389</ele>
        <time>2015-09-06T07:50:08Z</time>
      </trkpt>
      <trkpt lat="45.83137" lon="4.81026">
        <ele>389</ele>
        <time>2015-09-06T07:50:09Z</time>
      </trkpt>
      <trkpt lat="45.83142" lon="4.81036">
        <ele>388</ele>
        <time>2015-09-06T07:50:12Z</time>
      </trkpt>
      <trkpt lat="45.83144" lon="4.81041">
        <ele>387</ele>
        <time>2015-09-06T07:50:14Z</time>
      </trkpt>
      <trkpt lat="45.83148" lon="4.81048">
        <ele>386</ele>
        <time>2015-09-06T07:50:17Z</time>
      </trkpt>
      <trkpt lat="45.83151" lon="4.81055">
        <ele>385</ele>
        <time>2015-09-06T07:50:21Z</time>
      </trkpt>
      <trkpt lat="45.83154" lon="4.81056">
        <ele>384</ele>
        <time>2015-09-06T07:50:22Z</time>
      </trkpt>
      <trkpt lat="45.83158" lon="4.8106">
        <ele>383</ele>
        <time>2015-09-06T07:50:24Z</time>
      </trkpt>
      <trkpt lat="45.83162" lon="4.81064">
        <ele>382</ele>
        <time>2015-09-06T07:50:26Z</time>
      </trkpt>
      <trkpt lat="45.83169" lon="4.81069">
        <ele>379</ele>
        <time>2015-09-06T07:50:31Z</time>
      </trkpt>
      <trkpt lat="45.83171" lon="4.8107">
        <ele>379</ele>
        <time>2015-09-06T07:50:32Z</time>
      </trkpt>
      <trkpt lat="45.83177" lon="4.81072">
        <ele>379</ele>
        <time>2015-09-06T07:50:34Z</time>
      </trkpt>
      <trkpt lat="45.83183" lon="4.81072">
        <ele>380</ele>
        <time>2015-09-06T07:50:36Z</time>
      </trkpt>
      <trkpt lat="45.83187" lon="4.81073">
        <ele>380</ele>
        <time>2015-09-06T07:50:38Z</time>
      </trkpt>
      <trkpt lat="45.83192" lon="4.8107">
        <ele>381</ele>
        <time>2015-09-06T07:50:40Z</time>
      </trkpt>
      <trkpt lat="45.83196" lon="4.81072">
        <ele>381</ele>
        <time>2015-09-06T07:50:42Z</time>
      </trkpt>
      <trkpt lat="45.83201" lon="4.81074">
        <ele>381</ele>
        <time>2015-09-06T07:50:44Z</time>
      </trkpt>
      <trkpt lat="45.83208" lon="4.81075">
        <ele>381</ele>
        <time>2015-09-06T07:50:48Z</time>
      </trkpt>
      <trkpt lat="45.8321" lon="4.81076">
        <ele>381</ele>
        <time>2015-09-06T07:50:49Z</time>
      </trkpt>
      <trkpt lat="45.83215" lon="4.81079">
        <ele>381</ele>
        <time>2015-09-06T07:50:52Z</time>
      </trkpt>
      <trkpt lat="45.83216" lon="4.81083">
        <ele>381</ele>
        <time>2015-09-06T07:50:53Z</time>
      </trkpt>
      <trkpt lat="45.83218" lon="4.81101">
        <ele>372</ele>
        <time>2015-09-06T07:50:57Z</time>
      </trkpt>
      <trkpt lat="45.83219" lon="4.81105">
        <ele>371</ele>
        <time>2015-09-06T07:50:58Z</time>
      </trkpt>
      <trkpt lat="45.83225" lon="4.81121">
        <ele>370</ele>
        <time>2015-09-06T07:51:02Z</time>
      </trkpt>
      <trkpt lat="45.83227" lon="4.81128">
        <ele>370</ele>
        <time>2015-09-06T07:51:04Z</time>
      </trkpt>
      <trkpt lat="45.83229" lon="4.81131">
        <ele>370</ele>
        <time>2015-09-06T07:51:05Z</time>
      </trkpt>
      <trkpt lat="45.83232" lon="4.81138">
        <ele>369</ele>
        <time>2015-09-06T07:51:07Z</time>
      </trkpt>
      <trkpt lat="45.83233" lon="4.81154">
        <ele>368</ele>
        <time>2015-09-06T07:51:12Z</time>
      </trkpt>
      <trkpt lat="45.83234" lon="4.81157">
        <ele>368</ele>
        <time>2015-09-06T07:51:13Z</time>
      </trkpt>
      <trkpt lat="45.83236" lon="4.81162">
        <ele>367</ele>
        <time>2015-09-06T07:51:15Z</time>
      </trkpt>
      <trkpt lat="45.83237" lon="4.81161">
        <ele>367</ele>
        <time>2015-09-06T07:51:16Z</time>
      </trkpt>
      <trkpt lat="45.8324" lon="4.81158">
        <ele>367</ele>
        <time>2015-09-06T07:51:19Z</time>
      </trkpt>
      <trkpt lat="45.83241" lon="4.81155">
        <ele>368</ele>
        <time>2015-09-06T07:51:21Z</time>
      </trkpt>
      <trkpt lat="45.83241" lon="4.81151">
        <ele>368</ele>
        <time>2015-09-06T07:51:23Z</time>
      </trkpt>
      <trkpt lat="45.83239" lon="4.81143">
        <ele>369</ele>
        <time>2015-09-06T07:51:26Z</time>
      </trkpt>
      <trkpt lat="45.83239" lon="4.81142">
        <ele>369</ele>
        <time>2015-09-06T07:51:27Z</time>
      </trkpt>
      <trkpt lat="45.83235" lon="4.81145">
        <ele>369</ele>
        <time>2015-09-06T07:51:30Z</time>
      </trkpt>
      <trkpt lat="45.83234" lon="4.81155">
        <ele>368</ele>
        <time>2015-09-06T07:51:33Z</time>
      </trkpt>
      <trkpt lat="45.83233" lon="4.81162">
        <ele>368</ele>
        <time>2015-09-06T07:51:35Z</time>
      </trkpt>
      <trkpt lat="45.83233" lon="4.81164">
        <ele>368</ele>
        <time>2015-09-06T07:51:36Z</time>
      </trkpt>
      <trkpt lat="45.83235" lon="4.81182">
        <ele>361</ele>
        <time>2015-09-06T07:51:41Z</time>
      </trkpt>
      <trkpt lat="45.83234" lon="4.81192">
        <ele>360</ele>
        <time>2015-09-06T07:51:44Z</time>
      </trkpt>
      <trkpt lat="45.83233" lon="4.81195">
        <ele>359</ele>
        <time>2015-09-06T07:51:45Z</time>
      </trkpt>
      <trkpt lat="45.83228" lon="4.8121">
        <ele>358</ele>
        <time>2015-09-06T07:51:49Z</time>
      </trkpt>
      <trkpt lat="45.83227" lon="4.81213">
        <ele>358</ele>
        <time>2015-09-06T07:51:50Z</time>
      </trkpt>
      <trkpt lat="45.83226" lon="4.81217">
        <ele>357</ele>
        <time>2015-09-06T07:51:51Z</time>
      </trkpt>
      <trkpt lat="45.83225" lon="4.8123">
        <ele>357</ele>
        <time>2015-09-06T07:51:55Z</time>
      </trkpt>
      <trkpt lat="45.83224" lon="4.81238">
        <ele>356</ele>
        <time>2015-09-06T07:51:58Z</time>
      </trkpt>
      <trkpt lat="45.83224" lon="4.81243">
        <ele>356</ele>
        <time>2015-09-06T07:51:59Z</time>
      </trkpt>
      <trkpt lat="45.83224" lon="4.81246">
        <ele>356</ele>
        <time>2015-09-06T07:52:00Z</time>
      </trkpt>
      <trkpt lat="45.83226" lon="4.81265">
        <ele>348</ele>
        <time>2015-09-06T07:52:06Z</time>
      </trkpt>
      <trkpt lat="45.83226" lon="4.81268">
        <ele>348</ele>
        <time>2015-09-06T07:52:07Z</time>
      </trkpt>
      <trkpt lat="45.83226" lon="4.81271">
        <ele>347</ele>
        <time>2015-09-06T07:52:08Z</time>
      </trkpt>
      <trkpt lat="45.83228" lon="4.81275">
        <ele>347</ele>
        <time>2015-09-06T07:52:10Z</time>
      </trkpt>
      <trkpt lat="45.8323" lon="4.81279">
        <ele>347</ele>
        <time>2015-09-06T07:52:12Z</time>
      </trkpt>
      <trkpt lat="45.83234" lon="4.8129">
        <ele>346</ele>
        <time>2015-09-06T07:52:17Z</time>
      </trkpt>
      <trkpt lat="45.83234" lon="4.81296">
        <ele>345</ele>
        <time>2015-09-06T07:52:19Z</time>
      </trkpt>
      <trkpt lat="45.83236" lon="4.81301">
        <ele>345</ele>
        <time>2015-09-06T07:52:21Z</time>
      </trkpt>
      <trkpt lat="45.83241" lon="4.81313">
        <ele>344</ele>
        <time>2015-09-06T07:52:26Z</time>
      </trkpt>
      <trkpt lat="45.83241" lon="4.81318">
        <ele>344</ele>
        <time>2015-09-06T07:52:28Z</time>
      </trkpt>
      <trkpt lat="45.83239" lon="4.81323">
        <ele>344</ele>
        <time>2015-09-06T07:52:30Z</time>
      </trkpt>
      <trkpt lat="45.83234" lon="4.81336">
        <ele>336</ele>
        <time>2015-09-06T07:52:34Z</time>
      </trkpt>
      <trkpt lat="45.83234" lon="4.81338">
        <ele>336</ele>
        <time>2015-09-06T07:52:35Z</time>
      </trkpt>
      <trkpt lat="45.83235" lon="4.81342">
        <ele>335</ele>
        <time>2015-09-06T07:52:37Z</time>
      </trkpt>
      <trkpt lat="45.83234" lon="4.81345">
        <ele>335</ele>
        <time>2015-09-06T07:52:39Z</time>
      </trkpt>
      <trkpt lat="45.83237" lon="4.8135">
        <ele>334</ele>
        <time>2015-09-06T07:52:41Z</time>
      </trkpt>
      <trkpt lat="45.83237" lon="4.81354">
        <ele>333</ele>
        <time>2015-09-06T07:52:43Z</time>
      </trkpt>
      <trkpt lat="45.83232" lon="4.81362">
        <ele>331</ele>
        <time>2015-09-06T07:52:47Z</time>
      </trkpt>
      <trkpt lat="45.83226" lon="4.81359">
        <ele>330</ele>
        <time>2015-09-06T07:52:50Z</time>
      </trkpt>
      <trkpt lat="45.83225" lon="4.81357">
        <ele>331</ele>
        <time>2015-09-06T07:52:51Z</time>
      </trkpt>
      <trkpt lat="45.83219" lon="4.81352">
        <ele>331</ele>
        <time>2015-09-06T07:52:55Z</time>
      </trkpt>
      <trkpt lat="45.83218" lon="4.81352">
        <ele>330</ele>
        <time>2015-09-06T07:52:56Z</time>
      </trkpt>
      <trkpt lat="45.83212" lon="4.81359">
        <ele>329</ele>
        <time>2015-09-06T07:52:59Z</time>
      </trkpt>
      <trkpt lat="45.83204" lon="4.81364">
        <ele>327</ele>
        <time>2015-09-06T07:53:03Z</time>
      </trkpt>
      <trkpt lat="45.83203" lon="4.81361">
        <ele>328</ele>
        <time>2015-09-06T07:53:05Z</time>
      </trkpt>
      <trkpt lat="45.832" lon="4.81358">
        <ele>328</ele>
        <time>2015-09-06T07:53:08Z</time>
      </trkpt>
      <trkpt lat="45.83196" lon="4.81361">
        <ele>327</ele>
        <time>2015-09-06T07:53:11Z</time>
      </trkpt>
      <trkpt lat="45.83195" lon="4.81364">
        <ele>327</ele>
        <time>2015-09-06T07:53:12Z</time>
      </trkpt>
      <trkpt lat="45.83196" lon="4.81365">
        <ele>327</ele>
        <time>2015-09-06T07:53:14Z</time>
      </trkpt>
      <trkpt lat="45.832" lon="4.81367">
        <ele>327</ele>
        <time>2015-09-06T07:53:16Z</time>
      </trkpt>
      <trkpt lat="45.832" lon="4.81369">
        <ele>327</ele>
        <time>2015-09-06T07:53:17Z</time>
      </trkpt>
      <trkpt lat="45.83179" lon="4.81365">
        <ele>326</ele>
        <time>2015-09-06T07:53:38Z</time>
      </trkpt>
      <trkpt lat="45.83186" lon="4.81367">
        <ele>326</ele>
        <time>2015-09-06T07:53:41Z</time>
      </trkpt>
      <trkpt lat="45.83193" lon="4.81375">
        <ele>325</ele>
        <time>2015-09-06T07:53:46Z</time>
      </trkpt>
      <trkpt lat="45.83193" lon="4.81373">
        <ele>326</ele>
        <time>2015-09-06T07:53:51Z</time>
      </trkpt>
      <trkpt lat="45.83194" lon="4.81369">
        <ele>326</ele>
        <time>2015-09-06T07:53:54Z</time>
      </trkpt>
      <trkpt lat="45.83193" lon="4.81361">
        <ele>327</ele>
        <time>2015-09-06T07:53:59Z</time>
      </trkpt>
      <trkpt lat="45.83189" lon="4.81357">
        <ele>327</ele>
        <time>2015-09-06T07:54:02Z</time>
      </trkpt>
      <trkpt lat="45.83185" lon="4.81357">
        <ele>327</ele>
        <time>2015-09-06T07:54:04Z</time>
      </trkpt>
      <trkpt lat="45.83175" lon="4.81353">
        <ele>327</ele>
        <time>2015-09-06T07:54:08Z</time>
      </trkpt>
      <trkpt lat="45.83168" lon="4.8135">
        <ele>328</ele>
        <time>2015-09-06T07:54:13Z</time>
      </trkpt>
      <trkpt lat="45.83167" lon="4.81349">
        <ele>328</ele>
        <time>2015-09-06T07:54:14Z</time>
      </trkpt>
      <trkpt lat="45.83164" lon="4.81345">
        <ele>324</ele>
        <time>2015-09-06T07:54:16Z</time>
      </trkpt>
      <trkpt lat="45.8316" lon="4.81344">
        <ele>324</ele>
        <time>2015-09-06T07:54:18Z</time>
      </trkpt>
      <trkpt lat="45.83155" lon="4.81338">
        <ele>324</ele>
        <time>2015-09-06T07:54:22Z</time>
      </trkpt>
      <trkpt lat="45.8315" lon="4.81334">
        <ele>323</ele>
        <time>2015-09-06T07:54:28Z</time>
      </trkpt>
      <trkpt lat="45.83148" lon="4.81333">
        <ele>331</ele>
        <time>2015-09-06T07:54:30Z</time>
      </trkpt>
      <trkpt lat="45.83136" lon="4.81325">
        <ele>331</ele>
        <time>2015-09-06T07:54:34Z</time>
      </trkpt>
      <trkpt lat="45.83127" lon="4.81321">
        <ele>331</ele>
        <time>2015-09-06T07:54:36Z</time>
      </trkpt>
      <trkpt lat="45.83125" lon="4.81318">
        <ele>331</ele>
        <time>2015-09-06T07:54:37Z</time>
      </trkpt>
      <trkpt lat="45.83122" lon="4.81318">
        <ele>331</ele>
        <time>2015-09-06T07:54:39Z</time>
      </trkpt>
      <trkpt lat="45.8312" lon="4.81324">
        <ele>330</ele>
        <time>2015-09-06T07:54:42Z</time>
      </trkpt>
      <trkpt lat="45.83123" lon="4.81331">
        <ele>330</ele>
        <time>2015-09-06T07:54:45Z</time>
      </trkpt>
      <trkpt lat="45.83122" lon="4.81333">
        <ele>319</ele>
        <time>2015-09-06T07:54:46Z</time>
      </trkpt>
      <trkpt lat="45.83122" lon="4.81342">
        <ele>318</ele>
        <time>2015-09-06T07:54:49Z</time>
      </trkpt>
      <trkpt lat="45.83122" lon="4.81343">
        <ele>318</ele>
        <time>2015-09-06T07:54:50Z</time>
      </trkpt>
      <trkpt lat="45.83111" lon="4.81357">
        <ele>317</ele>
        <time>2015-09-06T07:54:55Z</time>
      </trkpt>
      <trkpt lat="45.83109" lon="4.81357">
        <ele>317</ele>
        <time>2015-09-06T07:54:56Z</time>
      </trkpt>
      <trkpt lat="45.83106" lon="4.81358">
        <ele>316</ele>
        <time>2015-09-06T07:54:57Z</time>
      </trkpt>
      <trkpt lat="45.83098" lon="4.81361">
        <ele>316</ele>
        <time>2015-09-06T07:55:01Z</time>
      </trkpt>
      <trkpt lat="45.83097" lon="4.81358">
        <ele>316</ele>
        <time>2015-09-06T07:55:02Z</time>
      </trkpt>
      <trkpt lat="45.83091" lon="4.8136">
        <ele>316</ele>
        <time>2015-09-06T07:55:06Z</time>
      </trkpt>
      <trkpt lat="45.83089" lon="4.81362">
        <ele>316</ele>
        <time>2015-09-06T07:55:08Z</time>
      </trkpt>
      <trkpt lat="45.83088" lon="4.81363">
        <ele>316</ele>
        <time>2015-09-06T07:55:09Z</time>
      </trkpt>
      <trkpt lat="45.83086" lon="4.81364">
        <ele>316</ele>
        <time>2015-09-06T07:55:11Z</time>
      </trkpt>
      <trkpt lat="45.83078" lon="4.81369">
        <ele>316</ele>
        <time>2015-09-06T07:55:16Z</time>
      </trkpt>
      <trkpt lat="45.83077" lon="4.81371">
        <ele>315</ele>
        <time>2015-09-06T07:55:17Z</time>
      </trkpt>
      <trkpt lat="45.83073" lon="4.81373">
        <ele>315</ele>
        <time>2015-09-06T07:55:20Z</time>
      </trkpt>
      <trkpt lat="45.83069" lon="4.8138">
        <ele>315</ele>
        <time>2015-09-06T07:55:24Z</time>
      </trkpt>
      <trkpt lat="45.83068" lon="4.81395">
        <ele>313</ele>
        <time>2015-09-06T07:55:29Z</time>
      </trkpt>
      <trkpt lat="45.83068" lon="4.81398">
        <ele>312</ele>
        <time>2015-09-06T07:55:30Z</time>
      </trkpt>
      <trkpt lat="45.83069" lon="4.81411">
        <ele>310</ele>
        <time>2015-09-06T07:55:34Z</time>
      </trkpt>
      <trkpt lat="45.83072" lon="4.81422">
        <ele>308</ele>
        <time>2015-09-06T07:55:37Z</time>
      </trkpt>
      <trkpt lat="45.83073" lon="4.81424">
        <ele>308</ele>
        <time>2015-09-06T07:55:38Z</time>
      </trkpt>
      <trkpt lat="45.83087" lon="4.81434">
        <ele>303</ele>
        <time>2015-09-06T07:55:44Z</time>
      </trkpt>
      <trkpt lat="45.83092" lon="4.81438">
        <ele>303</ele>
        <time>2015-09-06T07:55:46Z</time>
      </trkpt>
      <trkpt lat="45.83098" lon="4.81442">
        <ele>302</ele>
        <time>2015-09-06T07:55:49Z</time>
      </trkpt>
      <trkpt lat="45.83099" lon="4.81442">
        <ele>302</ele>
        <time>2015-09-06T07:55:50Z</time>
      </trkpt>
      <trkpt lat="45.83106" lon="4.81447">
        <ele>302</ele>
        <time>2015-09-06T07:55:53Z</time>
      </trkpt>
      <trkpt lat="45.83108" lon="4.81449">
        <ele>302</ele>
        <time>2015-09-06T07:55:54Z</time>
      </trkpt>
      <trkpt lat="45.83111" lon="4.81451">
        <ele>302</ele>
        <time>2015-09-06T07:55:55Z</time>
      </trkpt>
      <trkpt lat="45.83114" lon="4.81456">
        <ele>301</ele>
        <time>2015-09-06T07:55:57Z</time>
      </trkpt>
      <trkpt lat="45.83117" lon="4.81461">
        <ele>301</ele>
        <time>2015-09-06T07:55:59Z</time>
      </trkpt>
      <trkpt lat="45.8312" lon="4.81471">
        <ele>300</ele>
        <time>2015-09-06T07:56:02Z</time>
      </trkpt>
      <trkpt lat="45.8312" lon="4.81474">
        <ele>300</ele>
        <time>2015-09-06T07:56:03Z</time>
      </trkpt>
      <trkpt lat="45.83123" lon="4.81481">
        <ele>300</ele>
        <time>2015-09-06T07:56:06Z</time>
      </trkpt>
      <trkpt lat="45.83131" lon="4.81494">
        <ele>299</ele>
        <time>2015-09-06T07:56:10Z</time>
      </trkpt>
      <trkpt lat="45.83133" lon="4.81497">
        <ele>298</ele>
        <time>2015-09-06T07:56:11Z</time>
      </trkpt>
      <trkpt lat="45.83144" lon="4.81513">
        <ele>293</ele>
        <time>2015-09-06T07:56:16Z</time>
      </trkpt>
      <trkpt lat="45.83145" lon="4.81516">
        <ele>293</ele>
        <time>2015-09-06T07:56:17Z</time>
      </trkpt>
      <trkpt lat="45.83153" lon="4.81535">
        <ele>293</ele>
        <time>2015-09-06T07:56:22Z</time>
      </trkpt>
      <trkpt lat="45.83154" lon="4.81539">
        <ele>292</ele>
        <time>2015-09-06T07:56:23Z</time>
      </trkpt>
      <trkpt lat="45.8316" lon="4.81553">
        <ele>291</ele>
        <time>2015-09-06T07:56:27Z</time>
      </trkpt>
      <trkpt lat="45.83162" lon="4.81561">
        <ele>290</ele>
        <time>2015-09-06T07:56:29Z</time>
      </trkpt>
      <trkpt lat="45.83161" lon="4.81565">
        <ele>289</ele>
        <time>2015-09-06T07:56:30Z</time>
      </trkpt>
      <trkpt lat="45.83162" lon="4.81568">
        <ele>288</ele>
        <time>2015-09-06T07:56:31Z</time>
      </trkpt>
      <trkpt lat="45.83167" lon="4.81585">
        <ele>283</ele>
        <time>2015-09-06T07:56:36Z</time>
      </trkpt>
      <trkpt lat="45.83168" lon="4.81589">
        <ele>282</ele>
        <time>2015-09-06T07:56:37Z</time>
      </trkpt>
      <trkpt lat="45.83173" lon="4.81602">
        <ele>281</ele>
        <time>2015-09-06T07:56:41Z</time>
      </trkpt>
      <trkpt lat="45.83179" lon="4.81612">
        <ele>281</ele>
        <time>2015-09-06T07:56:44Z</time>
      </trkpt>
      <trkpt lat="45.83184" lon="4.81619">
        <ele>280</ele>
        <time>2015-09-06T07:56:47Z</time>
      </trkpt>
      <trkpt lat="45.83186" lon="4.81618">
        <ele>280</ele>
        <time>2015-09-06T07:56:48Z</time>
      </trkpt>
      <trkpt lat="45.83193" lon="4.81616">
        <ele>281</ele>
        <time>2015-09-06T07:56:51Z</time>
      </trkpt>
      <trkpt lat="45.83196" lon="4.81616">
        <ele>281</ele>
        <time>2015-09-06T07:56:52Z</time>
      </trkpt>
      <trkpt lat="45.8321" lon="4.81622">
        <ele>281</ele>
        <time>2015-09-06T07:56:56Z</time>
      </trkpt>
      <trkpt lat="45.83213" lon="4.81624">
        <ele>281</ele>
        <time>2015-09-06T07:56:57Z</time>
      </trkpt>
      <trkpt lat="45.8322" lon="4.81634">
        <ele>281</ele>
        <time>2015-09-06T07:57:01Z</time>
      </trkpt>
      <trkpt lat="45.83225" lon="4.81646">
        <ele>280</ele>
        <time>2015-09-06T07:57:05Z</time>
      </trkpt>
      <trkpt lat="45.83227" lon="4.81652">
        <ele>280</ele>
        <time>2015-09-06T07:57:07Z</time>
      </trkpt>
      <trkpt lat="45.83237" lon="4.81668">
        <ele>275</ele>
        <time>2015-09-06T07:57:13Z</time>
      </trkpt>
      <trkpt lat="45.83246" lon="4.81679">
        <ele>275</ele>
        <time>2015-09-06T07:57:19Z</time>
      </trkpt>
      <trkpt lat="45.83252" lon="4.81686">
        <ele>279</ele>
        <time>2015-09-06T07:57:22Z</time>
      </trkpt>
      <trkpt lat="45.83259" lon="4.81695">
        <ele>279</ele>
        <time>2015-09-06T07:57:26Z</time>
      </trkpt>
      <trkpt lat="45.83267" lon="4.81704">
        <ele>279</ele>
        <time>2015-09-06T07:57:31Z</time>
      </trkpt>
      <trkpt lat="45.83273" lon="4.8171">
        <ele>279</ele>
        <time>2015-09-06T07:57:34Z</time>
      </trkpt>
      <trkpt lat="45.83283" lon="4.8172">
        <ele>279</ele>
        <time>2015-09-06T07:57:40Z</time>
      </trkpt>
      <trkpt lat="45.83298" lon="4.81731">
        <ele>280</ele>
        <time>2015-09-06T07:57:47Z</time>
      </trkpt>
      <trkpt lat="45.83315" lon="4.8174">
        <ele>281</ele>
        <time>2015-09-06T07:57:55Z</time>
      </trkpt>
      <trkpt lat="45.83317" lon="4.81741">
        <ele>281</ele>
        <time>2015-09-06T07:57:56Z</time>
      </trkpt>
      <trkpt lat="45.8333" lon="4.81749">
        <ele>282</ele>
        <time>2015-09-06T07:58:03Z</time>
      </trkpt>
      <trkpt lat="45.83334" lon="4.81752">
        <ele>282</ele>
        <time>2015-09-06T07:58:05Z</time>
      </trkpt>
      <trkpt lat="45.83343" lon="4.81757">
        <ele>281</ele>
        <time>2015-09-06T07:58:11Z</time>
      </trkpt>
      <trkpt lat="45.83352" lon="4.81761">
        <ele>281</ele>
        <time>2015-09-06T07:58:18Z</time>
      </trkpt>
      <trkpt lat="45.83353" lon="4.81761">
        <ele>281</ele>
        <time>2015-09-06T07:58:19Z</time>
      </trkpt>
      <trkpt lat="45.83361" lon="4.81762">
        <ele>281</ele>
        <time>2015-09-06T07:58:25Z</time>
      </trkpt>
      <trkpt lat="45.83371" lon="4.81763">
        <ele>282</ele>
        <time>2015-09-06T07:58:31Z</time>
      </trkpt>
      <trkpt lat="45.83373" lon="4.81763">
        <ele>282</ele>
        <time>2015-09-06T07:58:32Z</time>
      </trkpt>
      <trkpt lat="45.83383" lon="4.81765">
        <ele>283</ele>
        <time>2015-09-06T07:58:39Z</time>
      </trkpt>
      <trkpt lat="45.8339" lon="4.81763">
        <ele>284</ele>
        <time>2015-09-06T07:58:45Z</time>
      </trkpt>
      <trkpt lat="45.83392" lon="4.81762">
        <ele>284</ele>
        <time>2015-09-06T07:58:47Z</time>
      </trkpt>
      <trkpt lat="45.83392" lon="4.81752">
        <ele>285</ele>
        <time>2015-09-06T07:58:52Z</time>
      </trkpt>
      <trkpt lat="45.83392" lon="4.81747">
        <ele>295</ele>
        <time>2015-09-06T07:58:55Z</time>
      </trkpt>
      <trkpt lat="45.83392" lon="4.81745">
        <ele>295</ele>
        <time>2015-09-06T07:58:56Z</time>
      </trkpt>
      <trkpt lat="45.83391" lon="4.81742">
        <ele>295</ele>
        <time>2015-09-06T07:58:58Z</time>
      </trkpt>
      <trkpt lat="45.83389" lon="4.81738">
        <ele>295</ele>
        <time>2015-09-06T07:59:01Z</time>
      </trkpt>
      <trkpt lat="45.83389" lon="4.81734">
        <ele>295</ele>
        <time>2015-09-06T07:59:04Z</time>
      </trkpt>
      <trkpt lat="45.83391" lon="4.81731">
        <ele>295</ele>
        <time>2015-09-06T07:59:06Z</time>
      </trkpt>
      <trkpt lat="45.83391" lon="4.81727">
        <ele>296</ele>
        <time>2015-09-06T07:59:09Z</time>
      </trkpt>
      <trkpt lat="45.8339" lon="4.81724">
        <ele>296</ele>
        <time>2015-09-06T07:59:13Z</time>
      </trkpt>
      <trkpt lat="45.83385" lon="4.81724">
        <ele>295</ele>
        <time>2015-09-06T07:59:15Z</time>
      </trkpt>
      <trkpt lat="45.83381" lon="4.81726">
        <ele>295</ele>
        <time>2015-09-06T07:59:17Z</time>
      </trkpt>
      <trkpt lat="45.8338" lon="4.81726">
        <ele>295</ele>
        <time>2015-09-06T07:59:18Z</time>
      </trkpt>
      <trkpt lat="45.83382" lon="4.81722">
        <ele>295</ele>
        <time>2015-09-06T07:59:19Z</time>
      </trkpt>
      <trkpt lat="45.83387" lon="4.81714">
        <ele>296</ele>
        <time>2015-09-06T07:59:23Z</time>
      </trkpt>
      <trkpt lat="45.83385" lon="4.81713">
        <ele>297</ele>
        <time>2015-09-06T07:59:25Z</time>
      </trkpt>
      <trkpt lat="45.83386" lon="4.8171">
        <ele>297</ele>
        <time>2015-09-06T07:59:28Z</time>
      </trkpt>
      <trkpt lat="45.83385" lon="4.81706">
        <ele>297</ele>
        <time>2015-09-06T07:59:31Z</time>
      </trkpt>
      <trkpt lat="45.83384" lon="4.81704">
        <ele>297</ele>
        <time>2015-09-06T07:59:33Z</time>
      </trkpt>
      <trkpt lat="45.83385" lon="4.81702">
        <ele>298</ele>
        <time>2015-09-06T07:59:35Z</time>
      </trkpt>
      <trkpt lat="45.83385" lon="4.81696">
        <ele>298</ele>
        <time>2015-09-06T07:59:38Z</time>
      </trkpt>
      <trkpt lat="45.83386" lon="4.81693">
        <ele>299</ele>
        <time>2015-09-06T07:59:40Z</time>
      </trkpt>
      <trkpt lat="45.83386" lon="4.81689">
        <ele>299</ele>
        <time>2015-09-06T07:59:43Z</time>
      </trkpt>
      <trkpt lat="45.83382" lon="4.81685">
        <ele>299</ele>
        <time>2015-09-06T07:59:47Z</time>
      </trkpt>
      <trkpt lat="45.83381" lon="4.81683">
        <ele>299</ele>
        <time>2015-09-06T07:59:48Z</time>
      </trkpt>
      <trkpt lat="45.83381" lon="4.81678">
        <ele>300</ele>
        <time>2015-09-06T07:59:52Z</time>
      </trkpt>
      <trkpt lat="45.8338" lon="4.81676">
        <ele>300</ele>
        <time>2015-09-06T07:59:53Z</time>
      </trkpt>
      <trkpt lat="45.83379" lon="4.81671">
        <ele>300</ele>
        <time>2015-09-06T07:59:56Z</time>
      </trkpt>
      <trkpt lat="45.83379" lon="4.81669">
        <ele>300</ele>
        <time>2015-09-06T07:59:57Z</time>
      </trkpt>
      <trkpt lat="45.83378" lon="4.81667">
        <ele>309</ele>
        <time>2015-09-06T07:59:58Z</time>
      </trkpt>
      <trkpt lat="45.83375" lon="4.81654">
        <ele>309</ele>
        <time>2015-09-06T08:00:04Z</time>
      </trkpt>
      <trkpt lat="45.83374" lon="4.8165">
        <ele>309</ele>
        <time>2015-09-06T08:00:06Z</time>
      </trkpt>
      <trkpt lat="45.83367" lon="4.81639">
        <ele>309</ele>
        <time>2015-09-06T08:00:11Z</time>
      </trkpt>
      <trkpt lat="45.83363" lon="4.81627">
        <ele>310</ele>
        <time>2015-09-06T08:00:17Z</time>
      </trkpt>
      <trkpt lat="45.83362" lon="4.81623">
        <ele>310</ele>
        <time>2015-09-06T08:00:19Z</time>
      </trkpt>
      <trkpt lat="45.83359" lon="4.8161">
        <ele>311</ele>
        <time>2015-09-06T08:00:26Z</time>
      </trkpt>
      <trkpt lat="45.83356" lon="4.81602">
        <ele>311</ele>
        <time>2015-09-06T08:00:30Z</time>
      </trkpt>
      <trkpt lat="45.83355" lon="4.81599">
        <ele>311</ele>
        <time>2015-09-06T08:00:32Z</time>
      </trkpt>
      <trkpt lat="45.83353" lon="4.81593">
        <ele>312</ele>
        <time>2015-09-06T08:00:36Z</time>
      </trkpt>
      <trkpt lat="45.83352" lon="4.81589">
        <ele>312</ele>
        <time>2015-09-06T08:00:38Z</time>
      </trkpt>
      <trkpt lat="45.8335" lon="4.81583">
        <ele>317</ele>
        <time>2015-09-06T08:00:41Z</time>
      </trkpt>
      <trkpt lat="45.83349" lon="4.81577">
        <ele>317</ele>
        <time>2015-09-06T08:00:44Z</time>
      </trkpt>
      <trkpt lat="45.83348" lon="4.81575">
        <ele>318</ele>
        <time>2015-09-06T08:00:46Z</time>
      </trkpt>
      <trkpt lat="45.83346" lon="4.81569">
        <ele>318</ele>
        <time>2015-09-06T08:00:49Z</time>
      </trkpt>
      <trkpt lat="45.83343" lon="4.81565">
        <ele>318</ele>
        <time>2015-09-06T08:00:51Z</time>
      </trkpt>
      <trkpt lat="45.83337" lon="4.81558">
        <ele>319</ele>
        <time>2015-09-06T08:00:56Z</time>
      </trkpt>
      <trkpt lat="45.83335" lon="4.81549">
        <ele>320</ele>
        <time>2015-09-06T08:01:00Z</time>
      </trkpt>
      <trkpt lat="45.83334" lon="4.81545">
        <ele>321</ele>
        <time>2015-09-06T08:01:02Z</time>
      </trkpt>
      <trkpt lat="45.83331" lon="4.81538">
        <ele>313</ele>
        <time>2015-09-06T08:01:07Z</time>
      </trkpt>
      <trkpt lat="45.83328" lon="4.81532">
        <ele>314</ele>
        <time>2015-09-06T08:01:10Z</time>
      </trkpt>
      <trkpt lat="45.83329" lon="4.81528">
        <ele>315</ele>
        <time>2015-09-06T08:01:12Z</time>
      </trkpt>
      <trkpt lat="45.83329" lon="4.81525">
        <ele>315</ele>
        <time>2015-09-06T08:01:13Z</time>
      </trkpt>
      <trkpt lat="45.83328" lon="4.81519">
        <ele>317</ele>
        <time>2015-09-06T08:01:16Z</time>
      </trkpt>
      <trkpt lat="45.83327" lon="4.81519">
        <ele>317</ele>
        <time>2015-09-06T08:01:17Z</time>
      </trkpt>
      <trkpt lat="45.83327" lon="4.81516">
        <ele>318</ele>
        <time>2015-09-06T08:01:19Z</time>
      </trkpt>
      <trkpt lat="45.83325" lon="4.81506">
        <ele>320</ele>
        <time>2015-09-06T08:01:25Z</time>
      </trkpt>
      <trkpt lat="45.83326" lon="4.81501">
        <ele>322</ele>
        <time>2015-09-06T08:01:28Z</time>
      </trkpt>
      <trkpt lat="45.83326" lon="4.815">
        <ele>325</ele>
        <time>2015-09-06T08:01:29Z</time>
      </trkpt>
      <trkpt lat="45.83325" lon="4.81493">
        <ele>325</ele>
        <time>2015-09-06T08:01:33Z</time>
      </trkpt>
      <trkpt lat="45.83325" lon="4.81489">
        <ele>324</ele>
        <time>2015-09-06T08:01:35Z</time>
      </trkpt>
      <trkpt lat="45.83324" lon="4.81487">
        <ele>324</ele>
        <time>2015-09-06T08:01:36Z</time>
      </trkpt>
      <trkpt lat="45.83323" lon="4.81484">
        <ele>324</ele>
        <time>2015-09-06T08:01:39Z</time>
      </trkpt>
      <trkpt lat="45.83322" lon="4.81481">
        <ele>324</ele>
        <time>2015-09-06T08:01:41Z</time>
      </trkpt>
      <trkpt lat="45.83322" lon="4.8148">
        <ele>324</ele>
        <time>2015-09-06T08:01:42Z</time>
      </trkpt>
      <trkpt lat="45.83323" lon="4.81476">
        <ele>324</ele>
        <time>2015-09-06T08:01:45Z</time>
      </trkpt>
      <trkpt lat="45.83324" lon="4.81474">
        <ele>324</ele>
        <time>2015-09-06T08:01:46Z</time>
      </trkpt>
      <trkpt lat="45.83327" lon="4.8147">
        <ele>324</ele>
        <time>2015-09-06T08:01:49Z</time>
      </trkpt>
      <trkpt lat="45.83331" lon="4.81466">
        <ele>325</ele>
        <time>2015-09-06T08:01:52Z</time>
      </trkpt>
      <trkpt lat="45.83333" lon="4.81463">
        <ele>325</ele>
        <time>2015-09-06T08:01:54Z</time>
      </trkpt>
      <trkpt lat="45.83335" lon="4.81461">
        <ele>332</ele>
        <time>2015-09-06T08:01:56Z</time>
      </trkpt>
      <trkpt lat="45.83336" lon="4.8146">
        <ele>332</ele>
        <time>2015-09-06T08:01:57Z</time>
      </trkpt>
      <trkpt lat="45.83345" lon="4.8145">
        <ele>332</ele>
        <time>2015-09-06T08:02:05Z</time>
      </trkpt>
      <trkpt lat="45.83351" lon="4.81446">
        <ele>333</ele>
        <time>2015-09-06T08:02:09Z</time>
      </trkpt>
      <trkpt lat="45.83354" lon="4.81444">
        <ele>333</ele>
        <time>2015-09-06T08:02:11Z</time>
      </trkpt>
      <trkpt lat="45.83361" lon="4.81438">
        <ele>333</ele>
        <time>2015-09-06T08:02:16Z</time>
      </trkpt>
      <trkpt lat="45.83365" lon="4.81433">
        <ele>333</ele>
        <time>2015-09-06T08:02:21Z</time>
      </trkpt>
      <trkpt lat="45.83367" lon="4.81432">
        <ele>334</ele>
        <time>2015-09-06T08:02:22Z</time>
      </trkpt>
      <trkpt lat="45.83374" lon="4.81427">
        <ele>334</ele>
        <time>2015-09-06T08:02:28Z</time>
      </trkpt>
      <trkpt lat="45.83375" lon="4.81426">
        <ele>334</ele>
        <time>2015-09-06T08:02:29Z</time>
      </trkpt>
      <trkpt lat="45.83383" lon="4.81421">
        <ele>335</ele>
        <time>2015-09-06T08:02:36Z</time>
      </trkpt>
      <trkpt lat="45.83384" lon="4.8142">
        <ele>335</ele>
        <time>2015-09-06T08:02:37Z</time>
      </trkpt>
      <trkpt lat="45.83388" lon="4.81416">
        <ele>340</ele>
        <time>2015-09-06T08:02:41Z</time>
      </trkpt>
      <trkpt lat="45.83398" lon="4.81406">
        <ele>340</ele>
        <time>2015-09-06T08:02:50Z</time>
      </trkpt>
      <trkpt lat="45.834" lon="4.81405">
        <ele>340</ele>
        <time>2015-09-06T08:02:51Z</time>
      </trkpt>
      <trkpt lat="45.83409" lon="4.814">
        <ele>341</ele>
        <time>2015-09-06T08:02:57Z</time>
      </trkpt>
      <trkpt lat="45.83414" lon="4.81397">
        <ele>341</ele>
        <time>2015-09-06T08:03:01Z</time>
      </trkpt>
      <trkpt lat="45.83418" lon="4.81395">
        <ele>343</ele>
        <time>2015-09-06T08:03:04Z</time>
      </trkpt>
      <trkpt lat="45.83421" lon="4.81396">
        <ele>343</ele>
        <time>2015-09-06T08:03:05Z</time>
      </trkpt>
      <trkpt lat="45.83427" lon="4.81399">
        <ele>343</ele>
        <time>2015-09-06T08:03:08Z</time>
      </trkpt>
      <trkpt lat="45.83429" lon="4.81401">
        <ele>343</ele>
        <time>2015-09-06T08:03:10Z</time>
      </trkpt>
      <trkpt lat="45.83432" lon="4.81402">
        <ele>343</ele>
        <time>2015-09-06T08:03:14Z</time>
      </trkpt>
      <trkpt lat="45.83432" lon="4.81402">
        <ele>343</ele>
        <time>2015-09-06T08:03:15Z</time>
      </trkpt>
      <trkpt lat="45.83432" lon="4.81401">
        <ele>343</ele>
        <time>2015-09-06T08:03:16Z</time>
      </trkpt>
      <trkpt lat="45.8343" lon="4.81398">
        <ele>343</ele>
        <time>2015-09-06T08:03:18Z</time>
      </trkpt>
      <trkpt lat="45.83428" lon="4.81395">
        <ele>343</ele>
        <time>2015-09-06T08:03:20Z</time>
      </trkpt>
      <trkpt lat="45.83429" lon="4.81383">
        <ele>344</ele>
        <time>2015-09-06T08:03:27Z</time>
      </trkpt>
      <trkpt lat="45.83434" lon="4.8138">
        <ele>345</ele>
        <time>2015-09-06T08:03:30Z</time>
      </trkpt>
      <trkpt lat="45.83436" lon="4.81377">
        <ele>345</ele>
        <time>2015-09-06T08:03:32Z</time>
      </trkpt>
      <trkpt lat="45.83436" lon="4.81376">
        <ele>345</ele>
        <time>2015-09-06T08:03:33Z</time>
      </trkpt>
      <trkpt lat="45.83438" lon="4.81375">
        <ele>345</ele>
        <time>2015-09-06T08:03:35Z</time>
      </trkpt>
      <trkpt lat="45.83443" lon="4.81372">
        <ele>345</ele>
        <time>2015-09-06T08:03:39Z</time>
      </trkpt>
      <trkpt lat="45.83449" lon="4.81373">
        <ele>345</ele>
        <time>2015-09-06T08:03:43Z</time>
      </trkpt>
      <trkpt lat="45.83451" lon="4.81373">
        <ele>345</ele>
        <time>2015-09-06T08:03:45Z</time>
      </trkpt>
      <trkpt lat="45.83456" lon="4.8137">
        <ele>346</ele>
        <time>2015-09-06T08:03:50Z</time>
      </trkpt>
      <trkpt lat="45.83457" lon="4.81369">
        <ele>346</ele>
        <time>2015-09-06T08:03:52Z</time>
      </trkpt>
      <trkpt lat="45.83461" lon="4.81368">
        <ele>346</ele>
        <time>2015-09-06T08:03:55Z</time>
      </trkpt>
      <trkpt lat="45.83463" lon="4.8137">
        <ele>346</ele>
        <time>2015-09-06T08:03:58Z</time>
      </trkpt>
      <trkpt lat="45.83466" lon="4.81369">
        <ele>346</ele>
        <time>2015-09-06T08:04:00Z</time>
      </trkpt>
      <trkpt lat="45.83469" lon="4.81369">
        <ele>346</ele>
        <time>2015-09-06T08:04:02Z</time>
      </trkpt>
      <trkpt lat="45.8348" lon="4.81364">
        <ele>347</ele>
        <time>2015-09-06T08:04:10Z</time>
      </trkpt>
      <trkpt lat="45.83487" lon="4.81363">
        <ele>347</ele>
        <time>2015-09-06T08:04:16Z</time>
      </trkpt>
      <trkpt lat="45.83497" lon="4.81358">
        <ele>348</ele>
        <time>2015-09-06T08:04:23Z</time>
      </trkpt>
      <trkpt lat="45.83505" lon="4.81354">
        <ele>350</ele>
        <time>2015-09-06T08:04:29Z</time>
      </trkpt>
      <trkpt lat="45.83508" lon="4.81351">
        <ele>350</ele>
        <time>2015-09-06T08:04:31Z</time>
      </trkpt>
      <trkpt lat="45.83516" lon="4.81346">
        <ele>350</ele>
        <time>2015-09-06T08:04:36Z</time>
      </trkpt>
      <trkpt lat="45.83522" lon="4.81341">
        <ele>350</ele>
        <time>2015-09-06T08:04:40Z</time>
      </trkpt>
      <trkpt lat="45.83524" lon="4.81339">
        <ele>350</ele>
        <time>2015-09-06T08:04:42Z</time>
      </trkpt>
      <trkpt lat="45.83536" lon="4.8133">
        <ele>356</ele>
        <time>2015-09-06T08:04:50Z</time>
      </trkpt>
      <trkpt lat="45.83539" lon="4.81328">
        <ele>357</ele>
        <time>2015-09-06T08:04:52Z</time>
      </trkpt>
      <trkpt lat="45.83547" lon="4.81326">
        <ele>357</ele>
        <time>2015-09-06T08:04:57Z</time>
      </trkpt>
      <trkpt lat="45.83555" lon="4.81315">
        <ele>357</ele>
        <time>2015-09-06T08:05:03Z</time>
      </trkpt>
      <trkpt lat="45.83556" lon="4.81313">
        <ele>357</ele>
        <time>2015-09-06T08:05:04Z</time>
      </trkpt>
      <trkpt lat="45.83563" lon="4.81308">
        <ele>357</ele>
        <time>2015-09-06T08:05:10Z</time>
      </trkpt>
      <trkpt lat="45.83571" lon="4.81302">
        <ele>357</ele>
        <time>2015-09-06T08:05:17Z</time>
      </trkpt>
      <trkpt lat="45.83583" lon="4.8129">
        <ele>358</ele>
        <time>2015-09-06T08:05:24Z</time>
      </trkpt>
      <trkpt lat="45.83587" lon="4.81287">
        <ele>356</ele>
        <time>2015-09-06T08:05:26Z</time>
      </trkpt>
      <trkpt lat="45.83597" lon="4.81283">
        <ele>356</ele>
        <time>2015-09-06T08:05:30Z</time>
      </trkpt>
      <trkpt lat="45.83605" lon="4.81281">
        <ele>355</ele>
        <time>2015-09-06T08:05:33Z</time>
      </trkpt>
      <trkpt lat="45.8361" lon="4.81277">
        <ele>355</ele>
        <time>2015-09-06T08:05:36Z</time>
      </trkpt>
      <trkpt lat="45.83624" lon="4.8127">
        <ele>355</ele>
        <time>2015-09-06T08:05:41Z</time>
      </trkpt>
      <trkpt lat="45.83628" lon="4.81268">
        <ele>355</ele>
        <time>2015-09-06T08:05:42Z</time>
      </trkpt>
      <trkpt lat="45.83642" lon="4.81256">
        <ele>354</ele>
        <time>2015-09-06T08:05:47Z</time>
      </trkpt>
      <trkpt lat="45.83649" lon="4.81245">
        <ele>358</ele>
        <time>2015-09-06T08:05:52Z</time>
      </trkpt>
      <trkpt lat="45.83651" lon="4.81244">
        <ele>358</ele>
        <time>2015-09-06T08:05:53Z</time>
      </trkpt>
      <trkpt lat="45.83657" lon="4.8124">
        <ele>357</ele>
        <time>2015-09-06T08:05:55Z</time>
      </trkpt>
      <trkpt lat="45.83662" lon="4.81239">
        <ele>357</ele>
        <time>2015-09-06T08:05:57Z</time>
      </trkpt>
      <trkpt lat="45.83664" lon="4.81238">
        <ele>357</ele>
        <time>2015-09-06T08:05:58Z</time>
      </trkpt>
      <trkpt lat="45.83671" lon="4.81235">
        <ele>354</ele>
        <time>2015-09-06T08:06:01Z</time>
      </trkpt>
      <trkpt lat="45.83677" lon="4.81232">
        <ele>354</ele>
        <time>2015-09-06T08:06:03Z</time>
      </trkpt>
      <trkpt lat="45.83686" lon="4.81227">
        <ele>354</ele>
        <time>2015-09-06T08:06:06Z</time>
      </trkpt>
      <trkpt lat="45.83692" lon="4.81222">
        <ele>354</ele>
        <time>2015-09-06T08:06:10Z</time>
      </trkpt>
      <trkpt lat="45.83694" lon="4.8122">
        <ele>355</ele>
        <time>2015-09-06T08:06:11Z</time>
      </trkpt>
      <trkpt lat="45.83704" lon="4.81214">
        <ele>354</ele>
        <time>2015-09-06T08:06:15Z</time>
      </trkpt>
      <trkpt lat="45.83712" lon="4.81209">
        <ele>354</ele>
        <time>2015-09-06T08:06:18Z</time>
      </trkpt>
      <trkpt lat="45.83718" lon="4.81208">
        <ele>354</ele>
        <time>2015-09-06T08:06:20Z</time>
      </trkpt>
      <trkpt lat="45.83732" lon="4.81206">
        <ele>353</ele>
        <time>2015-09-06T08:06:23Z</time>
      </trkpt>
      <trkpt lat="45.83736" lon="4.81205">
        <ele>353</ele>
        <time>2015-09-06T08:06:24Z</time>
      </trkpt>
      <trkpt lat="45.83748" lon="4.81198">
        <ele>354</ele>
        <time>2015-09-06T08:06:28Z</time>
      </trkpt>
      <trkpt lat="45.83752" lon="4.81197">
        <ele>353</ele>
        <time>2015-09-06T08:06:29Z</time>
      </trkpt>
      <trkpt lat="45.8377" lon="4.81195">
        <ele>354</ele>
        <time>2015-09-06T08:06:34Z</time>
      </trkpt>
      <trkpt lat="45.83773" lon="4.81194">
        <ele>354</ele>
        <time>2015-09-06T08:06:35Z</time>
      </trkpt>
      <trkpt lat="45.83779" lon="4.81187">
        <ele>355</ele>
        <time>2015-09-06T08:06:38Z</time>
      </trkpt>
      <trkpt lat="45.83785" lon="4.8117">
        <ele>356</ele>
        <time>2015-09-06T08:06:43Z</time>
      </trkpt>
      <trkpt lat="45.83786" lon="4.81156">
        <ele>365</ele>
        <time>2015-09-06T08:06:47Z</time>
      </trkpt>
      <trkpt lat="45.83787" lon="4.81155">
        <ele>365</ele>
        <time>2015-09-06T08:06:48Z</time>
      </trkpt>
      <trkpt lat="45.83785" lon="4.81163">
        <ele>364</ele>
        <time>2015-09-06T08:06:52Z</time>
      </trkpt>
      <trkpt lat="45.83783" lon="4.81173">
        <ele>356</ele>
        <time>2015-09-06T08:06:57Z</time>
      </trkpt>
      <trkpt lat="45.83778" lon="4.81174">
        <ele>355</ele>
        <time>2015-09-06T08:07:02Z</time>
      </trkpt>
      <trkpt lat="45.83778" lon="4.81172">
        <ele>356</ele>
        <time>2015-09-06T08:07:07Z</time>
      </trkpt>
      <trkpt lat="45.83789" lon="4.81183">
        <ele>355</ele>
        <time>2015-09-06T08:07:25Z</time>
      </trkpt>
      <trkpt lat="45.83793" lon="4.81182">
        <ele>356</ele>
        <time>2015-09-06T08:07:28Z</time>
      </trkpt>
      <trkpt lat="45.83797" lon="4.81174">
        <ele>357</ele>
        <time>2015-09-06T08:07:37Z</time>
      </trkpt>
      <trkpt lat="45.838" lon="4.81173">
        <ele>357</ele>
        <time>2015-09-06T08:07:42Z</time>
      </trkpt>
      <trkpt lat="45.83805" lon="4.81174">
        <ele>357</ele>
        <time>2015-09-06T08:07:46Z</time>
      </trkpt>
      <trkpt lat="45.83812" lon="4.81173">
        <ele>358</ele>
        <time>2015-09-06T08:07:52Z</time>
      </trkpt>
      <trkpt lat="45.83807" lon="4.81169">
        <ele>358</ele>
        <time>2015-09-06T08:08:04Z</time>
      </trkpt>
      <trkpt lat="45.83806" lon="4.81175">
        <ele>357</ele>
        <time>2015-09-06T08:08:27Z</time>
      </trkpt>
      <trkpt lat="45.83811" lon="4.81169">
        <ele>359</ele>
        <time>2015-09-06T08:08:33Z</time>
      </trkpt>
      <trkpt lat="45.83809" lon="4.81171">
        <ele>358</ele>
        <time>2015-09-06T08:08:36Z</time>
      </trkpt>
      <trkpt lat="45.83804" lon="4.81173">
        <ele>357</ele>
        <time>2015-09-06T08:08:44Z</time>
      </trkpt>
      <trkpt lat="45.83801" lon="4.81173">
        <ele>357</ele>
        <time>2015-09-06T08:08:47Z</time>
      </trkpt>
      <trkpt lat="45.83799" lon="4.81172">
        <ele>357</ele>
        <time>2015-09-06T08:08:49Z</time>
      </trkpt>
      <trkpt lat="45.83795" lon="4.81163">
        <ele>365</ele>
        <time>2015-09-06T08:09:02Z</time>
      </trkpt>
      <trkpt lat="45.83803" lon="4.8117">
        <ele>357</ele>
        <time>2015-09-06T08:09:09Z</time>
      </trkpt>
      <trkpt lat="45.83808" lon="4.81169">
        <ele>358</ele>
        <time>2015-09-06T08:09:12Z</time>
      </trkpt>
      <trkpt lat="45.83816" lon="4.81173">
        <ele>359</ele>
        <time>2015-09-06T08:09:31Z</time>
      </trkpt>
      <trkpt lat="45.83815" lon="4.8117">
        <ele>359</ele>
        <time>2015-09-06T08:09:34Z</time>
      </trkpt>
      <trkpt lat="45.83806" lon="4.81164">
        <ele>366</ele>
        <time>2015-09-06T08:09:41Z</time>
      </trkpt>
      <trkpt lat="45.83813" lon="4.81167">
        <ele>359</ele>
        <time>2015-09-06T08:09:44Z</time>
      </trkpt>
      <trkpt lat="45.83814" lon="4.81169">
        <ele>359</ele>
        <time>2015-09-06T08:09:45Z</time>
      </trkpt>
      <trkpt lat="45.83816" lon="4.81171">
        <ele>359</ele>
        <time>2015-09-06T08:09:46Z</time>
      </trkpt>
      <trkpt lat="45.83818" lon="4.81173">
        <ele>360</ele>
        <time>2015-09-06T08:09:48Z</time>
      </trkpt>
      <trkpt lat="45.83824" lon="4.81177">
        <ele>360</ele>
        <time>2015-09-06T08:09:53Z</time>
      </trkpt>
      <trkpt lat="45.83825" lon="4.81178">
        <ele>360</ele>
        <time>2015-09-06T08:09:54Z</time>
      </trkpt>
      <trkpt lat="45.83828" lon="4.81186">
        <ele>359</ele>
        <time>2015-09-06T08:10:00Z</time>
      </trkpt>
      <trkpt lat="45.83832" lon="4.81192">
        <ele>358</ele>
        <time>2015-09-06T08:10:08Z</time>
      </trkpt>
      <trkpt lat="45.83833" lon="4.81191">
        <ele>358</ele>
        <time>2015-09-06T08:10:15Z</time>
      </trkpt>
      <trkpt lat="45.83833" lon="4.81187">
        <ele>359</ele>
        <time>2015-09-06T08:10:18Z</time>
      </trkpt>
      <trkpt lat="45.8384" lon="4.81185">
        <ele>372</ele>
        <time>2015-09-06T08:10:28Z</time>
      </trkpt>
      <trkpt lat="45.83844" lon="4.81182">
        <ele>372</ele>
        <time>2015-09-06T08:10:33Z</time>
      </trkpt>
      <trkpt lat="45.83847" lon="4.81179">
        <ele>372</ele>
        <time>2015-09-06T08:10:37Z</time>
      </trkpt>
      <trkpt lat="45.83846" lon="4.81179">
        <ele>372</ele>
        <time>2015-09-06T08:10:38Z</time>
      </trkpt>
      <trkpt lat="45.8385" lon="4.81176">
        <ele>373</ele>
        <time>2015-09-06T08:10:44Z</time>
      </trkpt>
      <trkpt lat="45.83855" lon="4.81175">
        <ele>374</ele>
        <time>2015-09-06T08:10:48Z</time>
      </trkpt>
      <trkpt lat="45.83855" lon="4.81175">
        <ele>375</ele>
        <time>2015-09-06T08:10:49Z</time>
      </trkpt>
      <trkpt lat="45.83859" lon="4.81177">
        <ele>376</ele>
        <time>2015-09-06T08:10:58Z</time>
      </trkpt>
      <trkpt lat="45.83859" lon="4.81181">
        <ele>376</ele>
        <time>2015-09-06T08:11:01Z</time>
      </trkpt>
      <trkpt lat="45.83854" lon="4.81187">
        <ele>375</ele>
        <time>2015-09-06T08:11:11Z</time>
      </trkpt>
      <trkpt lat="45.83847" lon="4.81193">
        <ele>373</ele>
        <time>2015-09-06T08:11:18Z</time>
      </trkpt>
      <trkpt lat="45.83844" lon="4.81194">
        <ele>373</ele>
        <time>2015-09-06T08:11:21Z</time>
      </trkpt>
      <trkpt lat="45.83844" lon="4.81194">
        <ele>373</ele>
        <time>2015-09-06T08:11:23Z</time>
      </trkpt>
      <trkpt lat="45.83845" lon="4.81195">
        <ele>373</ele>
        <time>2015-09-06T08:11:24Z</time>
      </trkpt>
      <trkpt lat="45.83846" lon="4.81197">
        <ele>373</ele>
        <time>2015-09-06T08:11:25Z</time>
      </trkpt>
      <trkpt lat="45.83845" lon="4.81199">
        <ele>373</ele>
        <time>2015-09-06T08:11:26Z</time>
      </trkpt>
      <trkpt lat="45.83847" lon="4.81201">
        <ele>373</ele>
        <time>2015-09-06T08:11:28Z</time>
      </trkpt>
      <trkpt lat="45.83848" lon="4.81204">
        <ele>373</ele>
        <time>2015-09-06T08:11:30Z</time>
      </trkpt>
      <trkpt lat="45.83846" lon="4.81211">
        <ele>372</ele>
        <time>2015-09-06T08:11:34Z</time>
      </trkpt>
      <trkpt lat="45.83845" lon="4.81213">
        <ele>372</ele>
        <time>2015-09-06T08:11:35Z</time>
      </trkpt>
      <trkpt lat="45.83845" lon="4.81216">
        <ele>371</ele>
        <time>2015-09-06T08:11:40Z</time>
      </trkpt>
      <trkpt lat="45.83844" lon="4.81217">
        <ele>371</ele>
        <time>2015-09-06T08:11:41Z</time>
      </trkpt>
      <trkpt lat="45.83843" lon="4.81221">
        <ele>370</ele>
        <time>2015-09-06T08:11:44Z</time>
      </trkpt>
      <trkpt lat="45.83848" lon="4.81223">
        <ele>370</ele>
        <time>2015-09-06T08:11:51Z</time>
      </trkpt>
      <trkpt lat="45.83849" lon="4.81222">
        <ele>371</ele>
        <time>2015-09-06T08:11:53Z</time>
      </trkpt>
      <trkpt lat="45.83849" lon="4.81222">
        <ele>371</ele>
        <time>2015-09-06T08:11:55Z</time>
      </trkpt>
      <trkpt lat="45.83849" lon="4.8122">
        <ele>371</ele>
        <time>2015-09-06T08:11:59Z</time>
      </trkpt>
      <trkpt lat="45.83857" lon="4.81227">
        <ele>372</ele>
        <time>2015-09-06T08:12:12Z</time>
      </trkpt>
      <trkpt lat="45.83862" lon="4.81233">
        <ele>372</ele>
        <time>2015-09-06T08:12:19Z</time>
      </trkpt>
      <trkpt lat="45.8386" lon="4.81241">
        <ele>371</ele>
        <time>2015-09-06T08:12:23Z</time>
      </trkpt>
      <trkpt lat="45.83861" lon="4.81249">
        <ele>370</ele>
        <time>2015-09-06T08:12:29Z</time>
      </trkpt>
      <trkpt lat="45.83865" lon="4.81248">
        <ele>372</ele>
        <time>2015-09-06T08:12:31Z</time>
      </trkpt>
      <trkpt lat="45.83868" lon="4.81251">
        <ele>361</ele>
        <time>2015-09-06T08:12:34Z</time>
      </trkpt>
      <trkpt lat="45.83871" lon="4.81252">
        <ele>362</ele>
        <time>2015-09-06T08:12:37Z</time>
      </trkpt>
      <trkpt lat="45.83875" lon="4.8125">
        <ele>376</ele>
        <time>2015-09-06T08:12:41Z</time>
      </trkpt>
      <trkpt lat="45.83878" lon="4.81246">
        <ele>378</ele>
        <time>2015-09-06T08:12:46Z</time>
      </trkpt>
      <trkpt lat="45.83885" lon="4.81247">
        <ele>380</ele>
        <time>2015-09-06T08:12:55Z</time>
      </trkpt>
      <trkpt lat="45.83887" lon="4.81245">
        <ele>381</ele>
        <time>2015-09-06T08:12:56Z</time>
      </trkpt>
      <trkpt lat="45.83877" lon="4.81239">
        <ele>377</ele>
        <time>2015-09-06T08:13:29Z</time>
      </trkpt>
      <trkpt lat="45.83872" lon="4.81241">
        <ele>375</ele>
        <time>2015-09-06T08:13:34Z</time>
      </trkpt>
      <trkpt lat="45.83872" lon="4.81241">
        <ele>375</ele>
        <time>2015-09-06T08:13:35Z</time>
      </trkpt>
      <trkpt lat="45.83866" lon="4.81247">
        <ele>372</ele>
        <time>2015-09-06T08:13:47Z</time>
      </trkpt>
      <trkpt lat="45.83864" lon="4.81246">
        <ele>372</ele>
        <time>2015-09-06T08:13:48Z</time>
      </trkpt>
      <trkpt lat="45.83861" lon="4.81243">
        <ele>371</ele>
        <time>2015-09-06T08:13:52Z</time>
      </trkpt>
      <trkpt lat="45.8386" lon="4.81243">
        <ele>370</ele>
        <time>2015-09-06T08:13:53Z</time>
      </trkpt>
      <trkpt lat="45.83855" lon="4.81243">
        <ele>368</ele>
        <time>2015-09-06T08:13:59Z</time>
      </trkpt>
      <trkpt lat="45.83858" lon="4.81239">
        <ele>370</ele>
        <time>2015-09-06T08:14:03Z</time>
      </trkpt>
      <trkpt lat="45.83863" lon="4.8124">
        <ele>372</ele>
        <time>2015-09-06T08:14:06Z</time>
      </trkpt>
      <trkpt lat="45.83862" lon="4.81246">
        <ele>371</ele>
        <time>2015-09-06T08:14:10Z</time>
      </trkpt>
      <trkpt lat="45.83858" lon="4.81251">
        <ele>358</ele>
        <time>2015-09-06T08:14:14Z</time>
      </trkpt>
      <trkpt lat="45.83859" lon="4.81252">
        <ele>358</ele>
        <time>2015-09-06T08:14:15Z</time>
      </trkpt>
      <trkpt lat="45.83856" lon="4.81252">
        <ele>357</ele>
        <time>2015-09-06T08:14:17Z</time>
      </trkpt>
      <trkpt lat="45.83853" lon="4.8125">
        <ele>357</ele>
        <time>2015-09-06T08:14:20Z</time>
      </trkpt>
      <trkpt lat="45.83856" lon="4.81252">
        <ele>357</ele>
        <time>2015-09-06T08:14:26Z</time>
      </trkpt>
      <trkpt lat="45.83857" lon="4.81255">
        <ele>358</ele>
        <time>2015-09-06T08:14:30Z</time>
      </trkpt>
      <trkpt lat="45.83865" lon="4.81253">
        <ele>360</ele>
        <time>2015-09-06T08:14:35Z</time>
      </trkpt>
      <trkpt lat="45.83865" lon="4.81253">
        <ele>360</ele>
        <time>2015-09-06T08:14:39Z</time>
      </trkpt>
      <trkpt lat="45.83863" lon="4.81253">
        <ele>359</ele>
        <time>2015-09-06T08:14:40Z</time>
      </trkpt>
      <trkpt lat="45.83863" lon="4.81252">
        <ele>360</ele>
        <time>2015-09-06T08:14:46Z</time>
      </trkpt>
      <trkpt lat="45.83864" lon="4.81255">
        <ele>360</ele>
        <time>2015-09-06T08:14:52Z</time>
      </trkpt>
      <trkpt lat="45.83865" lon="4.81256">
        <ele>360</ele>
        <time>2015-09-06T08:14:54Z</time>
      </trkpt>
      <trkpt lat="45.83869" lon="4.81256">
        <ele>361</ele>
        <time>2015-09-06T08:14:58Z</time>
      </trkpt>
      <trkpt lat="45.8387" lon="4.81255">
        <ele>362</ele>
        <time>2015-09-06T08:15:02Z</time>
      </trkpt>
      <trkpt lat="45.83868" lon="4.81244">
        <ele>373</ele>
        <time>2015-09-06T08:15:12Z</time>
      </trkpt>
      <trkpt lat="45.83816" lon="4.81255">
        <ele>344</ele>
        <time>2015-09-06T08:15:30Z</time>
      </trkpt>
      <trkpt lat="45.8382" lon="4.81259">
        <ele>345</ele>
        <time>2015-09-06T08:15:31Z</time>
      </trkpt>
      <trkpt lat="45.83828" lon="4.81262">
        <ele>345</ele>
        <time>2015-09-06T08:15:33Z</time>
      </trkpt>
      <trkpt lat="45.83832" lon="4.81266">
        <ele>345</ele>
        <time>2015-09-06T08:15:37Z</time>
      </trkpt>
      <trkpt lat="45.83834" lon="4.81269">
        <ele>354</ele>
        <time>2015-09-06T08:15:39Z</time>
      </trkpt>
      <trkpt lat="45.83834" lon="4.8127">
        <ele>354</ele>
        <time>2015-09-06T08:15:40Z</time>
      </trkpt>
      <trkpt lat="45.8384" lon="4.8127">
        <ele>354</ele>
        <time>2015-09-06T08:15:45Z</time>
      </trkpt>
      <trkpt lat="45.83841" lon="4.81269">
        <ele>355</ele>
        <time>2015-09-06T08:15:46Z</time>
      </trkpt>
      <trkpt lat="45.83844" lon="4.81268">
        <ele>355</ele>
        <time>2015-09-06T08:15:49Z</time>
      </trkpt>
      <trkpt lat="45.83844" lon="4.81268">
        <ele>355</ele>
        <time>2015-09-06T08:15:50Z</time>
      </trkpt>
      <trkpt lat="45.8385" lon="4.81268">
        <ele>356</ele>
        <time>2015-09-06T08:15:57Z</time>
      </trkpt>
      <trkpt lat="45.83851" lon="4.81269">
        <ele>356</ele>
        <time>2015-09-06T08:15:58Z</time>
      </trkpt>
      <trkpt lat="45.83853" lon="4.81269">
        <ele>357</ele>
        <time>2015-09-06T08:16:00Z</time>
      </trkpt>
      <trkpt lat="45.83857" lon="4.81271">
        <ele>357</ele>
        <time>2015-09-06T08:16:03Z</time>
      </trkpt>
      <trkpt lat="45.83859" lon="4.8127">
        <ele>358</ele>
        <time>2015-09-06T08:16:04Z</time>
      </trkpt>
      <trkpt lat="45.83859" lon="4.8127">
        <ele>358</ele>
        <time>2015-09-06T08:16:05Z</time>
      </trkpt>
      <trkpt lat="45.8386" lon="4.81272">
        <ele>358</ele>
        <time>2015-09-06T08:16:08Z</time>
      </trkpt>
      <trkpt lat="45.8386" lon="4.81274">
        <ele>358</ele>
        <time>2015-09-06T08:16:09Z</time>
      </trkpt>
      <trkpt lat="45.8386" lon="4.81275">
        <ele>358</ele>
        <time>2015-09-06T08:16:10Z</time>
      </trkpt>
      <trkpt lat="45.83861" lon="4.81279">
        <ele>358</ele>
        <time>2015-09-06T08:16:13Z</time>
      </trkpt>
      <trkpt lat="45.83861" lon="4.8128">
        <ele>358</ele>
        <time>2015-09-06T08:16:14Z</time>
      </trkpt>
      <trkpt lat="45.83863" lon="4.81284">
        <ele>358</ele>
        <time>2015-09-06T08:16:19Z</time>
      </trkpt>
      <trkpt lat="45.83864" lon="4.81285">
        <ele>358</ele>
        <time>2015-09-06T08:16:20Z</time>
      </trkpt>
      <trkpt lat="45.83867" lon="4.81286">
        <ele>358</ele>
        <time>2015-09-06T08:16:22Z</time>
      </trkpt>
      <trkpt lat="45.83868" lon="4.81289">
        <ele>358</ele>
        <time>2015-09-06T08:16:25Z</time>
      </trkpt>
      <trkpt lat="45.83868" lon="4.81292">
        <ele>358</ele>
        <time>2015-09-06T08:16:27Z</time>
      </trkpt>
      <trkpt lat="45.8387" lon="4.81295">
        <ele>358</ele>
        <time>2015-09-06T08:16:31Z</time>
      </trkpt>
      <trkpt lat="45.83872" lon="4.81298">
        <ele>358</ele>
        <time>2015-09-06T08:16:35Z</time>
      </trkpt>
      <trkpt lat="45.83873" lon="4.813">
        <ele>358</ele>
        <time>2015-09-06T08:16:37Z</time>
      </trkpt>
      <trkpt lat="45.83876" lon="4.81303">
        <ele>358</ele>
        <time>2015-09-06T08:16:41Z</time>
      </trkpt>
      <trkpt lat="45.83878" lon="4.81304">
        <ele>358</ele>
        <time>2015-09-06T08:16:43Z</time>
      </trkpt>
      <trkpt lat="45.83879" lon="4.81303">
        <ele>358</ele>
        <time>2015-09-06T08:16:44Z</time>
      </trkpt>
      <trkpt lat="45.8388" lon="4.81304">
        <ele>359</ele>
        <time>2015-09-06T08:16:45Z</time>
      </trkpt>
      <trkpt lat="45.83884" lon="4.81306">
        <ele>359</ele>
        <time>2015-09-06T08:16:49Z</time>
      </trkpt>
      <trkpt lat="45.83886" lon="4.81304">
        <ele>360</ele>
        <time>2015-09-06T08:16:52Z</time>
      </trkpt>
      <trkpt lat="45.83885" lon="4.81304">
        <ele>360</ele>
        <time>2015-09-06T08:16:55Z</time>
      </trkpt>
      <trkpt lat="45.83885" lon="4.81305">
        <ele>359</ele>
        <time>2015-09-06T08:17:05Z</time>
      </trkpt>
      <trkpt lat="45.83883" lon="4.81307">
        <ele>359</ele>
        <time>2015-09-06T08:17:06Z</time>
      </trkpt>
      <trkpt lat="45.83879" lon="4.81308">
        <ele>358</ele>
        <time>2015-09-06T08:17:10Z</time>
      </trkpt>
      <trkpt lat="45.83879" lon="4.8131">
        <ele>358</ele>
        <time>2015-09-06T08:17:12Z</time>
      </trkpt>
      <trkpt lat="45.83881" lon="4.81315">
        <ele>358</ele>
        <time>2015-09-06T08:17:16Z</time>
      </trkpt>
      <trkpt lat="45.83881" lon="4.81316">
        <ele>357</ele>
        <time>2015-09-06T08:17:17Z</time>
      </trkpt>
      <trkpt lat="45.83882" lon="4.8132">
        <ele>357</ele>
        <time>2015-09-06T08:17:21Z</time>
      </trkpt>
      <trkpt lat="45.83886" lon="4.81325">
        <ele>358</ele>
        <time>2015-09-06T08:17:28Z</time>
      </trkpt>
      <trkpt lat="45.83887" lon="4.81325">
        <ele>358</ele>
        <time>2015-09-06T08:17:30Z</time>
      </trkpt>
      <trkpt lat="45.83889" lon="4.81339">
        <ele>343</ele>
        <time>2015-09-06T08:17:40Z</time>
      </trkpt>
      <trkpt lat="45.83889" lon="4.8134">
        <ele>343</ele>
        <time>2015-09-06T08:17:41Z</time>
      </trkpt>
      <trkpt lat="45.83894" lon="4.81344">
        <ele>344</ele>
        <time>2015-09-06T08:17:44Z</time>
      </trkpt>
      <trkpt lat="45.83896" lon="4.81343">
        <ele>345</ele>
        <time>2015-09-06T08:17:46Z</time>
      </trkpt>
      <trkpt lat="45.83898" lon="4.81344">
        <ele>346</ele>
        <time>2015-09-06T08:17:47Z</time>
      </trkpt>
      <trkpt lat="45.839" lon="4.81344">
        <ele>346</ele>
        <time>2015-09-06T08:17:49Z</time>
      </trkpt>
      <trkpt lat="45.839" lon="4.81345">
        <ele>346</ele>
        <time>2015-09-06T08:17:50Z</time>
      </trkpt>
      <trkpt lat="45.83902" lon="4.81345">
        <ele>347</ele>
        <time>2015-09-06T08:17:53Z</time>
      </trkpt>
      <trkpt lat="45.83906" lon="4.81353">
        <ele>345</ele>
        <time>2015-09-06T08:17:58Z</time>
      </trkpt>
      <trkpt lat="45.83907" lon="4.81354">
        <ele>345</ele>
        <time>2015-09-06T08:17:59Z</time>
      </trkpt>
      <trkpt lat="45.83909" lon="4.81357">
        <ele>344</ele>
        <time>2015-09-06T08:18:02Z</time>
      </trkpt>
      <trkpt lat="45.83911" lon="4.81356">
        <ele>345</ele>
        <time>2015-09-06T08:18:04Z</time>
      </trkpt>
      <trkpt lat="45.83914" lon="4.81357">
        <ele>345</ele>
        <time>2015-09-06T08:18:06Z</time>
      </trkpt>
      <trkpt lat="45.83914" lon="4.81357">
        <ele>345</ele>
        <time>2015-09-06T08:18:07Z</time>
      </trkpt>
      <trkpt lat="45.83915" lon="4.81362">
        <ele>343</ele>
        <time>2015-09-06T08:18:12Z</time>
      </trkpt>
      <trkpt lat="45.83913" lon="4.81367">
        <ele>341</ele>
        <time>2015-09-06T08:18:18Z</time>
      </trkpt>
      <trkpt lat="45.83914" lon="4.81369">
        <ele>340</ele>
        <time>2015-09-06T08:18:20Z</time>
      </trkpt>
      <trkpt lat="45.8392" lon="4.81368">
        <ele>357</ele>
        <time>2015-09-06T08:18:47Z</time>
      </trkpt>
      <trkpt lat="45.83925" lon="4.81369">
        <ele>357</ele>
        <time>2015-09-06T08:18:50Z</time>
      </trkpt>
      <trkpt lat="45.83926" lon="4.8137">
        <ele>357</ele>
        <time>2015-09-06T08:18:51Z</time>
      </trkpt>
      <trkpt lat="45.83928" lon="4.81371">
        <ele>357</ele>
        <time>2015-09-06T08:18:53Z</time>
      </trkpt>
      <trkpt lat="45.8393" lon="4.81372">
        <ele>356</ele>
        <time>2015-09-06T08:18:55Z</time>
      </trkpt>
      <trkpt lat="45.83935" lon="4.81378">
        <ele>356</ele>
        <time>2015-09-06T08:19:00Z</time>
      </trkpt>
      <trkpt lat="45.8394" lon="4.81382">
        <ele>355</ele>
        <time>2015-09-06T08:19:04Z</time>
      </trkpt>
      <trkpt lat="45.83942" lon="4.81383">
        <ele>355</ele>
        <time>2015-09-06T08:19:05Z</time>
      </trkpt>
      <trkpt lat="45.83944" lon="4.81383">
        <ele>356</ele>
        <time>2015-09-06T08:19:07Z</time>
      </trkpt>
      <trkpt lat="45.83951" lon="4.81383">
        <ele>357</ele>
        <time>2015-09-06T08:19:13Z</time>
      </trkpt>
      <trkpt lat="45.83957" lon="4.81387">
        <ele>357</ele>
        <time>2015-09-06T08:19:16Z</time>
      </trkpt>
      <trkpt lat="45.83959" lon="4.8139">
        <ele>357</ele>
        <time>2015-09-06T08:19:18Z</time>
      </trkpt>
      <trkpt lat="45.8396" lon="4.8139">
        <ele>357</ele>
        <time>2015-09-06T08:19:19Z</time>
      </trkpt>
      <trkpt lat="45.83961" lon="4.8139">
        <ele>357</ele>
        <time>2015-09-06T08:19:20Z</time>
      </trkpt>
      <trkpt lat="45.83963" lon="4.81391">
        <ele>357</ele>
        <time>2015-09-06T08:19:22Z</time>
      </trkpt>
      <trkpt lat="45.83965" lon="4.81392">
        <ele>357</ele>
        <time>2015-09-06T08:19:24Z</time>
      </trkpt>
      <trkpt lat="45.83971" lon="4.81393">
        <ele>358</ele>
        <time>2015-09-06T08:19:29Z</time>
      </trkpt>
      <trkpt lat="45.83974" lon="4.81393">
        <ele>358</ele>
        <time>2015-09-06T08:19:32Z</time>
      </trkpt>
      <trkpt lat="45.8398" lon="4.814">
        <ele>358</ele>
        <time>2015-09-06T08:19:39Z</time>
      </trkpt>
      <trkpt lat="45.83984" lon="4.81401">
        <ele>357</ele>
        <time>2015-09-06T08:19:42Z</time>
      </trkpt>
      <trkpt lat="45.83989" lon="4.814">
        <ele>358</ele>
        <time>2015-09-06T08:19:46Z</time>
      </trkpt>
      <trkpt lat="45.83992" lon="4.814">
        <ele>358</ele>
        <time>2015-09-06T08:19:52Z</time>
      </trkpt>
      <trkpt lat="45.84" lon="4.81393">
        <ele>373</ele>
        <time>2015-09-06T08:19:59Z</time>
      </trkpt>
      <trkpt lat="45.84016" lon="4.81388">
        <ele>378</ele>
        <time>2015-09-06T08:20:15Z</time>
      </trkpt>
      <trkpt lat="45.84017" lon="4.81384">
        <ele>380</ele>
        <time>2015-09-06T08:20:20Z</time>
      </trkpt>
      <trkpt lat="45.84018" lon="4.81383">
        <ele>380</ele>
        <time>2015-09-06T08:20:21Z</time>
      </trkpt>
      <trkpt lat="45.84029" lon="4.8138">
        <ele>383</ele>
        <time>2015-09-06T08:20:34Z</time>
      </trkpt>
      <trkpt lat="45.84035" lon="4.81379">
        <ele>384</ele>
        <time>2015-09-06T08:20:40Z</time>
      </trkpt>
      <trkpt lat="45.84037" lon="4.8138">
        <ele>384</ele>
        <time>2015-09-06T08:20:41Z</time>
      </trkpt>
      <trkpt lat="45.84045" lon="4.81385">
        <ele>384</ele>
        <time>2015-09-06T08:20:46Z</time>
      </trkpt>
      <trkpt lat="45.84053" lon="4.81388">
        <ele>384</ele>
        <time>2015-09-06T08:20:52Z</time>
      </trkpt>
      <trkpt lat="45.84058" lon="4.81387">
        <ele>385</ele>
        <time>2015-09-06T08:20:55Z</time>
      </trkpt>
      <trkpt lat="45.84059" lon="4.81387">
        <ele>385</ele>
        <time>2015-09-06T08:20:58Z</time>
      </trkpt>
      <trkpt lat="45.84065" lon="4.81389">
        <ele>385</ele>
        <time>2015-09-06T08:21:03Z</time>
      </trkpt>
      <trkpt lat="45.8407" lon="4.81395">
        <ele>384</ele>
        <time>2015-09-06T08:21:09Z</time>
      </trkpt>
      <trkpt lat="45.84059" lon="4.81396">
        <ele>384</ele>
        <time>2015-09-06T08:21:31Z</time>
      </trkpt>
      <trkpt lat="45.84056" lon="4.81393">
        <ele>384</ele>
        <time>2015-09-06T08:21:32Z</time>
      </trkpt>
      <trkpt lat="45.84052" lon="4.81387">
        <ele>384</ele>
        <time>2015-09-06T08:21:35Z</time>
      </trkpt>
      <trkpt lat="45.84052" lon="4.81393">
        <ele>383</ele>
        <time>2015-09-06T08:21:41Z</time>
      </trkpt>
      <trkpt lat="45.84051" lon="4.81394">
        <ele>383</ele>
        <time>2015-09-06T08:21:42Z</time>
      </trkpt>
      <trkpt lat="45.84054" lon="4.81402">
        <ele>382</ele>
        <time>2015-09-06T08:21:45Z</time>
      </trkpt>
      <trkpt lat="45.84057" lon="4.81407">
        <ele>382</ele>
        <time>2015-09-06T08:21:52Z</time>
      </trkpt>
      <trkpt lat="45.84059" lon="4.81412">
        <ele>382</ele>
        <time>2015-09-06T08:21:55Z</time>
      </trkpt>
      <trkpt lat="45.84055" lon="4.81422">
        <ele>360</ele>
        <time>2015-09-06T08:22:08Z</time>
      </trkpt>
      <trkpt lat="45.84057" lon="4.81426">
        <ele>359</ele>
        <time>2015-09-06T08:22:11Z</time>
      </trkpt>
      <trkpt lat="45.84058" lon="4.81433">
        <ele>358</ele>
        <time>2015-09-06T08:22:14Z</time>
      </trkpt>
      <trkpt lat="45.84058" lon="4.81436">
        <ele>358</ele>
        <time>2015-09-06T08:22:16Z</time>
      </trkpt>
      <trkpt lat="45.84056" lon="4.81437">
        <ele>357</ele>
        <time>2015-09-06T08:22:20Z</time>
      </trkpt>
      <trkpt lat="45.84053" lon="4.81434">
        <ele>357</ele>
        <time>2015-09-06T08:22:23Z</time>
      </trkpt>
      <trkpt lat="45.84051" lon="4.81434">
        <ele>356</ele>
        <time>2015-09-06T08:22:28Z</time>
      </trkpt>
      <trkpt lat="45.84053" lon="4.81444">
        <ele>355</ele>
        <time>2015-09-06T08:22:35Z</time>
      </trkpt>
      <trkpt lat="45.84057" lon="4.81445">
        <ele>355</ele>
        <time>2015-09-06T08:22:38Z</time>
      </trkpt>
      <trkpt lat="45.84059" lon="4.81448">
        <ele>355</ele>
        <time>2015-09-06T08:22:40Z</time>
      </trkpt>
      <trkpt lat="45.84062" lon="4.81452">
        <ele>354</ele>
        <time>2015-09-06T08:22:44Z</time>
      </trkpt>
      <trkpt lat="45.84065" lon="4.81453">
        <ele>355</ele>
        <time>2015-09-06T08:22:46Z</time>
      </trkpt>
      <trkpt lat="45.84067" lon="4.81457">
        <ele>354</ele>
        <time>2015-09-06T08:22:49Z</time>
      </trkpt>
      <trkpt lat="45.84069" lon="4.8146">
        <ele>353</ele>
        <time>2015-09-06T08:22:51Z</time>
      </trkpt>
      <trkpt lat="45.84071" lon="4.81464">
        <ele>353</ele>
        <time>2015-09-06T08:22:54Z</time>
      </trkpt>
      <trkpt lat="45.84071" lon="4.81466">
        <ele>352</ele>
        <time>2015-09-06T08:22:55Z</time>
      </trkpt>
      <trkpt lat="45.84072" lon="4.81467">
        <ele>352</ele>
        <time>2015-09-06T08:22:56Z</time>
      </trkpt>
      <trkpt lat="45.84074" lon="4.81469">
        <ele>352</ele>
        <time>2015-09-06T08:22:58Z</time>
      </trkpt>
      <trkpt lat="45.84078" lon="4.81473">
        <ele>351</ele>
        <time>2015-09-06T08:23:01Z</time>
      </trkpt>
      <trkpt lat="45.8408" lon="4.81474">
        <ele>351</ele>
        <time>2015-09-06T08:23:03Z</time>
      </trkpt>
      <trkpt lat="45.84081" lon="4.81475">
        <ele>351</ele>
        <time>2015-09-06T08:23:04Z</time>
      </trkpt>
      <trkpt lat="45.84079" lon="4.81484">
        <ele>350</ele>
        <time>2015-09-06T08:23:10Z</time>
      </trkpt>
      <trkpt lat="45.84078" lon="4.81488">
        <ele>349</ele>
        <time>2015-09-06T08:23:13Z</time>
      </trkpt>
      <trkpt lat="45.84078" lon="4.8149">
        <ele>349</ele>
        <time>2015-09-06T08:23:15Z</time>
      </trkpt>
      <trkpt lat="45.84077" lon="4.81492">
        <ele>349</ele>
        <time>2015-09-06T08:23:17Z</time>
      </trkpt>
      <trkpt lat="45.84075" lon="4.81493">
        <ele>349</ele>
        <time>2015-09-06T08:23:20Z</time>
      </trkpt>
      <trkpt lat="45.84072" lon="4.81493">
        <ele>349</ele>
        <time>2015-09-06T08:23:23Z</time>
      </trkpt>
      <trkpt lat="45.84072" lon="4.81492">
        <ele>349</ele>
        <time>2015-09-06T08:23:24Z</time>
      </trkpt>
      <trkpt lat="45.8407" lon="4.81488">
        <ele>349</ele>
        <time>2015-09-06T08:23:31Z</time>
      </trkpt>
      <trkpt lat="45.84068" lon="4.81484">
        <ele>349</ele>
        <time>2015-09-06T08:23:35Z</time>
      </trkpt>
      <trkpt lat="45.84068" lon="4.81483">
        <ele>349</ele>
        <time>2015-09-06T08:23:40Z</time>
      </trkpt>
      <trkpt lat="45.8407" lon="4.81481">
        <ele>349</ele>
        <time>2015-09-06T08:23:53Z</time>
      </trkpt>
      <trkpt lat="45.84068" lon="4.81479">
        <ele>350</ele>
        <time>2015-09-06T08:23:55Z</time>
      </trkpt>
      <trkpt lat="45.84061" lon="4.81477">
        <ele>349</ele>
        <time>2015-09-06T08:23:58Z</time>
      </trkpt>
      <trkpt lat="45.84058" lon="4.81475">
        <ele>349</ele>
        <time>2015-09-06T08:24:00Z</time>
      </trkpt>
      <trkpt lat="45.84057" lon="4.81475">
        <ele>349</ele>
        <time>2015-09-06T08:24:03Z</time>
      </trkpt>
      <trkpt lat="45.8406" lon="4.8148">
        <ele>349</ele>
        <time>2015-09-06T08:24:08Z</time>
      </trkpt>
      <trkpt lat="45.84066" lon="4.81484">
        <ele>349</ele>
        <time>2015-09-06T08:24:12Z</time>
      </trkpt>
      <trkpt lat="45.84082" lon="4.81493">
        <ele>349</ele>
        <time>2015-09-06T08:24:20Z</time>
      </trkpt>
      <trkpt lat="45.84082" lon="4.8149">
        <ele>349</ele>
        <time>2015-09-06T08:24:21Z</time>
      </trkpt>
      <trkpt lat="45.8408" lon="4.81485">
        <ele>350</ele>
        <time>2015-09-06T08:24:23Z</time>
      </trkpt>
      <trkpt lat="45.84077" lon="4.81482">
        <ele>350</ele>
        <time>2015-09-06T08:24:26Z</time>
      </trkpt>
      <trkpt lat="45.84078" lon="4.81489">
        <ele>349</ele>
        <time>2015-09-06T08:24:52Z</time>
      </trkpt>
      <trkpt lat="45.84071" lon="4.81497">
        <ele>349</ele>
        <time>2015-09-06T08:25:04Z</time>
      </trkpt>
      <trkpt lat="45.84076" lon="4.81493">
        <ele>349</ele>
        <time>2015-09-06T08:25:08Z</time>
      </trkpt>
      <trkpt lat="45.84079" lon="4.8149">
        <ele>349</ele>
        <time>2015-09-06T08:25:11Z</time>
      </trkpt>
      <trkpt lat="45.84083" lon="4.81485">
        <ele>350</ele>
        <time>2015-09-06T08:25:15Z</time>
      </trkpt>
      <trkpt lat="45.84082" lon="4.81482">
        <ele>350</ele>
        <time>2015-09-06T08:25:17Z</time>
      </trkpt>
      <trkpt lat="45.84082" lon="4.81477">
        <ele>351</ele>
        <time>2015-09-06T08:25:21Z</time>
      </trkpt>
      <trkpt lat="45.84082" lon="4.81476">
        <ele>351</ele>
        <time>2015-09-06T08:25:22Z</time>
      </trkpt>
      <trkpt lat="45.84083" lon="4.81472">
        <ele>352</ele>
        <time>2015-09-06T08:25:26Z</time>
      </trkpt>
      <trkpt lat="45.84081" lon="4.81469">
        <ele>352</ele>
        <time>2015-09-06T08:25:33Z</time>
      </trkpt>
      <trkpt lat="45.84076" lon="4.81469">
        <ele>352</ele>
        <time>2015-09-06T08:25:39Z</time>
      </trkpt>
      <trkpt lat="45.84076" lon="4.81469">
        <ele>352</ele>
        <time>2015-09-06T08:25:40Z</time>
      </trkpt>
      <trkpt lat="45.84073" lon="4.81468">
        <ele>352</ele>
        <time>2015-09-06T08:25:46Z</time>
      </trkpt>
      <trkpt lat="45.8407" lon="4.81459">
        <ele>354</ele>
        <time>2015-09-06T08:25:53Z</time>
      </trkpt>
      <trkpt lat="45.84067" lon="4.81449">
        <ele>356</ele>
        <time>2015-09-06T08:26:00Z</time>
      </trkpt>
      <trkpt lat="45.84063" lon="4.81441">
        <ele>358</ele>
        <time>2015-09-06T08:26:07Z</time>
      </trkpt>
      <trkpt lat="45.84062" lon="4.81441">
        <ele>358</ele>
        <time>2015-09-06T08:26:08Z</time>
      </trkpt>
      <trkpt lat="45.8406" lon="4.81438">
        <ele>358</ele>
        <time>2015-09-06T08:26:12Z</time>
      </trkpt>
      <trkpt lat="45.84058" lon="4.81436">
        <ele>358</ele>
        <time>2015-09-06T08:26:20Z</time>
      </trkpt>
      <trkpt lat="45.84062" lon="4.81433">
        <ele>360</ele>
        <time>2015-09-06T08:26:23Z</time>
      </trkpt>
      <trkpt lat="45.84063" lon="4.81434">
        <ele>360</ele>
        <time>2015-09-06T08:26:24Z</time>
      </trkpt>
      <trkpt lat="45.84066" lon="4.81436">
        <ele>360</ele>
        <time>2015-09-06T08:26:30Z</time>
      </trkpt>
      <trkpt lat="45.84068" lon="4.81436">
        <ele>361</ele>
        <time>2015-09-06T08:26:32Z</time>
      </trkpt>
      <trkpt lat="45.84071" lon="4.81437">
        <ele>361</ele>
        <time>2015-09-06T08:26:37Z</time>
      </trkpt>
      <trkpt lat="45.84069" lon="4.81422">
        <ele>366</ele>
        <time>2015-09-06T08:27:04Z</time>
      </trkpt>
      <trkpt lat="45.84068" lon="4.81422">
        <ele>366</ele>
        <time>2015-09-06T08:27:05Z</time>
      </trkpt>
      <trkpt lat="45.8407" lon="4.81409">
        <ele>382</ele>
        <time>2015-09-06T08:27:22Z</time>
      </trkpt>
      <trkpt lat="45.84069" lon="4.81405">
        <ele>383</ele>
        <time>2015-09-06T08:27:26Z</time>
      </trkpt>
      <trkpt lat="45.84069" lon="4.814">
        <ele>383</ele>
        <time>2015-09-06T08:27:31Z</time>
      </trkpt>
      <trkpt lat="45.84067" lon="4.81389">
        <ele>385</ele>
        <time>2015-09-06T08:27:48Z</time>
      </trkpt>
      <trkpt lat="45.84072" lon="4.81389">
        <ele>386</ele>
        <time>2015-09-06T08:27:54Z</time>
      </trkpt>
      <trkpt lat="45.84075" lon="4.81393">
        <ele>385</ele>
        <time>2015-09-06T08:27:56Z</time>
      </trkpt>
      <trkpt lat="45.84082" lon="4.814">
        <ele>384</ele>
        <time>2015-09-06T08:28:01Z</time>
      </trkpt>
      <trkpt lat="45.84083" lon="4.81401">
        <ele>383</ele>
        <time>2015-09-06T08:28:02Z</time>
      </trkpt>
      <trkpt lat="45.84089" lon="4.81405">
        <ele>390</ele>
        <time>2015-09-06T08:28:07Z</time>
      </trkpt>
      <trkpt lat="45.84091" lon="4.81407">
        <ele>390</ele>
        <time>2015-09-06T08:28:09Z</time>
      </trkpt>
      <trkpt lat="45.84098" lon="4.81411">
        <ele>392</ele>
        <time>2015-09-06T08:28:15Z</time>
      </trkpt>
      <trkpt lat="45.84101" lon="4.81412">
        <ele>393</ele>
        <time>2015-09-06T08:28:17Z</time>
      </trkpt>
      <trkpt lat="45.84107" lon="4.81416">
        <ele>395</ele>
        <time>2015-09-06T08:28:21Z</time>
      </trkpt>
      <trkpt lat="45.84109" lon="4.81417">
        <ele>382</ele>
        <time>2015-09-06T08:28:22Z</time>
      </trkpt>
      <trkpt lat="45.84114" lon="4.81422">
        <ele>383</ele>
        <time>2015-09-06T08:28:27Z</time>
      </trkpt>
      <trkpt lat="45.84116" lon="4.81426">
        <ele>383</ele>
        <time>2015-09-06T08:28:29Z</time>
      </trkpt>
      <trkpt lat="45.84121" lon="4.81429">
        <ele>383</ele>
        <time>2015-09-06T08:28:35Z</time>
      </trkpt>
      <trkpt lat="45.84124" lon="4.81433">
        <ele>384</ele>
        <time>2015-09-06T08:28:39Z</time>
      </trkpt>
      <trkpt lat="45.84125" lon="4.81434">
        <ele>384</ele>
        <time>2015-09-06T08:28:40Z</time>
      </trkpt>
      <trkpt lat="45.8413" lon="4.81437">
        <ele>385</ele>
        <time>2015-09-06T08:28:44Z</time>
      </trkpt>
      <trkpt lat="45.84134" lon="4.81437">
        <ele>386</ele>
        <time>2015-09-06T08:28:47Z</time>
      </trkpt>
      <trkpt lat="45.84136" lon="4.81442">
        <ele>385</ele>
        <time>2015-09-06T08:28:51Z</time>
      </trkpt>
      <trkpt lat="45.84138" lon="4.81445">
        <ele>385</ele>
        <time>2015-09-06T08:28:53Z</time>
      </trkpt>
      <trkpt lat="45.84142" lon="4.81449">
        <ele>385</ele>
        <time>2015-09-06T08:28:58Z</time>
      </trkpt>
      <trkpt lat="45.84144" lon="4.8145">
        <ele>386</ele>
        <time>2015-09-06T08:28:59Z</time>
      </trkpt>
      <trkpt lat="45.84145" lon="4.81451">
        <ele>386</ele>
        <time>2015-09-06T08:29:00Z</time>
      </trkpt>
      <trkpt lat="45.84147" lon="4.81454">
        <ele>385</ele>
        <time>2015-09-06T08:29:02Z</time>
      </trkpt>
      <trkpt lat="45.84148" lon="4.81455">
        <ele>385</ele>
        <time>2015-09-06T08:29:03Z</time>
      </trkpt>
      <trkpt lat="45.84151" lon="4.81456">
        <ele>386</ele>
        <time>2015-09-06T08:29:06Z</time>
      </trkpt>
      <trkpt lat="45.84154" lon="4.81458">
        <ele>386</ele>
        <time>2015-09-06T08:29:08Z</time>
      </trkpt>
      <trkpt lat="45.8416" lon="4.81461">
        <ele>386</ele>
        <time>2015-09-06T08:29:16Z</time>
      </trkpt>
      <trkpt lat="45.84162" lon="4.81462">
        <ele>386</ele>
        <time>2015-09-06T08:29:22Z</time>
      </trkpt>
      <trkpt lat="45.84166" lon="4.81464">
        <ele>386</ele>
        <time>2015-09-06T08:29:26Z</time>
      </trkpt>
      <trkpt lat="45.84167" lon="4.81464">
        <ele>399</ele>
        <time>2015-09-06T08:29:28Z</time>
      </trkpt>
      <trkpt lat="45.8417" lon="4.81465">
        <ele>399</ele>
        <time>2015-09-06T08:29:31Z</time>
      </trkpt>
      <trkpt lat="45.84172" lon="4.81465">
        <ele>399</ele>
        <time>2015-09-06T08:29:34Z</time>
      </trkpt>
      <trkpt lat="45.84173" lon="4.81464">
        <ele>399</ele>
        <time>2015-09-06T08:29:35Z</time>
      </trkpt>
      <trkpt lat="45.84176" lon="4.81462">
        <ele>400</ele>
        <time>2015-09-06T08:29:39Z</time>
      </trkpt>
      <trkpt lat="45.84178" lon="4.81462">
        <ele>400</ele>
        <time>2015-09-06T08:29:41Z</time>
      </trkpt>
      <trkpt lat="45.84179" lon="4.81463">
        <ele>400</ele>
        <time>2015-09-06T08:29:42Z</time>
      </trkpt>
      <trkpt lat="45.84184" lon="4.81463">
        <ele>400</ele>
        <time>2015-09-06T08:29:46Z</time>
      </trkpt>
      <trkpt lat="45.84189" lon="4.81462">
        <ele>400</ele>
        <time>2015-09-06T08:29:50Z</time>
      </trkpt>
      <trkpt lat="45.84192" lon="4.81463">
        <ele>400</ele>
        <time>2015-09-06T08:29:52Z</time>
      </trkpt>
      <trkpt lat="45.84198" lon="4.81465">
        <ele>401</ele>
        <time>2015-09-06T08:29:56Z</time>
      </trkpt>
      <trkpt lat="45.84201" lon="4.81466">
        <ele>401</ele>
        <time>2015-09-06T08:29:58Z</time>
      </trkpt>
      <trkpt lat="45.84202" lon="4.81466">
        <ele>401</ele>
        <time>2015-09-06T08:29:59Z</time>
      </trkpt>
      <trkpt lat="45.84205" lon="4.81465">
        <ele>401</ele>
        <time>2015-09-06T08:30:01Z</time>
      </trkpt>
      <trkpt lat="45.84213" lon="4.8146">
        <ele>402</ele>
        <time>2015-09-06T08:30:05Z</time>
      </trkpt>
      <trkpt lat="45.84216" lon="4.81459">
        <ele>402</ele>
        <time>2015-09-06T08:30:07Z</time>
      </trkpt>
      <trkpt lat="45.84216" lon="4.81465">
        <ele>402</ele>
        <time>2015-09-06T08:30:10Z</time>
      </trkpt>
      <trkpt lat="45.84217" lon="4.81468">
        <ele>402</ele>
        <time>2015-09-06T08:30:11Z</time>
      </trkpt>
      <trkpt lat="45.84215" lon="4.81484">
        <ele>401</ele>
        <time>2015-09-06T08:30:15Z</time>
      </trkpt>
      <trkpt lat="45.84214" lon="4.81489">
        <ele>400</ele>
        <time>2015-09-06T08:30:16Z</time>
      </trkpt>
      <trkpt lat="45.84212" lon="4.81504">
        <ele>393</ele>
        <time>2015-09-06T08:30:20Z</time>
      </trkpt>
      <trkpt lat="45.84212" lon="4.81506">
        <ele>393</ele>
        <time>2015-09-06T08:30:21Z</time>
      </trkpt>
      <trkpt lat="45.84214" lon="4.81512">
        <ele>393</ele>
        <time>2015-09-06T08:30:23Z</time>
      </trkpt>
      <trkpt lat="45.84217" lon="4.81518">
        <ele>393</ele>
        <time>2015-09-06T08:30:25Z</time>
      </trkpt>
      <trkpt lat="45.84219" lon="4.81528">
        <ele>393</ele>
        <time>2015-09-06T08:30:28Z</time>
      </trkpt>
      <trkpt lat="45.8422" lon="4.81533">
        <ele>392</ele>
        <time>2015-09-06T08:30:30Z</time>
      </trkpt>
      <trkpt lat="45.84221" lon="4.81534">
        <ele>392</ele>
        <time>2015-09-06T08:30:31Z</time>
      </trkpt>
      <trkpt lat="45.84222" lon="4.81537">
        <ele>392</ele>
        <time>2015-09-06T08:30:33Z</time>
      </trkpt>
      <trkpt lat="45.84223" lon="4.8154">
        <ele>392</ele>
        <time>2015-09-06T08:30:35Z</time>
      </trkpt>
      <trkpt lat="45.84224" lon="4.81546">
        <ele>392</ele>
        <time>2015-09-06T08:30:39Z</time>
      </trkpt>
      <trkpt lat="45.8422" lon="4.81548">
        <ele>391</ele>
        <time>2015-09-06T08:30:44Z</time>
      </trkpt>
      <trkpt lat="45.8422" lon="4.81552">
        <ele>391</ele>
        <time>2015-09-06T08:30:52Z</time>
      </trkpt>
      <trkpt lat="45.84222" lon="4.81553">
        <ele>391</ele>
        <time>2015-09-06T08:31:01Z</time>
      </trkpt>
      <trkpt lat="45.84229" lon="4.81552">
        <ele>392</ele>
        <time>2015-09-06T08:31:06Z</time>
      </trkpt>
      <trkpt lat="45.8423" lon="4.81553">
        <ele>392</ele>
        <time>2015-09-06T08:31:07Z</time>
      </trkpt>
      <trkpt lat="45.84233" lon="4.81553">
        <ele>392</ele>
        <time>2015-09-06T08:31:09Z</time>
      </trkpt>
      <trkpt lat="45.84242" lon="4.81554">
        <ele>392</ele>
        <time>2015-09-06T08:31:15Z</time>
      </trkpt>
      <trkpt lat="45.84251" lon="4.81555">
        <ele>389</ele>
        <time>2015-09-06T08:31:20Z</time>
      </trkpt>
      <trkpt lat="45.84255" lon="4.81554">
        <ele>389</ele>
        <time>2015-09-06T08:31:23Z</time>
      </trkpt>
      <trkpt lat="45.84256" lon="4.81555">
        <ele>389</ele>
        <time>2015-09-06T08:31:24Z</time>
      </trkpt>
      <trkpt lat="45.8426" lon="4.81555">
        <ele>389</ele>
        <time>2015-09-06T08:31:26Z</time>
      </trkpt>
      <trkpt lat="45.84271" lon="4.81553">
        <ele>388</ele>
        <time>2015-09-06T08:31:32Z</time>
      </trkpt>
      <trkpt lat="45.84275" lon="4.81554">
        <ele>387</ele>
        <time>2015-09-06T08:31:34Z</time>
      </trkpt>
      <trkpt lat="45.84277" lon="4.81554">
        <ele>387</ele>
        <time>2015-09-06T08:31:35Z</time>
      </trkpt>
      <trkpt lat="45.84279" lon="4.81553">
        <ele>387</ele>
        <time>2015-09-06T08:31:36Z</time>
      </trkpt>
      <trkpt lat="45.84293" lon="4.81543">
        <ele>386</ele>
        <time>2015-09-06T08:31:43Z</time>
      </trkpt>
      <trkpt lat="45.84298" lon="4.81538">
        <ele>385</ele>
        <time>2015-09-06T08:31:46Z</time>
      </trkpt>
      <trkpt lat="45.84301" lon="4.81534">
        <ele>385</ele>
        <time>2015-09-06T08:31:48Z</time>
      </trkpt>
      <trkpt lat="45.84305" lon="4.81535">
        <ele>385</ele>
        <time>2015-09-06T08:31:52Z</time>
      </trkpt>
      <trkpt lat="45.84306" lon="4.81533">
        <ele>385</ele>
        <time>2015-09-06T08:31:55Z</time>
      </trkpt>
      <trkpt lat="45.84309" lon="4.81531">
        <ele>385</ele>
        <time>2015-09-06T08:31:59Z</time>
      </trkpt>
      <trkpt lat="45.84312" lon="4.81528">
        <ele>385</ele>
        <time>2015-09-06T08:32:01Z</time>
      </trkpt>
      <trkpt lat="45.84313" lon="4.81527">
        <ele>385</ele>
        <time>2015-09-06T08:32:02Z</time>
      </trkpt>
      <trkpt lat="45.84317" lon="4.81518">
        <ele>385</ele>
        <time>2015-09-06T08:32:07Z</time>
      </trkpt>
      <trkpt lat="45.84319" lon="4.81515">
        <ele>385</ele>
        <time>2015-09-06T08:32:08Z</time>
      </trkpt>
      <trkpt lat="45.84324" lon="4.8151">
        <ele>384</ele>
        <time>2015-09-06T08:32:13Z</time>
      </trkpt>
      <trkpt lat="45.84326" lon="4.81508">
        <ele>384</ele>
        <time>2015-09-06T08:32:16Z</time>
      </trkpt>
      <trkpt lat="45.84328" lon="4.81504">
        <ele>384</ele>
        <time>2015-09-06T08:32:18Z</time>
      </trkpt>
      <trkpt lat="45.84329" lon="4.81502">
        <ele>383</ele>
        <time>2015-09-06T08:32:19Z</time>
      </trkpt>
      <trkpt lat="45.84337" lon="4.81497">
        <ele>382</ele>
        <time>2015-09-06T08:32:25Z</time>
      </trkpt>
      <trkpt lat="45.84343" lon="4.81493">
        <ele>381</ele>
        <time>2015-09-06T08:32:28Z</time>
      </trkpt>
      <trkpt lat="45.84349" lon="4.8149">
        <ele>380</ele>
        <time>2015-09-06T08:32:30Z</time>
      </trkpt>
      <trkpt lat="45.84365" lon="4.81483">
        <ele>378</ele>
        <time>2015-09-06T08:32:35Z</time>
      </trkpt>
      <trkpt lat="45.84368" lon="4.81482">
        <ele>378</ele>
        <time>2015-09-06T08:32:37Z</time>
      </trkpt>
      <trkpt lat="45.84386" lon="4.81483">
        <ele>374</ele>
        <time>2015-09-06T08:32:48Z</time>
      </trkpt>
      <trkpt lat="45.84387" lon="4.81483">
        <ele>373</ele>
        <time>2015-09-06T08:32:49Z</time>
      </trkpt>
      <trkpt lat="45.84392" lon="4.81482">
        <ele>372</ele>
        <time>2015-09-06T08:32:53Z</time>
      </trkpt>
      <trkpt lat="45.84394" lon="4.81479">
        <ele>372</ele>
        <time>2015-09-06T08:32:57Z</time>
      </trkpt>
      <trkpt lat="45.84394" lon="4.81476">
        <ele>373</ele>
        <time>2015-09-06T08:33:03Z</time>
      </trkpt>
      <trkpt lat="45.8439" lon="4.81467">
        <ele>375</ele>
        <time>2015-09-06T08:33:11Z</time>
      </trkpt>
      <trkpt lat="45.8439" lon="4.81465">
        <ele>376</ele>
        <time>2015-09-06T08:33:12Z</time>
      </trkpt>
      <trkpt lat="45.84391" lon="4.8146">
        <ele>376</ele>
        <time>2015-09-06T08:33:16Z</time>
      </trkpt>
      <trkpt lat="45.84392" lon="4.81453">
        <ele>377</ele>
        <time>2015-09-06T08:33:38Z</time>
      </trkpt>
      <trkpt lat="45.84396" lon="4.81449">
        <ele>377</ele>
        <time>2015-09-06T08:33:42Z</time>
      </trkpt>
      <trkpt lat="45.84396" lon="4.81446">
        <ele>377</ele>
        <time>2015-09-06T08:33:44Z</time>
      </trkpt>
      <trkpt lat="45.84398" lon="4.81444">
        <ele>377</ele>
        <time>2015-09-06T08:33:46Z</time>
      </trkpt>
      <trkpt lat="45.84408" lon="4.81443">
        <ele>376</ele>
        <time>2015-09-06T08:33:50Z</time>
      </trkpt>
      <trkpt lat="45.84417" lon="4.81442">
        <ele>363</ele>
        <time>2015-09-06T08:33:54Z</time>
      </trkpt>
      <trkpt lat="45.84419" lon="4.81442">
        <ele>363</ele>
        <time>2015-09-06T08:33:55Z</time>
      </trkpt>
      <trkpt lat="45.84423" lon="4.81441">
        <ele>362</ele>
        <time>2015-09-06T08:33:58Z</time>
      </trkpt>
      <trkpt lat="45.84424" lon="4.81441">
        <ele>363</ele>
        <time>2015-09-06T08:33:59Z</time>
      </trkpt>
      <trkpt lat="45.84425" lon="4.8144">
        <ele>363</ele>
        <time>2015-09-06T08:34:00Z</time>
      </trkpt>
      <trkpt lat="45.84427" lon="4.8144">
        <ele>362</ele>
        <time>2015-09-06T08:34:01Z</time>
      </trkpt>
      <trkpt lat="45.84431" lon="4.81435">
        <ele>363</ele>
        <time>2015-09-06T08:34:05Z</time>
      </trkpt>
      <trkpt lat="45.84434" lon="4.81433">
        <ele>363</ele>
        <time>2015-09-06T08:34:07Z</time>
      </trkpt>
      <trkpt lat="45.84435" lon="4.81433">
        <ele>363</ele>
        <time>2015-09-06T08:34:08Z</time>
      </trkpt>
      <trkpt lat="45.84438" lon="4.81432">
        <ele>362</ele>
        <time>2015-09-06T08:34:09Z</time>
      </trkpt>
      <trkpt lat="45.84442" lon="4.81428">
        <ele>362</ele>
        <time>2015-09-06T08:34:12Z</time>
      </trkpt>
      <trkpt lat="45.84445" lon="4.81426">
        <ele>361</ele>
        <time>2015-09-06T08:34:14Z</time>
      </trkpt>
      <trkpt lat="45.84452" lon="4.81421">
        <ele>360</ele>
        <time>2015-09-06T08:34:18Z</time>
      </trkpt>
      <trkpt lat="45.84454" lon="4.8142">
        <ele>359</ele>
        <time>2015-09-06T08:34:19Z</time>
      </trkpt>
      <trkpt lat="45.84456" lon="4.81419">
        <ele>359</ele>
        <time>2015-09-06T08:34:20Z</time>
      </trkpt>
      <trkpt lat="45.84461" lon="4.81415">
        <ele>373</ele>
        <time>2015-09-06T08:34:23Z</time>
      </trkpt>
      <trkpt lat="45.84462" lon="4.81414">
        <ele>373</ele>
        <time>2015-09-06T08:34:24Z</time>
      </trkpt>
      <trkpt lat="45.84469" lon="4.81411">
        <ele>371</ele>
        <time>2015-09-06T08:34:28Z</time>
      </trkpt>
      <trkpt lat="45.84473" lon="4.81412">
        <ele>370</ele>
        <time>2015-09-06T08:34:32Z</time>
      </trkpt>
      <trkpt lat="45.84473" lon="4.81414">
        <ele>370</ele>
        <time>2015-09-06T08:34:33Z</time>
      </trkpt>
      <trkpt lat="45.84474" lon="4.81422">
        <ele>356</ele>
        <time>2015-09-06T08:34:37Z</time>
      </trkpt>
      <trkpt lat="45.84473" lon="4.81422">
        <ele>356</ele>
        <time>2015-09-06T08:34:38Z</time>
      </trkpt>
      <trkpt lat="45.84473" lon="4.81428">
        <ele>356</ele>
        <time>2015-09-06T08:34:43Z</time>
      </trkpt>
      <trkpt lat="45.84472" lon="4.81434">
        <ele>356</ele>
        <time>2015-09-06T08:34:46Z</time>
      </trkpt>
      <trkpt lat="45.84473" lon="4.81437">
        <ele>355</ele>
        <time>2015-09-06T08:34:47Z</time>
      </trkpt>
      <trkpt lat="45.84474" lon="4.81439">
        <ele>355</ele>
        <time>2015-09-06T08:34:48Z</time>
      </trkpt>
      <trkpt lat="45.84477" lon="4.81449">
        <ele>354</ele>
        <time>2015-09-06T08:34:53Z</time>
      </trkpt>
      <trkpt lat="45.84481" lon="4.81458">
        <ele>352</ele>
        <time>2015-09-06T08:34:58Z</time>
      </trkpt>
      <trkpt lat="45.84482" lon="4.81463">
        <ele>351</ele>
        <time>2015-09-06T08:35:00Z</time>
      </trkpt>
      <trkpt lat="45.84483" lon="4.81472">
        <ele>349</ele>
        <time>2015-09-06T08:35:03Z</time>
      </trkpt>
      <trkpt lat="45.84483" lon="4.81478">
        <ele>347</ele>
        <time>2015-09-06T08:35:05Z</time>
      </trkpt>
      <trkpt lat="45.84481" lon="4.81488">
        <ele>345</ele>
        <time>2015-09-06T08:35:09Z</time>
      </trkpt>
      <trkpt lat="45.8448" lon="4.81492">
        <ele>345</ele>
        <time>2015-09-06T08:35:10Z</time>
      </trkpt>
      <trkpt lat="45.8448" lon="4.81505">
        <ele>334</ele>
        <time>2015-09-06T08:35:14Z</time>
      </trkpt>
      <trkpt lat="45.8448" lon="4.81507">
        <ele>334</ele>
        <time>2015-09-06T08:35:15Z</time>
      </trkpt>
      <trkpt lat="45.84481" lon="4.81519">
        <ele>333</ele>
        <time>2015-09-06T08:35:19Z</time>
      </trkpt>
      <trkpt lat="45.84481" lon="4.81522">
        <ele>333</ele>
        <time>2015-09-06T08:35:20Z</time>
      </trkpt>
      <trkpt lat="45.84483" lon="4.81533">
        <ele>332</ele>
        <time>2015-09-06T08:35:25Z</time>
      </trkpt>
      <trkpt lat="45.84482" lon="4.81545">
        <ele>330</ele>
        <time>2015-09-06T08:35:30Z</time>
      </trkpt>
      <trkpt lat="45.84484" lon="4.81557">
        <ele>327</ele>
        <time>2015-09-06T08:35:36Z</time>
      </trkpt>
      <trkpt lat="45.84485" lon="4.81558">
        <ele>327</ele>
        <time>2015-09-06T08:35:38Z</time>
      </trkpt>
      <trkpt lat="45.84487" lon="4.81557">
        <ele>327</ele>
        <time>2015-09-06T08:35:41Z</time>
      </trkpt>
      <trkpt lat="45.84489" lon="4.81558">
        <ele>326</ele>
        <time>2015-09-06T08:35:42Z</time>
      </trkpt>
      <trkpt lat="45.84491" lon="4.81559">
        <ele>326</ele>
        <time>2015-09-06T08:35:44Z</time>
      </trkpt>
      <trkpt lat="45.8449" lon="4.81563">
        <ele>325</ele>
        <time>2015-09-06T08:35:47Z</time>
      </trkpt>
      <trkpt lat="45.84489" lon="4.81564">
        <ele>325</ele>
        <time>2015-09-06T08:35:48Z</time>
      </trkpt>
      <trkpt lat="45.84488" lon="4.81566">
        <ele>324</ele>
        <time>2015-09-06T08:35:50Z</time>
      </trkpt>
      <trkpt lat="45.84488" lon="4.8157">
        <ele>323</ele>
        <time>2015-09-06T08:35:52Z</time>
      </trkpt>
      <trkpt lat="45.84487" lon="4.81578">
        <ele>321</ele>
        <time>2015-09-06T08:35:56Z</time>
      </trkpt>
      <trkpt lat="45.84485" lon="4.81582">
        <ele>322</ele>
        <time>2015-09-06T08:36:00Z</time>
      </trkpt>
      <trkpt lat="45.84485" lon="4.81583">
        <ele>322</ele>
        <time>2015-09-06T08:36:01Z</time>
      </trkpt>
      <trkpt lat="45.84484" lon="4.81584">
        <ele>314</ele>
        <time>2015-09-06T08:36:02Z</time>
      </trkpt>
      <trkpt lat="45.84484" lon="4.81589">
        <ele>314</ele>
        <time>2015-09-06T08:36:05Z</time>
      </trkpt>
      <trkpt lat="45.84483" lon="4.81599">
        <ele>314</ele>
        <time>2015-09-06T08:36:09Z</time>
      </trkpt>
      <trkpt lat="45.84483" lon="4.81605">
        <ele>314</ele>
        <time>2015-09-06T08:36:12Z</time>
      </trkpt>
      <trkpt lat="45.84481" lon="4.81612">
        <ele>313</ele>
        <time>2015-09-06T08:36:15Z</time>
      </trkpt>
      <trkpt lat="45.84481" lon="4.81615">
        <ele>313</ele>
        <time>2015-09-06T08:36:16Z</time>
      </trkpt>
      <trkpt lat="45.84481" lon="4.81618">
        <ele>313</ele>
        <time>2015-09-06T08:36:17Z</time>
      </trkpt>
      <trkpt lat="45.84482" lon="4.8163">
        <ele>311</ele>
        <time>2015-09-06T08:36:21Z</time>
      </trkpt>
      <trkpt lat="45.84481" lon="4.81642">
        <ele>309</ele>
        <time>2015-09-06T08:36:26Z</time>
      </trkpt>
      <trkpt lat="45.84481" lon="4.81647">
        <ele>308</ele>
        <time>2015-09-06T08:36:28Z</time>
      </trkpt>
      <trkpt lat="45.84482" lon="4.81652">
        <ele>307</ele>
        <time>2015-09-06T08:36:30Z</time>
      </trkpt>
      <trkpt lat="45.84484" lon="4.81659">
        <ele>305</ele>
        <time>2015-09-06T08:36:33Z</time>
      </trkpt>
      <trkpt lat="45.84487" lon="4.81668">
        <ele>296</ele>
        <time>2015-09-06T08:36:36Z</time>
      </trkpt>
      <trkpt lat="45.84489" lon="4.81673">
        <ele>296</ele>
        <time>2015-09-06T08:36:38Z</time>
      </trkpt>
      <trkpt lat="45.84493" lon="4.81685">
        <ele>295</ele>
        <time>2015-09-06T08:36:42Z</time>
      </trkpt>
      <trkpt lat="45.84493" lon="4.81687">
        <ele>295</ele>
        <time>2015-09-06T08:36:43Z</time>
      </trkpt>
      <trkpt lat="45.84494" lon="4.81693">
        <ele>295</ele>
        <time>2015-09-06T08:36:45Z</time>
      </trkpt>
      <trkpt lat="45.84496" lon="4.81702">
        <ele>294</ele>
        <time>2015-09-06T08:36:48Z</time>
      </trkpt>
      <trkpt lat="45.84496" lon="4.81705">
        <ele>293</ele>
        <time>2015-09-06T08:36:49Z</time>
      </trkpt>
      <trkpt lat="45.84496" lon="4.81715">
        <ele>292</ele>
        <time>2015-09-06T08:36:52Z</time>
      </trkpt>
      <trkpt lat="45.84497" lon="4.81719">
        <ele>291</ele>
        <time>2015-09-06T08:36:53Z</time>
      </trkpt>
      <trkpt lat="45.84498" lon="4.81722">
        <ele>290</ele>
        <time>2015-09-06T08:36:54Z</time>
      </trkpt>
      <trkpt lat="45.84504" lon="4.8174">
        <ele>286</ele>
        <time>2015-09-06T08:36:59Z</time>
      </trkpt>
      <trkpt lat="45.84505" lon="4.81744">
        <ele>284</ele>
        <time>2015-09-06T08:37:00Z</time>
      </trkpt>
      <trkpt lat="45.84504" lon="4.81761">
        <ele>282</ele>
        <time>2015-09-06T08:37:04Z</time>
      </trkpt>
      <trkpt lat="45.84507" lon="4.8177">
        <ele>283</ele>
        <time>2015-09-06T08:37:06Z</time>
      </trkpt>
      <trkpt lat="45.8451" lon="4.81782">
        <ele>283</ele>
        <time>2015-09-06T08:37:09Z</time>
      </trkpt>
      <trkpt lat="45.84508" lon="4.81797">
        <ele>281</ele>
        <time>2015-09-06T08:37:13Z</time>
      </trkpt>
      <trkpt lat="45.84508" lon="4.818">
        <ele>281</ele>
        <time>2015-09-06T08:37:14Z</time>
      </trkpt>
      <trkpt lat="45.84507" lon="4.81818">
        <ele>276</ele>
        <time>2015-09-06T08:37:20Z</time>
      </trkpt>
      <trkpt lat="45.84507" lon="4.81826">
        <ele>274</ele>
        <time>2015-09-06T08:37:22Z</time>
      </trkpt>
      <trkpt lat="45.84505" lon="4.81842">
        <ele>269</ele>
        <time>2015-09-06T08:37:26Z</time>
      </trkpt>
      <trkpt lat="45.84504" lon="4.81852">
        <ele>271</ele>
        <time>2015-09-06T08:37:29Z</time>
      </trkpt>
      <trkpt lat="45.84503" lon="4.81863">
        <ele>271</ele>
        <time>2015-09-06T08:37:32Z</time>
      </trkpt>
      <trkpt lat="45.84501" lon="4.81879">
        <ele>270</ele>
        <time>2015-09-06T08:37:36Z</time>
      </trkpt>
      <trkpt lat="45.845" lon="4.81887">
        <ele>264</ele>
        <time>2015-09-06T08:37:38Z</time>
      </trkpt>
      <trkpt lat="45.84495" lon="4.81905">
        <ele>261</ele>
        <time>2015-09-06T08:37:43Z</time>
      </trkpt>
      <trkpt lat="45.84495" lon="4.81908">
        <ele>261</ele>
        <time>2015-09-06T08:37:44Z</time>
      </trkpt>
      <trkpt lat="45.8449" lon="4.81928">
        <ele>258</ele>
        <time>2015-09-06T08:37:50Z</time>
      </trkpt>
      <trkpt lat="45.8449" lon="4.81931">
        <ele>258</ele>
        <time>2015-09-06T08:37:51Z</time>
      </trkpt>
      <trkpt lat="45.84489" lon="4.81947">
        <ele>258</ele>
        <time>2015-09-06T08:37:55Z</time>
      </trkpt>
      <trkpt lat="45.84488" lon="4.81958">
        <ele>257</ele>
        <time>2015-09-06T08:37:58Z</time>
      </trkpt>
      <trkpt lat="45.84486" lon="4.81968">
        <ele>256</ele>
        <time>2015-09-06T08:38:01Z</time>
      </trkpt>
      <trkpt lat="45.84485" lon="4.81984">
        <ele>255</ele>
        <time>2015-09-06T08:38:05Z</time>
      </trkpt>
      <trkpt lat="45.84483" lon="4.81992">
        <ele>254</ele>
        <time>2015-09-06T08:38:07Z</time>
      </trkpt>
      <trkpt lat="45.84482" lon="4.8201">
        <ele>250</ele>
        <time>2015-09-06T08:38:12Z</time>
      </trkpt>
      <trkpt lat="45.84483" lon="4.82015">
        <ele>250</ele>
        <time>2015-09-06T08:38:13Z</time>
      </trkpt>
      <trkpt lat="45.84488" lon="4.82032">
        <ele>250</ele>
        <time>2015-09-06T08:38:18Z</time>
      </trkpt>
      <trkpt lat="45.8449" lon="4.82035">
        <ele>249</ele>
        <time>2015-09-06T08:38:19Z</time>
      </trkpt>
      <trkpt lat="45.84497" lon="4.82048">
        <ele>248</ele>
        <time>2015-09-06T08:38:23Z</time>
      </trkpt>
      <trkpt lat="45.84503" lon="4.82057">
        <ele>249</ele>
        <time>2015-09-06T08:38:26Z</time>
      </trkpt>
      <trkpt lat="45.84509" lon="4.82071">
        <ele>247</ele>
        <time>2015-09-06T08:38:30Z</time>
      </trkpt>
      <trkpt lat="45.84512" lon="4.82082">
        <ele>246</ele>
        <time>2015-09-06T08:38:33Z</time>
      </trkpt>
      <trkpt lat="45.84515" lon="4.82094">
        <ele>244</ele>
        <time>2015-09-06T08:38:36Z</time>
      </trkpt>
      <trkpt lat="45.84517" lon="4.82107">
        <ele>245</ele>
        <time>2015-09-06T08:38:39Z</time>
      </trkpt>
      <trkpt lat="45.84517" lon="4.82118">
        <ele>245</ele>
        <time>2015-09-06T08:38:42Z</time>
      </trkpt>
      <trkpt lat="45.84515" lon="4.82135">
        <ele>243</ele>
        <time>2015-09-06T08:38:46Z</time>
      </trkpt>
      <trkpt lat="45.84513" lon="4.82142">
        <ele>242</ele>
        <time>2015-09-06T08:38:48Z</time>
      </trkpt>
      <trkpt lat="45.84512" lon="4.82162">
        <ele>239</ele>
        <time>2015-09-06T08:38:53Z</time>
      </trkpt>
      <trkpt lat="45.8451" lon="4.8217">
        <ele>237</ele>
        <time>2015-09-06T08:38:55Z</time>
      </trkpt>
      <trkpt lat="45.84506" lon="4.82189">
        <ele>237</ele>
        <time>2015-09-06T08:39:00Z</time>
      </trkpt>
      <trkpt lat="45.84506" lon="4.822">
        <ele>238</ele>
        <time>2015-09-06T08:39:03Z</time>
      </trkpt>
      <trkpt lat="45.84505" lon="4.82215">
        <ele>237</ele>
        <time>2015-09-06T08:39:07Z</time>
      </trkpt>
      <trkpt lat="45.84504" lon="4.82227">
        <ele>235</ele>
        <time>2015-09-06T08:39:10Z</time>
      </trkpt>
      <trkpt lat="45.84501" lon="4.82242">
        <ele>231</ele>
        <time>2015-09-06T08:39:14Z</time>
      </trkpt>
      <trkpt lat="45.84499" lon="4.82258">
        <ele>228</ele>
        <time>2015-09-06T08:39:18Z</time>
      </trkpt>
      <trkpt lat="45.84498" lon="4.82269">
        <ele>228</ele>
        <time>2015-09-06T08:39:21Z</time>
      </trkpt>
      <trkpt lat="45.84495" lon="4.82285">
        <ele>228</ele>
        <time>2015-09-06T08:39:25Z</time>
      </trkpt>
      <trkpt lat="45.84493" lon="4.82297">
        <ele>227</ele>
        <time>2015-09-06T08:39:28Z</time>
      </trkpt>
      <trkpt lat="45.84492" lon="4.82313">
        <ele>226</ele>
        <time>2015-09-06T08:39:32Z</time>
      </trkpt>
      <trkpt lat="45.84491" lon="4.82325">
        <ele>224</ele>
        <time>2015-09-06T08:39:35Z</time>
      </trkpt>
      <trkpt lat="45.8449" lon="4.82337">
        <ele>222</ele>
        <time>2015-09-06T08:39:38Z</time>
      </trkpt>
      <trkpt lat="45.84489" lon="4.82355">
        <ele>223</ele>
        <time>2015-09-06T08:39:42Z</time>
      </trkpt>
      <trkpt lat="45.84488" lon="4.82365">
        <ele>223</ele>
        <time>2015-09-06T08:39:45Z</time>
      </trkpt>
      <trkpt lat="45.84486" lon="4.8238">
        <ele>223</ele>
        <time>2015-09-06T08:39:49Z</time>
      </trkpt>
      <trkpt lat="45.84484" lon="4.82393">
        <ele>222</ele>
        <time>2015-09-06T08:39:53Z</time>
      </trkpt>
      <trkpt lat="45.84481" lon="4.82406">
        <ele>222</ele>
        <time>2015-09-06T08:39:57Z</time>
      </trkpt>
      <trkpt lat="45.84479" lon="4.82414">
        <ele>221</ele>
        <time>2015-09-06T08:39:59Z</time>
      </trkpt>
      <trkpt lat="45.84478" lon="4.82432">
        <ele>218</ele>
        <time>2015-09-06T08:40:04Z</time>
      </trkpt>
      <trkpt lat="45.84476" lon="4.8244">
        <ele>218</ele>
        <time>2015-09-06T08:40:06Z</time>
      </trkpt>
      <trkpt lat="45.84476" lon="4.8246">
        <ele>218</ele>
        <time>2015-09-06T08:40:11Z</time>
      </trkpt>
      <trkpt lat="45.84478" lon="4.82464">
        <ele>217</ele>
        <time>2015-09-06T08:40:12Z</time>
      </trkpt>
      <trkpt lat="45.84477" lon="4.82483">
        <ele>216</ele>
        <time>2015-09-06T08:40:17Z</time>
      </trkpt>
      <trkpt lat="45.84477" lon="4.82487">
        <ele>216</ele>
        <time>2015-09-06T08:40:18Z</time>
      </trkpt>
      <trkpt lat="45.84476" lon="4.82503">
        <ele>212</ele>
        <time>2015-09-06T08:40:23Z</time>
      </trkpt>
      <trkpt lat="45.84476" lon="4.82516">
        <ele>212</ele>
        <time>2015-09-06T08:40:27Z</time>
      </trkpt>
      <trkpt lat="45.84478" lon="4.8252">
        <ele>211</ele>
        <time>2015-09-06T08:40:28Z</time>
      </trkpt>
      <trkpt lat="45.84479" lon="4.82543">
        <ele>210</ele>
        <time>2015-09-06T08:40:34Z</time>
      </trkpt>
      <trkpt lat="45.8448" lon="4.82567">
        <ele>209</ele>
        <time>2015-09-06T08:40:40Z</time>
      </trkpt>
      <trkpt lat="45.8448" lon="4.82571">
        <ele>209</ele>
        <time>2015-09-06T08:40:41Z</time>
      </trkpt>
      <trkpt lat="45.84478" lon="4.82577">
        <ele>209</ele>
        <time>2015-09-06T08:40:45Z</time>
      </trkpt>
      <trkpt lat="45.84477" lon="4.82581">
        <ele>209</ele>
        <time>2015-09-06T08:40:48Z</time>
      </trkpt>
      <trkpt lat="45.84473" lon="4.82582">
        <ele>209</ele>
        <time>2015-09-06T08:40:52Z</time>
      </trkpt>
      <trkpt lat="45.84471" lon="4.82581">
        <ele>209</ele>
        <time>2015-09-06T08:40:53Z</time>
      </trkpt>
      <trkpt lat="45.84467" lon="4.82577">
        <ele>209</ele>
        <time>2015-09-06T08:40:57Z</time>
      </trkpt>
      <trkpt lat="45.84467" lon="4.82576">
        <ele>209</ele>
        <time>2015-09-06T08:40:58Z</time>
      </trkpt>
      <trkpt lat="45.84475" lon="4.82576">
        <ele>209</ele>
        <time>2015-09-06T08:41:02Z</time>
      </trkpt>
      <trkpt lat="45.84477" lon="4.82581">
        <ele>209</ele>
        <time>2015-09-06T08:41:07Z</time>
      </trkpt>
      <trkpt lat="45.84476" lon="4.82583">
        <ele>209</ele>
        <time>2015-09-06T08:41:08Z</time>
      </trkpt>
      <trkpt lat="45.84472" lon="4.82592">
        <ele>204</ele>
        <time>2015-09-06T08:41:11Z</time>
      </trkpt>
      <trkpt lat="45.84471" lon="4.82596">
        <ele>204</ele>
        <time>2015-09-06T08:41:12Z</time>
      </trkpt>
      <trkpt lat="45.84468" lon="4.82608">
        <ele>203</ele>
        <time>2015-09-06T08:41:15Z</time>
      </trkpt>
      <trkpt lat="45.84469" lon="4.8262">
        <ele>202</ele>
        <time>2015-09-06T08:41:18Z</time>
      </trkpt>
      <trkpt lat="45.84467" lon="4.82631">
        <ele>202</ele>
        <time>2015-09-06T08:41:21Z</time>
      </trkpt>
      <trkpt lat="45.84466" lon="4.82648">
        <ele>201</ele>
        <time>2015-09-06T08:41:25Z</time>
      </trkpt>
      <trkpt lat="45.84466" lon="4.82657">
        <ele>201</ele>
        <time>2015-09-06T08:41:27Z</time>
      </trkpt>
      <trkpt lat="45.84463" lon="4.82676">
        <ele>195</ele>
        <time>2015-09-06T08:41:32Z</time>
      </trkpt>
      <trkpt lat="45.84462" lon="4.82679">
        <ele>194</ele>
        <time>2015-09-06T08:41:33Z</time>
      </trkpt>
      <trkpt lat="45.84459" lon="4.82701">
        <ele>193</ele>
        <time>2015-09-06T08:41:39Z</time>
      </trkpt>
      <trkpt lat="45.84456" lon="4.82713">
        <ele>193</ele>
        <time>2015-09-06T08:41:43Z</time>
      </trkpt>
      <trkpt lat="45.84457" lon="4.82721">
        <ele>192</ele>
        <time>2015-09-06T08:41:45Z</time>
      </trkpt>
      <trkpt lat="45.84457" lon="4.82727">
        <ele>192</ele>
        <time>2015-09-06T08:41:46Z</time>
      </trkpt>
      <trkpt lat="45.8446" lon="4.82742">
        <ele>192</ele>
        <time>2015-09-06T08:41:50Z</time>
      </trkpt>
      <trkpt lat="45.84466" lon="4.82754">
        <ele>187</ele>
        <time>2015-09-06T08:41:53Z</time>
      </trkpt>
      <trkpt lat="45.8447" lon="4.82761">
        <ele>187</ele>
        <time>2015-09-06T08:41:55Z</time>
      </trkpt>
      <trkpt lat="45.84474" lon="4.82765">
        <ele>187</ele>
        <time>2015-09-06T08:41:56Z</time>
      </trkpt>
      <trkpt lat="45.84479" lon="4.82773">
        <ele>187</ele>
        <time>2015-09-06T08:41:59Z</time>
      </trkpt>
      <trkpt lat="45.84483" lon="4.82779">
        <ele>186</ele>
        <time>2015-09-06T08:42:01Z</time>
      </trkpt>
      <trkpt lat="45.84484" lon="4.82782">
        <ele>186</ele>
        <time>2015-09-06T08:42:02Z</time>
      </trkpt>
      <trkpt lat="45.84492" lon="4.82793">
        <ele>186</ele>
        <time>2015-09-06T08:42:05Z</time>
      </trkpt>
      <trkpt lat="45.84493" lon="4.82801">
        <ele>185</ele>
        <time>2015-09-06T08:42:07Z</time>
      </trkpt>
      <trkpt lat="45.84494" lon="4.82808">
        <ele>185</ele>
        <time>2015-09-06T08:42:09Z</time>
      </trkpt>
      <trkpt lat="45.84496" lon="4.82813">
        <ele>185</ele>
        <time>2015-09-06T08:42:11Z</time>
      </trkpt>
      <trkpt lat="45.84496" lon="4.82819">
        <ele>185</ele>
        <time>2015-09-06T08:42:13Z</time>
      </trkpt>
      <trkpt lat="45.84495" lon="4.8283">
        <ele>184</ele>
        <time>2015-09-06T08:42:16Z</time>
      </trkpt>
      <trkpt lat="45.84494" lon="4.82844">
        <ele>182</ele>
        <time>2015-09-06T08:42:20Z</time>
      </trkpt>
      <trkpt lat="45.84493" lon="4.82848">
        <ele>182</ele>
        <time>2015-09-06T08:42:21Z</time>
      </trkpt>
      <trkpt lat="45.84495" lon="4.82868">
        <ele>181</ele>
        <time>2015-09-06T08:42:26Z</time>
      </trkpt>
      <trkpt lat="45.84495" lon="4.82871">
        <ele>181</ele>
        <time>2015-09-06T08:42:27Z</time>
      </trkpt>
      <trkpt lat="45.84494" lon="4.82885">
        <ele>181</ele>
        <time>2015-09-06T08:42:31Z</time>
      </trkpt>
      <trkpt lat="45.84495" lon="4.82898">
        <ele>180</ele>
        <time>2015-09-06T08:42:35Z</time>
      </trkpt>
      <trkpt lat="45.84497" lon="4.82899">
        <ele>180</ele>
        <time>2015-09-06T08:42:36Z</time>
      </trkpt>
      <trkpt lat="45.845" lon="4.82902">
        <ele>180</ele>
        <time>2015-09-06T08:42:38Z</time>
      </trkpt>
      <trkpt lat="45.84509" lon="4.82906">
        <ele>181</ele>
        <time>2015-09-06T08:42:41Z</time>
      </trkpt>
      <trkpt lat="45.84513" lon="4.82909">
        <ele>181</ele>
        <time>2015-09-06T08:42:43Z</time>
      </trkpt>
      <trkpt lat="45.8452" lon="4.82908">
        <ele>181</ele>
        <time>2015-09-06T08:42:45Z</time>
      </trkpt>
      <trkpt lat="45.84531" lon="4.82905">
        <ele>181</ele>
        <time>2015-09-06T08:42:48Z</time>
      </trkpt>
      <trkpt lat="45.84535" lon="4.82904">
        <ele>181</ele>
        <time>2015-09-06T08:42:49Z</time>
      </trkpt>
      <trkpt lat="45.84538" lon="4.82903">
        <ele>181</ele>
        <time>2015-09-06T08:42:50Z</time>
      </trkpt>
      <trkpt lat="45.84548" lon="4.82899">
        <ele>181</ele>
        <time>2015-09-06T08:42:55Z</time>
      </trkpt>
      <trkpt lat="45.84552" lon="4.82899">
        <ele>181</ele>
        <time>2015-09-06T08:42:57Z</time>
      </trkpt>
      <trkpt lat="45.84545" lon="4.82901">
        <ele>181</ele>
        <time>2015-09-06T08:43:00Z</time>
      </trkpt>
      <trkpt lat="45.84541" lon="4.82902">
        <ele>181</ele>
        <time>2015-09-06T08:43:02Z</time>
      </trkpt>
      <trkpt lat="45.84537" lon="4.82901">
        <ele>181</ele>
        <time>2015-09-06T08:43:04Z</time>
      </trkpt>
      <trkpt lat="45.84546" lon="4.82899">
        <ele>181</ele>
        <time>2015-09-06T08:43:06Z</time>
      </trkpt>
      <trkpt lat="45.84553" lon="4.82892">
        <ele>181</ele>
        <time>2015-09-06T08:43:10Z</time>
      </trkpt>
      <trkpt lat="45.84557" lon="4.82877">
        <ele>182</ele>
        <time>2015-09-06T08:43:14Z</time>
      </trkpt>
      <trkpt lat="45.84559" lon="4.82877">
        <ele>182</ele>
        <time>2015-09-06T08:43:15Z</time>
      </trkpt>
      <trkpt lat="45.84565" lon="4.82874">
        <ele>182</ele>
        <time>2015-09-06T08:43:18Z</time>
      </trkpt>
      <trkpt lat="45.84569" lon="4.82873">
        <ele>182</ele>
        <time>2015-09-06T08:43:20Z</time>
      </trkpt>
      <trkpt lat="45.84577" lon="4.82873">
        <ele>182</ele>
        <time>2015-09-06T08:43:23Z</time>
      </trkpt>
      <trkpt lat="45.84581" lon="4.82874">
        <ele>182</ele>
        <time>2015-09-06T08:43:25Z</time>
      </trkpt>
      <trkpt lat="45.84593" lon="4.82877">
        <ele>181</ele>
        <time>2015-09-06T08:43:30Z</time>
      </trkpt>
      <trkpt lat="45.84595" lon="4.82879">
        <ele>181</ele>
        <time>2015-09-06T08:43:31Z</time>
      </trkpt>
      <trkpt lat="45.84602" lon="4.82885">
        <ele>180</ele>
        <time>2015-09-06T08:43:35Z</time>
      </trkpt>
      <trkpt lat="45.84603" lon="4.82886">
        <ele>180</ele>
        <time>2015-09-06T08:43:36Z</time>
      </trkpt>
      <trkpt lat="45.84614" lon="4.82886">
        <ele>180</ele>
        <time>2015-09-06T08:43:40Z</time>
      </trkpt>
      <trkpt lat="45.84618" lon="4.82887">
        <ele>180</ele>
        <time>2015-09-06T08:43:42Z</time>
      </trkpt>
      <trkpt lat="45.84629" lon="4.8289">
        <ele>180</ele>
        <time>2015-09-06T08:43:47Z</time>
      </trkpt>
      <trkpt lat="45.84632" lon="4.82891">
        <ele>180</ele>
        <time>2015-09-06T08:43:48Z</time>
      </trkpt>
      <trkpt lat="45.84645" lon="4.82894">
        <ele>179</ele>
        <time>2015-09-06T08:43:53Z</time>
      </trkpt>
      <trkpt lat="45.84651" lon="4.82896">
        <ele>178</ele>
        <time>2015-09-06T08:43:55Z</time>
      </trkpt>
      <trkpt lat="45.84657" lon="4.82898">
        <ele>178</ele>
        <time>2015-09-06T08:43:58Z</time>
      </trkpt>
      <trkpt lat="45.84668" lon="4.82901">
        <ele>178</ele>
        <time>2015-09-06T08:44:02Z</time>
      </trkpt>
      <trkpt lat="45.84671" lon="4.82902">
        <ele>178</ele>
        <time>2015-09-06T08:44:03Z</time>
      </trkpt>
      <trkpt lat="45.84687" lon="4.82906">
        <ele>179</ele>
        <time>2015-09-06T08:44:10Z</time>
      </trkpt>
      <trkpt lat="45.84703" lon="4.82907">
        <ele>180</ele>
        <time>2015-09-06T08:44:16Z</time>
      </trkpt>
      <trkpt lat="45.84707" lon="4.82908">
        <ele>180</ele>
        <time>2015-09-06T08:44:18Z</time>
      </trkpt>
      <trkpt lat="45.84717" lon="4.82911">
        <ele>180</ele>
        <time>2015-09-06T08:44:23Z</time>
      </trkpt>
      <trkpt lat="45.84725" lon="4.82912">
        <ele>179</ele>
        <time>2015-09-06T08:44:25Z</time>
      </trkpt>
      <trkpt lat="45.84734" lon="4.82915">
        <ele>179</ele>
        <time>2015-09-06T08:44:28Z</time>
      </trkpt>
      <trkpt lat="45.84745" lon="4.82919">
        <ele>175</ele>
        <time>2015-09-06T08:44:33Z</time>
      </trkpt>
      <trkpt lat="45.84752" lon="4.82921">
        <ele>176</ele>
        <time>2015-09-06T08:44:35Z</time>
      </trkpt>
      <trkpt lat="45.84764" lon="4.82925">
        <ele>176</ele>
        <time>2015-09-06T08:44:39Z</time>
      </trkpt>
      <trkpt lat="45.8477" lon="4.82926">
        <ele>176</ele>
        <time>2015-09-06T08:44:41Z</time>
      </trkpt>
      <trkpt lat="45.84779" lon="4.82929">
        <ele>176</ele>
        <time>2015-09-06T08:44:46Z</time>
      </trkpt>
      <trkpt lat="45.84782" lon="4.8293">
        <ele>176</ele>
        <time>2015-09-06T08:44:48Z</time>
      </trkpt>
      <trkpt lat="45.84788" lon="4.82933">
        <ele>176</ele>
        <time>2015-09-06T08:44:51Z</time>
      </trkpt>
      <trkpt lat="45.84799" lon="4.82935">
        <ele>176</ele>
        <time>2015-09-06T08:44:55Z</time>
      </trkpt>
      <trkpt lat="45.84814" lon="4.82941">
        <ele>176</ele>
        <time>2015-09-06T08:45:01Z</time>
      </trkpt>
      <trkpt lat="45.84816" lon="4.82942">
        <ele>176</ele>
        <time>2015-09-06T08:45:02Z</time>
      </trkpt>
      <trkpt lat="45.84827" lon="4.82952">
        <ele>176</ele>
        <time>2015-09-06T08:45:07Z</time>
      </trkpt>
      <trkpt lat="45.84833" lon="4.82957">
        <ele>176</ele>
        <time>2015-09-06T08:45:09Z</time>
      </trkpt>
      <trkpt lat="45.84842" lon="4.82958">
        <ele>178</ele>
        <time>2015-09-06T08:45:12Z</time>
      </trkpt>
      <trkpt lat="45.84853" lon="4.82966">
        <ele>177</ele>
        <time>2015-09-06T08:45:16Z</time>
      </trkpt>
      <trkpt lat="45.84858" lon="4.82974">
        <ele>177</ele>
        <time>2015-09-06T08:45:18Z</time>
      </trkpt>
      <trkpt lat="45.8487" lon="4.8298">
        <ele>177</ele>
        <time>2015-09-06T08:45:21Z</time>
      </trkpt>
      <trkpt lat="45.84879" lon="4.82982">
        <ele>177</ele>
        <time>2015-09-06T08:45:24Z</time>
      </trkpt>
      <trkpt lat="45.8489" lon="4.82984">
        <ele>177</ele>
        <time>2015-09-06T08:45:28Z</time>
      </trkpt>
      <trkpt lat="45.84894" lon="4.82985">
        <ele>177</ele>
        <time>2015-09-06T08:45:30Z</time>
      </trkpt>
      <trkpt lat="45.84908" lon="4.8299">
        <ele>175</ele>
        <time>2015-09-06T08:45:35Z</time>
      </trkpt>
      <trkpt lat="45.8491" lon="4.82992">
        <ele>175</ele>
        <time>2015-09-06T08:45:36Z</time>
      </trkpt>
      <trkpt lat="45.84921" lon="4.83006">
        <ele>173</ele>
        <time>2015-09-06T08:45:41Z</time>
      </trkpt>
      <trkpt lat="45.84924" lon="4.83008">
        <ele>173</ele>
        <time>2015-09-06T08:45:42Z</time>
      </trkpt>
      <trkpt lat="45.84939" lon="4.83018">
        <ele>172</ele>
        <time>2015-09-06T08:45:48Z</time>
      </trkpt>
      <trkpt lat="45.84941" lon="4.83019">
        <ele>172</ele>
        <time>2015-09-06T08:45:49Z</time>
      </trkpt>
      <trkpt lat="45.84954" lon="4.83027">
        <ele>172</ele>
        <time>2015-09-06T08:45:54Z</time>
      </trkpt>
      <trkpt lat="45.84961" lon="4.83029">
        <ele>172</ele>
        <time>2015-09-06T08:45:56Z</time>
      </trkpt>
      <trkpt lat="45.84974" lon="4.8303">
        <ele>172</ele>
        <time>2015-09-06T08:46:00Z</time>
      </trkpt>
      <trkpt lat="45.84983" lon="4.83029">
        <ele>172</ele>
        <time>2015-09-06T08:46:03Z</time>
      </trkpt>
      <trkpt lat="45.84991" lon="4.83028">
        <ele>172</ele>
        <time>2015-09-06T08:46:06Z</time>
      </trkpt>
      <trkpt lat="45.85003" lon="4.83028">
        <ele>173</ele>
        <time>2015-09-06T08:46:11Z</time>
      </trkpt>
      <trkpt lat="45.85008" lon="4.83028">
        <ele>173</ele>
        <time>2015-09-06T08:46:13Z</time>
      </trkpt>
      <trkpt lat="45.85021" lon="4.83027">
        <ele>173</ele>
        <time>2015-09-06T08:46:18Z</time>
      </trkpt>
      <trkpt lat="45.85023" lon="4.83027">
        <ele>173</ele>
        <time>2015-09-06T08:46:19Z</time>
      </trkpt>
      <trkpt lat="45.85037" lon="4.83026">
        <ele>173</ele>
        <time>2015-09-06T08:46:24Z</time>
      </trkpt>
      <trkpt lat="45.85042" lon="4.83027">
        <ele>173</ele>
        <time>2015-09-06T08:46:26Z</time>
      </trkpt>
      <trkpt lat="45.85053" lon="4.83029">
        <ele>173</ele>
        <time>2015-09-06T08:46:30Z</time>
      </trkpt>
      <trkpt lat="45.85063" lon="4.8303">
        <ele>174</ele>
        <time>2015-09-06T08:46:34Z</time>
      </trkpt>
      <trkpt lat="45.8507" lon="4.83033">
        <ele>174</ele>
        <time>2015-09-06T08:46:37Z</time>
      </trkpt>
      <trkpt lat="45.85081" lon="4.83033">
        <ele>174</ele>
        <time>2015-09-06T08:46:42Z</time>
      </trkpt>
      <trkpt lat="45.85086" lon="4.83034">
        <ele>174</ele>
        <time>2015-09-06T08:46:44Z</time>
      </trkpt>
      <trkpt lat="45.85101" lon="4.83036">
        <ele>174</ele>
        <time>2015-09-06T08:46:49Z</time>
      </trkpt>
      <trkpt lat="45.85106" lon="4.83036">
        <ele>174</ele>
        <time>2015-09-06T08:46:51Z</time>
      </trkpt>
      <trkpt lat="45.85119" lon="4.83037">
        <ele>175</ele>
        <time>2015-09-06T08:46:57Z</time>
      </trkpt>
      <trkpt lat="45.85134" lon="4.83043">
        <ele>175</ele>
        <time>2015-09-06T08:47:04Z</time>
      </trkpt>
      <trkpt lat="45.85137" lon="4.83044">
        <ele>175</ele>
        <time>2015-09-06T08:47:05Z</time>
      </trkpt>
      <trkpt lat="45.8515" lon="4.83048">
        <ele>174</ele>
        <time>2015-09-06T08:47:11Z</time>
      </trkpt>
      <trkpt lat="45.85156" lon="4.83048">
        <ele>174</ele>
        <time>2015-09-06T08:47:15Z</time>
      </trkpt>
      <trkpt lat="45.85158" lon="4.83047">
        <ele>174</ele>
        <time>2015-09-06T08:47:17Z</time>
      </trkpt>
      <trkpt lat="45.85167" lon="4.83048">
        <ele>175</ele>
        <time>2015-09-06T08:47:25Z</time>
      </trkpt>
      <trkpt lat="45.85175" lon="4.83049">
        <ele>175</ele>
        <time>2015-09-06T08:47:31Z</time>
      </trkpt>
      <trkpt lat="45.85176" lon="4.83049">
        <ele>175</ele>
        <time>2015-09-06T08:47:32Z</time>
      </trkpt>
      <trkpt lat="45.85182" lon="4.83048">
        <ele>175</ele>
        <time>2015-09-06T08:47:38Z</time>
      </trkpt>
      <trkpt lat="45.85185" lon="4.83047">
        <ele>175</ele>
        <time>2015-09-06T08:47:41Z</time>
      </trkpt>
      <trkpt lat="45.85186" lon="4.83048">
        <ele>175</ele>
        <time>2015-09-06T08:47:45Z</time>
      </trkpt>
      <trkpt lat="45.85186" lon="4.83047">
        <ele>175</ele>
        <time>2015-09-06T08:47:50Z</time>
      </trkpt>
      <trkpt lat="45.85188" lon="4.83043">
        <ele>175</ele>
        <time>2015-09-06T08:47:56Z</time>
      </trkpt>
      <trkpt lat="45.85189" lon="4.83035">
        <ele>175</ele>
        <time>2015-09-06T08:48:01Z</time>
      </trkpt>
      <trkpt lat="45.85191" lon="4.83031">
        <ele>175</ele>
        <time>2015-09-06T08:48:03Z</time>
      </trkpt>
      <trkpt lat="45.85191" lon="4.83028">
        <ele>175</ele>
        <time>2015-09-06T08:48:04Z</time>
      </trkpt>
      <trkpt lat="45.8519" lon="4.83019">
        <ele>176</ele>
        <time>2015-09-06T08:48:09Z</time>
      </trkpt>
      <trkpt lat="45.85189" lon="4.83008">
        <ele>176</ele>
        <time>2015-09-06T08:48:15Z</time>
      </trkpt>
      <trkpt lat="45.85186" lon="4.82989">
        <ele>181</ele>
        <time>2015-09-06T08:48:21Z</time>
      </trkpt>
      <trkpt lat="45.85186" lon="4.82986">
        <ele>181</ele>
        <time>2015-09-06T08:48:22Z</time>
      </trkpt>
      <trkpt lat="45.85186" lon="4.82981">
        <ele>181</ele>
        <time>2015-09-06T08:48:24Z</time>
      </trkpt>
      <trkpt lat="45.85185" lon="4.82975">
        <ele>182</ele>
        <time>2015-09-06T08:48:27Z</time>
      </trkpt>
      <trkpt lat="45.85183" lon="4.82955">
        <ele>184</ele>
        <time>2015-09-06T08:48:34Z</time>
      </trkpt>
      <trkpt lat="45.85187" lon="4.8295">
        <ele>184</ele>
        <time>2015-09-06T08:48:38Z</time>
      </trkpt>
      <trkpt lat="45.85189" lon="4.82947">
        <ele>184</ele>
        <time>2015-09-06T08:48:41Z</time>
      </trkpt>
      <trkpt lat="45.85192" lon="4.82944">
        <ele>185</ele>
        <time>2015-09-06T08:48:46Z</time>
      </trkpt>
      <trkpt lat="45.85193" lon="4.8294">
        <ele>185</ele>
        <time>2015-09-06T08:48:48Z</time>
      </trkpt>
      <trkpt lat="45.85188" lon="4.82926">
        <ele>186</ele>
        <time>2015-09-06T08:48:54Z</time>
      </trkpt>
      <trkpt lat="45.85187" lon="4.82923">
        <ele>186</ele>
        <time>2015-09-06T08:48:56Z</time>
      </trkpt>
      <trkpt lat="45.85187" lon="4.8292">
        <ele>186</ele>
        <time>2015-09-06T08:48:57Z</time>
      </trkpt>
      <trkpt lat="45.85187" lon="4.82915">
        <ele>193</ele>
        <time>2015-09-06T08:49:00Z</time>
      </trkpt>
      <trkpt lat="45.8519" lon="4.82913">
        <ele>193</ele>
        <time>2015-09-06T08:49:02Z</time>
      </trkpt>
      <trkpt lat="45.85192" lon="4.82908">
        <ele>193</ele>
        <time>2015-09-06T08:49:06Z</time>
      </trkpt>
      <trkpt lat="45.85192" lon="4.82902">
        <ele>194</ele>
        <time>2015-09-06T08:49:10Z</time>
      </trkpt>
      <trkpt lat="45.85192" lon="4.82901">
        <ele>194</ele>
        <time>2015-09-06T08:49:11Z</time>
      </trkpt>
      <trkpt lat="45.85194" lon="4.82898">
        <ele>194</ele>
        <time>2015-09-06T08:49:14Z</time>
      </trkpt>
      <trkpt lat="45.85194" lon="4.82895">
        <ele>194</ele>
        <time>2015-09-06T08:49:16Z</time>
      </trkpt>
      <trkpt lat="45.85195" lon="4.82886">
        <ele>195</ele>
        <time>2015-09-06T08:49:22Z</time>
      </trkpt>
      <trkpt lat="45.852" lon="4.82879">
        <ele>196</ele>
        <time>2015-09-06T08:49:29Z</time>
      </trkpt>
      <trkpt lat="45.852" lon="4.82876">
        <ele>196</ele>
        <time>2015-09-06T08:49:30Z</time>
      </trkpt>
      <trkpt lat="45.85202" lon="4.82865">
        <ele>197</ele>
        <time>2015-09-06T08:49:38Z</time>
      </trkpt>
      <trkpt lat="45.85201" lon="4.82852">
        <ele>198</ele>
        <time>2015-09-06T08:49:46Z</time>
      </trkpt>
      <trkpt lat="45.85201" lon="4.82851">
        <ele>198</ele>
        <time>2015-09-06T08:49:47Z</time>
      </trkpt>
      <trkpt lat="45.852" lon="4.82836">
        <ele>199</ele>
        <time>2015-09-06T08:49:55Z</time>
      </trkpt>
      <trkpt lat="45.85201" lon="4.82828">
        <ele>208</ele>
        <time>2015-09-06T08:49:59Z</time>
      </trkpt>
      <trkpt lat="45.85202" lon="4.82827">
        <ele>208</ele>
        <time>2015-09-06T08:50:00Z</time>
      </trkpt>
      <trkpt lat="45.85204" lon="4.82826">
        <ele>208</ele>
        <time>2015-09-06T08:50:01Z</time>
      </trkpt>
      <trkpt lat="45.85214" lon="4.82816">
        <ele>209</ele>
        <time>2015-09-06T08:50:08Z</time>
      </trkpt>
      <trkpt lat="45.85216" lon="4.82807">
        <ele>210</ele>
        <time>2015-09-06T08:50:11Z</time>
      </trkpt>
      <trkpt lat="45.8522" lon="4.82798">
        <ele>211</ele>
        <time>2015-09-06T08:50:14Z</time>
      </trkpt>
      <trkpt lat="45.85225" lon="4.82782">
        <ele>212</ele>
        <time>2015-09-06T08:50:19Z</time>
      </trkpt>
      <trkpt lat="45.85226" lon="4.82779">
        <ele>213</ele>
        <time>2015-09-06T08:50:20Z</time>
      </trkpt>
      <trkpt lat="45.85225" lon="4.82774">
        <ele>213</ele>
        <time>2015-09-06T08:50:22Z</time>
      </trkpt>
      <trkpt lat="45.85224" lon="4.82766">
        <ele>214</ele>
        <time>2015-09-06T08:50:26Z</time>
      </trkpt>
      <trkpt lat="45.85223" lon="4.82755">
        <ele>215</ele>
        <time>2015-09-06T08:50:30Z</time>
      </trkpt>
      <trkpt lat="45.85223" lon="4.82751">
        <ele>215</ele>
        <time>2015-09-06T08:50:32Z</time>
      </trkpt>
      <trkpt lat="45.85224" lon="4.82749">
        <ele>225</ele>
        <time>2015-09-06T08:50:33Z</time>
      </trkpt>
      <trkpt lat="45.85228" lon="4.82735">
        <ele>225</ele>
        <time>2015-09-06T08:50:40Z</time>
      </trkpt>
      <trkpt lat="45.85228" lon="4.82733">
        <ele>226</ele>
        <time>2015-09-06T08:50:41Z</time>
      </trkpt>
      <trkpt lat="45.85226" lon="4.8273">
        <ele>226</ele>
        <time>2015-09-06T08:50:42Z</time>
      </trkpt>
      <trkpt lat="45.85227" lon="4.82727">
        <ele>226</ele>
        <time>2015-09-06T08:50:44Z</time>
      </trkpt>
      <trkpt lat="45.85227" lon="4.82724">
        <ele>227</ele>
        <time>2015-09-06T08:50:46Z</time>
      </trkpt>
      <trkpt lat="45.85227" lon="4.82721">
        <ele>227</ele>
        <time>2015-09-06T08:50:48Z</time>
      </trkpt>
      <trkpt lat="45.85228" lon="4.82718">
        <ele>228</ele>
        <time>2015-09-06T08:50:50Z</time>
      </trkpt>
      <trkpt lat="45.85228" lon="4.82716">
        <ele>228</ele>
        <time>2015-09-06T08:50:52Z</time>
      </trkpt>
      <trkpt lat="45.85229" lon="4.82714">
        <ele>228</ele>
        <time>2015-09-06T08:50:54Z</time>
      </trkpt>
      <trkpt lat="45.85229" lon="4.82713">
        <ele>228</ele>
        <time>2015-09-06T08:50:56Z</time>
      </trkpt>
      <trkpt lat="45.8523" lon="4.8271">
        <ele>229</ele>
        <time>2015-09-06T08:50:58Z</time>
      </trkpt>
      <trkpt lat="45.8523" lon="4.82709">
        <ele>229</ele>
        <time>2015-09-06T08:50:59Z</time>
      </trkpt>
      <trkpt lat="45.8523" lon="4.82699">
        <ele>230</ele>
        <time>2015-09-06T08:51:04Z</time>
      </trkpt>
      <trkpt lat="45.85229" lon="4.82691">
        <ele>231</ele>
        <time>2015-09-06T08:51:08Z</time>
      </trkpt>
      <trkpt lat="45.85229" lon="4.82687">
        <ele>232</ele>
        <time>2015-09-06T08:51:10Z</time>
      </trkpt>
      <trkpt lat="45.8523" lon="4.82676">
        <ele>233</ele>
        <time>2015-09-06T08:51:16Z</time>
      </trkpt>
      <trkpt lat="45.8523" lon="4.82671">
        <ele>233</ele>
        <time>2015-09-06T08:51:18Z</time>
      </trkpt>
      <trkpt lat="45.85232" lon="4.82669">
        <ele>234</ele>
        <time>2015-09-06T08:51:19Z</time>
      </trkpt>
      <trkpt lat="45.85236" lon="4.82666">
        <ele>239</ele>
        <time>2015-09-06T08:51:21Z</time>
      </trkpt>
      <trkpt lat="45.85238" lon="4.82665">
        <ele>239</ele>
        <time>2015-09-06T08:51:22Z</time>
      </trkpt>
      <trkpt lat="45.85239" lon="4.82658">
        <ele>239</ele>
        <time>2015-09-06T08:51:26Z</time>
      </trkpt>
      <trkpt lat="45.85239" lon="4.82657">
        <ele>239</ele>
        <time>2015-09-06T08:51:27Z</time>
      </trkpt>
      <trkpt lat="45.85241" lon="4.82644">
        <ele>240</ele>
        <time>2015-09-06T08:51:33Z</time>
      </trkpt>
      <trkpt lat="45.85241" lon="4.82633">
        <ele>241</ele>
        <time>2015-09-06T08:51:39Z</time>
      </trkpt>
      <trkpt lat="45.85241" lon="4.82629">
        <ele>241</ele>
        <time>2015-09-06T08:51:41Z</time>
      </trkpt>
      <trkpt lat="45.85242" lon="4.82624">
        <ele>241</ele>
        <time>2015-09-06T08:51:43Z</time>
      </trkpt>
      <trkpt lat="45.85243" lon="4.82623">
        <ele>241</ele>
        <time>2015-09-06T08:51:44Z</time>
      </trkpt>
      <trkpt lat="45.85246" lon="4.82621">
        <ele>241</ele>
        <time>2015-09-06T08:51:46Z</time>
      </trkpt>
      <trkpt lat="45.85247" lon="4.8262">
        <ele>241</ele>
        <time>2015-09-06T08:51:47Z</time>
      </trkpt>
      <trkpt lat="45.85252" lon="4.82617">
        <ele>251</ele>
        <time>2015-09-06T08:51:50Z</time>
      </trkpt>
      <trkpt lat="45.85251" lon="4.82615">
        <ele>251</ele>
        <time>2015-09-06T08:51:51Z</time>
      </trkpt>
      <trkpt lat="45.8525" lon="4.82608">
        <ele>250</ele>
        <time>2015-09-06T08:51:55Z</time>
      </trkpt>
      <trkpt lat="45.85251" lon="4.82602">
        <ele>250</ele>
        <time>2015-09-06T08:51:58Z</time>
      </trkpt>
      <trkpt lat="45.8525" lon="4.82598">
        <ele>249</ele>
        <time>2015-09-06T08:52:00Z</time>
      </trkpt>
      <trkpt lat="45.85251" lon="4.82596">
        <ele>249</ele>
        <time>2015-09-06T08:52:01Z</time>
      </trkpt>
      <trkpt lat="45.85252" lon="4.82594">
        <ele>248</ele>
        <time>2015-09-06T08:52:02Z</time>
      </trkpt>
      <trkpt lat="45.85251" lon="4.82589">
        <ele>247</ele>
        <time>2015-09-06T08:52:04Z</time>
      </trkpt>
      <trkpt lat="45.85251" lon="4.82584">
        <ele>245</ele>
        <time>2015-09-06T08:52:06Z</time>
      </trkpt>
      <trkpt lat="45.85251" lon="4.82579">
        <ele>247</ele>
        <time>2015-09-06T08:52:09Z</time>
      </trkpt>
      <trkpt lat="45.85253" lon="4.82577">
        <ele>249</ele>
        <time>2015-09-06T08:52:11Z</time>
      </trkpt>
      <trkpt lat="45.85255" lon="4.82574">
        <ele>250</ele>
        <time>2015-09-06T08:52:14Z</time>
      </trkpt>
      <trkpt lat="45.85258" lon="4.82572">
        <ele>252</ele>
        <time>2015-09-06T08:52:16Z</time>
      </trkpt>
      <trkpt lat="45.85258" lon="4.82571">
        <ele>252</ele>
        <time>2015-09-06T08:52:17Z</time>
      </trkpt>
      <trkpt lat="45.85258" lon="4.8257">
        <ele>252</ele>
        <time>2015-09-06T08:52:18Z</time>
      </trkpt>
      <trkpt lat="45.8526" lon="4.82568">
        <ele>253</ele>
        <time>2015-09-06T08:52:20Z</time>
      </trkpt>
      <trkpt lat="45.85261" lon="4.82563">
        <ele>255</ele>
        <time>2015-09-06T08:52:23Z</time>
      </trkpt>
      <trkpt lat="45.85261" lon="4.82562">
        <ele>255</ele>
        <time>2015-09-06T08:52:24Z</time>
      </trkpt>
      <trkpt lat="45.85261" lon="4.8256">
        <ele>255</ele>
        <time>2015-09-06T08:52:25Z</time>
      </trkpt>
      <trkpt lat="45.85261" lon="4.82555">
        <ele>256</ele>
        <time>2015-09-06T08:52:29Z</time>
      </trkpt>
      <trkpt lat="45.85261" lon="4.82552">
        <ele>257</ele>
        <time>2015-09-06T08:52:31Z</time>
      </trkpt>
      <trkpt lat="45.85262" lon="4.82548">
        <ele>257</ele>
        <time>2015-09-06T08:52:33Z</time>
      </trkpt>
      <trkpt lat="45.85261" lon="4.82546">
        <ele>258</ele>
        <time>2015-09-06T08:52:34Z</time>
      </trkpt>
      <trkpt lat="45.85262" lon="4.82541">
        <ele>258</ele>
        <time>2015-09-06T08:52:39Z</time>
      </trkpt>
      <trkpt lat="45.85262" lon="4.82536">
        <ele>258</ele>
        <time>2015-09-06T08:52:43Z</time>
      </trkpt>
      <trkpt lat="45.85262" lon="4.82531">
        <ele>258</ele>
        <time>2015-09-06T08:52:46Z</time>
      </trkpt>
      <trkpt lat="45.85262" lon="4.82529">
        <ele>258</ele>
        <time>2015-09-06T08:52:48Z</time>
      </trkpt>
      <trkpt lat="45.85258" lon="4.82512">
        <ele>256</ele>
        <time>2015-09-06T08:52:58Z</time>
      </trkpt>
      <trkpt lat="45.85259" lon="4.8251">
        <ele>256</ele>
        <time>2015-09-06T08:53:00Z</time>
      </trkpt>
      <trkpt lat="45.85258" lon="4.82508">
        <ele>256</ele>
        <time>2015-09-06T08:53:01Z</time>
      </trkpt>
      <trkpt lat="45.85258" lon="4.82503">
        <ele>255</ele>
        <time>2015-09-06T08:53:06Z</time>
      </trkpt>
      <trkpt lat="45.85257" lon="4.82496">
        <ele>257</ele>
        <time>2015-09-06T08:53:10Z</time>
      </trkpt>
      <trkpt lat="45.85256" lon="4.82492">
        <ele>258</ele>
        <time>2015-09-06T08:53:12Z</time>
      </trkpt>
      <trkpt lat="45.85254" lon="4.82485">
        <ele>261</ele>
        <time>2015-09-06T08:53:15Z</time>
      </trkpt>
      <trkpt lat="45.85253" lon="4.82483">
        <ele>261</ele>
        <time>2015-09-06T08:53:16Z</time>
      </trkpt>
      <trkpt lat="45.85253" lon="4.82478">
        <ele>263</ele>
        <time>2015-09-06T08:53:21Z</time>
      </trkpt>
      <trkpt lat="45.85252" lon="4.82476">
        <ele>263</ele>
        <time>2015-09-06T08:53:22Z</time>
      </trkpt>
      <trkpt lat="45.8525" lon="4.82472">
        <ele>264</ele>
        <time>2015-09-06T08:53:25Z</time>
      </trkpt>
      <trkpt lat="45.8525" lon="4.8247">
        <ele>260</ele>
        <time>2015-09-06T08:53:26Z</time>
      </trkpt>
      <trkpt lat="45.85247" lon="4.82464">
        <ele>261</ele>
        <time>2015-09-06T08:53:30Z</time>
      </trkpt>
      <trkpt lat="45.85246" lon="4.82461">
        <ele>261</ele>
        <time>2015-09-06T08:53:32Z</time>
      </trkpt>
      <trkpt lat="45.85245" lon="4.82455">
        <ele>262</ele>
        <time>2015-09-06T08:53:36Z</time>
      </trkpt>
      <trkpt lat="45.85245" lon="4.82454">
        <ele>262</ele>
        <time>2015-09-06T08:53:37Z</time>
      </trkpt>
      <trkpt lat="45.85243" lon="4.8245">
        <ele>263</ele>
        <time>2015-09-06T08:53:40Z</time>
      </trkpt>
      <trkpt lat="45.85244" lon="4.82446">
        <ele>263</ele>
        <time>2015-09-06T08:53:42Z</time>
      </trkpt>
      <trkpt lat="45.85244" lon="4.82444">
        <ele>263</ele>
        <time>2015-09-06T08:53:43Z</time>
      </trkpt>
      <trkpt lat="45.85245" lon="4.82441">
        <ele>263</ele>
        <time>2015-09-06T08:53:45Z</time>
      </trkpt>
      <trkpt lat="45.85245" lon="4.82437">
        <ele>264</ele>
        <time>2015-09-06T08:53:48Z</time>
      </trkpt>
      <trkpt lat="45.85245" lon="4.82434">
        <ele>264</ele>
        <time>2015-09-06T08:53:51Z</time>
      </trkpt>
      <trkpt lat="45.85244" lon="4.82428">
        <ele>264</ele>
        <time>2015-09-06T08:53:55Z</time>
      </trkpt>
      <trkpt lat="45.85248" lon="4.82422">
        <ele>263</ele>
        <time>2015-09-06T08:54:00Z</time>
      </trkpt>
      <trkpt lat="45.85249" lon="4.82418">
        <ele>263</ele>
        <time>2015-09-06T08:54:03Z</time>
      </trkpt>
      <trkpt lat="45.8525" lon="4.82412">
        <ele>266</ele>
        <time>2015-09-06T08:54:08Z</time>
      </trkpt>
      <trkpt lat="45.85248" lon="4.82405">
        <ele>273</ele>
        <time>2015-09-06T08:54:22Z</time>
      </trkpt>
      <trkpt lat="45.85251" lon="4.82401">
        <ele>272</ele>
        <time>2015-09-06T08:54:26Z</time>
      </trkpt>
      <trkpt lat="45.85251" lon="4.82398">
        <ele>273</ele>
        <time>2015-09-06T08:54:28Z</time>
      </trkpt>
      <trkpt lat="45.85253" lon="4.82396">
        <ele>273</ele>
        <time>2015-09-06T08:54:31Z</time>
      </trkpt>
      <trkpt lat="45.85254" lon="4.82393">
        <ele>274</ele>
        <time>2015-09-06T08:54:34Z</time>
      </trkpt>
      <trkpt lat="45.85253" lon="4.82387">
        <ele>276</ele>
        <time>2015-09-06T08:54:37Z</time>
      </trkpt>
      <trkpt lat="45.85253" lon="4.82385">
        <ele>276</ele>
        <time>2015-09-06T08:54:38Z</time>
      </trkpt>
      <trkpt lat="45.85254" lon="4.82379">
        <ele>277</ele>
        <time>2015-09-06T08:54:42Z</time>
      </trkpt>
      <trkpt lat="45.85256" lon="4.82376">
        <ele>278</ele>
        <time>2015-09-06T08:54:46Z</time>
      </trkpt>
      <trkpt lat="45.85258" lon="4.82375">
        <ele>278</ele>
        <time>2015-09-06T08:54:48Z</time>
      </trkpt>
      <trkpt lat="45.85261" lon="4.8237">
        <ele>279</ele>
        <time>2015-09-06T08:54:54Z</time>
      </trkpt>
      <trkpt lat="45.85261" lon="4.82364">
        <ele>279</ele>
        <time>2015-09-06T08:54:59Z</time>
      </trkpt>
      <trkpt lat="45.85262" lon="4.82363">
        <ele>279</ele>
        <time>2015-09-06T08:55:00Z</time>
      </trkpt>
      <trkpt lat="45.85262" lon="4.82362">
        <ele>279</ele>
        <time>2015-09-06T08:55:01Z</time>
      </trkpt>
      <trkpt lat="45.85263" lon="4.82355">
        <ele>280</ele>
        <time>2015-09-06T08:55:05Z</time>
      </trkpt>
      <trkpt lat="45.85264" lon="4.82352">
        <ele>280</ele>
        <time>2015-09-06T08:55:07Z</time>
      </trkpt>
      <trkpt lat="45.85264" lon="4.82348">
        <ele>280</ele>
        <time>2015-09-06T08:55:09Z</time>
      </trkpt>
      <trkpt lat="45.85264" lon="4.82343">
        <ele>280</ele>
        <time>2015-09-06T08:55:12Z</time>
      </trkpt>
      <trkpt lat="45.85261" lon="4.82336">
        <ele>280</ele>
        <time>2015-09-06T08:55:21Z</time>
      </trkpt>
      <trkpt lat="45.85259" lon="4.82338">
        <ele>280</ele>
        <time>2015-09-06T08:55:25Z</time>
      </trkpt>
      <trkpt lat="45.85257" lon="4.82337">
        <ele>280</ele>
        <time>2015-09-06T08:55:27Z</time>
      </trkpt>
      <trkpt lat="45.85254" lon="4.82337">
        <ele>279</ele>
        <time>2015-09-06T08:55:29Z</time>
      </trkpt>
      <trkpt lat="45.8525" lon="4.82335">
        <ele>279</ele>
        <time>2015-09-06T08:55:35Z</time>
      </trkpt>
      <trkpt lat="45.8525" lon="4.82334">
        <ele>279</ele>
        <time>2015-09-06T08:55:36Z</time>
      </trkpt>
      <trkpt lat="45.85247" lon="4.8233">
        <ele>286</ele>
        <time>2015-09-06T08:55:42Z</time>
      </trkpt>
      <trkpt lat="45.8524" lon="4.82321">
        <ele>296</ele>
        <time>2015-09-06T08:55:50Z</time>
      </trkpt>
      <trkpt lat="45.85241" lon="4.82323">
        <ele>294</ele>
        <time>2015-09-06T08:55:57Z</time>
      </trkpt>
      <trkpt lat="45.85238" lon="4.82316">
        <ele>299</ele>
        <time>2015-09-06T08:56:01Z</time>
      </trkpt>
      <trkpt lat="45.85236" lon="4.82312">
        <ele>302</ele>
        <time>2015-09-06T08:56:04Z</time>
      </trkpt>
      <trkpt lat="45.85236" lon="4.82311">
        <ele>302</ele>
        <time>2015-09-06T08:56:05Z</time>
      </trkpt>
      <trkpt lat="45.85235" lon="4.82308">
        <ele>304</ele>
        <time>2015-09-06T08:56:09Z</time>
      </trkpt>
      <trkpt lat="45.85237" lon="4.82301">
        <ele>306</ele>
        <time>2015-09-06T08:56:15Z</time>
      </trkpt>
      <trkpt lat="45.85238" lon="4.82295">
        <ele>307</ele>
        <time>2015-09-06T08:56:23Z</time>
      </trkpt>
      <trkpt lat="45.85239" lon="4.82289">
        <ele>308</ele>
        <time>2015-09-06T08:56:27Z</time>
      </trkpt>
      <trkpt lat="45.85241" lon="4.82286">
        <ele>309</ele>
        <time>2015-09-06T08:56:31Z</time>
      </trkpt>
      <trkpt lat="45.85248" lon="4.82282">
        <ele>309</ele>
        <time>2015-09-06T08:56:38Z</time>
      </trkpt>
      <trkpt lat="45.85251" lon="4.82279">
        <ele>298</ele>
        <time>2015-09-06T08:56:42Z</time>
      </trkpt>
      <trkpt lat="45.85254" lon="4.82278">
        <ele>298</ele>
        <time>2015-09-06T08:56:44Z</time>
      </trkpt>
      <trkpt lat="45.85256" lon="4.82276">
        <ele>298</ele>
        <time>2015-09-06T08:56:47Z</time>
      </trkpt>
      <trkpt lat="45.85258" lon="4.82275">
        <ele>298</ele>
        <time>2015-09-06T08:56:48Z</time>
      </trkpt>
      <trkpt lat="45.85258" lon="4.82273">
        <ele>299</ele>
        <time>2015-09-06T08:56:49Z</time>
      </trkpt>
      <trkpt lat="45.8526" lon="4.82271">
        <ele>299</ele>
        <time>2015-09-06T08:56:51Z</time>
      </trkpt>
      <trkpt lat="45.8526" lon="4.82266">
        <ele>300</ele>
        <time>2015-09-06T08:56:54Z</time>
      </trkpt>
      <trkpt lat="45.8526" lon="4.82264">
        <ele>301</ele>
        <time>2015-09-06T08:56:55Z</time>
      </trkpt>
      <trkpt lat="45.85262" lon="4.82262">
        <ele>301</ele>
        <time>2015-09-06T08:56:57Z</time>
      </trkpt>
      <trkpt lat="45.85264" lon="4.82258">
        <ele>301</ele>
        <time>2015-09-06T08:57:01Z</time>
      </trkpt>
      <trkpt lat="45.85264" lon="4.82256">
        <ele>302</ele>
        <time>2015-09-06T08:57:02Z</time>
      </trkpt>
      <trkpt lat="45.85264" lon="4.82255">
        <ele>302</ele>
        <time>2015-09-06T08:57:03Z</time>
      </trkpt>
      <trkpt lat="45.85269" lon="4.82244">
        <ele>311</ele>
        <time>2015-09-06T08:57:19Z</time>
      </trkpt>
      <trkpt lat="45.85271" lon="4.82241">
        <ele>311</ele>
        <time>2015-09-06T08:57:21Z</time>
      </trkpt>
      <trkpt lat="45.85274" lon="4.82237">
        <ele>312</ele>
        <time>2015-09-06T08:57:24Z</time>
      </trkpt>
      <trkpt lat="45.85275" lon="4.82233">
        <ele>312</ele>
        <time>2015-09-06T08:57:27Z</time>
      </trkpt>
      <trkpt lat="45.85277" lon="4.82232">
        <ele>313</ele>
        <time>2015-09-06T08:57:29Z</time>
      </trkpt>
      <trkpt lat="45.8528" lon="4.82223">
        <ele>314</ele>
        <time>2015-09-06T08:57:34Z</time>
      </trkpt>
      <trkpt lat="45.85276" lon="4.82203">
        <ele>317</ele>
        <time>2015-09-06T08:57:50Z</time>
      </trkpt>
      <trkpt lat="45.85275" lon="4.82195">
        <ele>319</ele>
        <time>2015-09-06T08:57:54Z</time>
      </trkpt>
      <trkpt lat="45.85276" lon="4.82193">
        <ele>319</ele>
        <time>2015-09-06T08:57:55Z</time>
      </trkpt>
      <trkpt lat="45.85276" lon="4.82182">
        <ele>321</ele>
        <time>2015-09-06T08:58:01Z</time>
      </trkpt>
      <trkpt lat="45.85277" lon="4.82179">
        <ele>321</ele>
        <time>2015-09-06T08:58:03Z</time>
      </trkpt>
      <trkpt lat="45.85279" lon="4.82174">
        <ele>321</ele>
        <time>2015-09-06T08:58:07Z</time>
      </trkpt>
      <trkpt lat="45.8528" lon="4.82174">
        <ele>321</ele>
        <time>2015-09-06T08:58:08Z</time>
      </trkpt>
      <trkpt lat="45.85281" lon="4.82172">
        <ele>321</ele>
        <time>2015-09-06T08:58:11Z</time>
      </trkpt>
      <trkpt lat="45.85285" lon="4.82172">
        <ele>320</ele>
        <time>2015-09-06T08:58:14Z</time>
      </trkpt>
      <trkpt lat="45.85294" lon="4.8217">
        <ele>318</ele>
        <time>2015-09-06T08:58:22Z</time>
      </trkpt>
      <trkpt lat="45.85296" lon="4.82169">
        <ele>318</ele>
        <time>2015-09-06T08:58:24Z</time>
      </trkpt>
      <trkpt lat="45.85297" lon="4.82169">
        <ele>318</ele>
        <time>2015-09-06T08:58:25Z</time>
      </trkpt>
      <trkpt lat="45.85299" lon="4.82166">
        <ele>332</ele>
        <time>2015-09-06T08:58:28Z</time>
      </trkpt>
      <trkpt lat="45.85299" lon="4.82165">
        <ele>332</ele>
        <time>2015-09-06T08:58:29Z</time>
      </trkpt>
      <trkpt lat="45.85301" lon="4.82163">
        <ele>331</ele>
        <time>2015-09-06T08:58:31Z</time>
      </trkpt>
      <trkpt lat="45.85303" lon="4.82157">
        <ele>331</ele>
        <time>2015-09-06T08:58:34Z</time>
      </trkpt>
      <trkpt lat="45.85309" lon="4.82147">
        <ele>332</ele>
        <time>2015-09-06T08:58:40Z</time>
      </trkpt>
      <trkpt lat="45.85311" lon="4.8214">
        <ele>333</ele>
        <time>2015-09-06T08:58:44Z</time>
      </trkpt>
      <trkpt lat="45.85312" lon="4.82138">
        <ele>333</ele>
        <time>2015-09-06T08:58:45Z</time>
      </trkpt>
      <trkpt lat="45.85312" lon="4.82137">
        <ele>333</ele>
        <time>2015-09-06T08:58:46Z</time>
      </trkpt>
      <trkpt lat="45.85314" lon="4.82135">
        <ele>333</ele>
        <time>2015-09-06T08:58:52Z</time>
      </trkpt>
      <trkpt lat="45.85314" lon="4.82138">
        <ele>333</ele>
        <time>2015-09-06T08:58:54Z</time>
      </trkpt>
      <trkpt lat="45.85316" lon="4.82141">
        <ele>331</ele>
        <time>2015-09-06T08:58:58Z</time>
      </trkpt>
      <trkpt lat="45.85317" lon="4.82142">
        <ele>331</ele>
        <time>2015-09-06T08:58:59Z</time>
      </trkpt>
      <trkpt lat="45.85319" lon="4.82143">
        <ele>330</ele>
        <time>2015-09-06T08:59:04Z</time>
      </trkpt>
      <trkpt lat="45.85321" lon="4.82145">
        <ele>329</ele>
        <time>2015-09-06T08:59:07Z</time>
      </trkpt>
      <trkpt lat="45.85323" lon="4.82147">
        <ele>328</ele>
        <time>2015-09-06T08:59:10Z</time>
      </trkpt>
      <trkpt lat="45.85324" lon="4.82148">
        <ele>328</ele>
        <time>2015-09-06T08:59:11Z</time>
      </trkpt>
      <trkpt lat="45.85324" lon="4.82148">
        <ele>327</ele>
        <time>2015-09-06T08:59:12Z</time>
      </trkpt>
      <trkpt lat="45.85325" lon="4.82148">
        <ele>327</ele>
        <time>2015-09-06T08:59:14Z</time>
      </trkpt>
      <trkpt lat="45.85328" lon="4.82147">
        <ele>327</ele>
        <time>2015-09-06T08:59:16Z</time>
      </trkpt>
      <trkpt lat="45.85333" lon="4.82146">
        <ele>327</ele>
        <time>2015-09-06T08:59:19Z</time>
      </trkpt>
      <trkpt lat="45.85337" lon="4.82143">
        <ele>326</ele>
        <time>2015-09-06T08:59:23Z</time>
      </trkpt>
      <trkpt lat="45.85341" lon="4.82139">
        <ele>327</ele>
        <time>2015-09-06T08:59:28Z</time>
      </trkpt>
      <trkpt lat="45.85342" lon="4.82138">
        <ele>328</ele>
        <time>2015-09-06T08:59:29Z</time>
      </trkpt>
      <trkpt lat="45.85343" lon="4.82134">
        <ele>329</ele>
        <time>2015-09-06T08:59:33Z</time>
      </trkpt>
      <trkpt lat="45.85344" lon="4.82131">
        <ele>330</ele>
        <time>2015-09-06T08:59:37Z</time>
      </trkpt>
      <trkpt lat="45.8535" lon="4.82127">
        <ele>331</ele>
        <time>2015-09-06T08:59:46Z</time>
      </trkpt>
      <trkpt lat="45.85351" lon="4.82125">
        <ele>331</ele>
        <time>2015-09-06T08:59:52Z</time>
      </trkpt>
      <trkpt lat="45.85353" lon="4.82125">
        <ele>332</ele>
        <time>2015-09-06T08:59:53Z</time>
      </trkpt>
      <trkpt lat="45.85352" lon="4.82123">
        <ele>332</ele>
        <time>2015-09-06T09:00:00Z</time>
      </trkpt>
      <trkpt lat="45.85354" lon="4.82126">
        <ele>331</ele>
        <time>2015-09-06T09:00:04Z</time>
      </trkpt>
      <trkpt lat="45.85358" lon="4.82118">
        <ele>333</ele>
        <time>2015-09-06T09:00:14Z</time>
      </trkpt>
      <trkpt lat="45.8536" lon="4.82116">
        <ele>333</ele>
        <time>2015-09-06T09:00:16Z</time>
      </trkpt>
      <trkpt lat="45.85365" lon="4.82118">
        <ele>333</ele>
        <time>2015-09-06T09:00:20Z</time>
      </trkpt>
      <trkpt lat="45.85366" lon="4.82119">
        <ele>333</ele>
        <time>2015-09-06T09:00:21Z</time>
      </trkpt>
      <trkpt lat="45.85367" lon="4.8212">
        <ele>333</ele>
        <time>2015-09-06T09:00:22Z</time>
      </trkpt>
      <trkpt lat="45.8537" lon="4.82118">
        <ele>334</ele>
        <time>2015-09-06T09:00:25Z</time>
      </trkpt>
      <trkpt lat="45.85372" lon="4.82117">
        <ele>334</ele>
        <time>2015-09-06T09:00:26Z</time>
      </trkpt>
      <trkpt lat="45.85375" lon="4.8211">
        <ele>335</ele>
        <time>2015-09-06T09:00:32Z</time>
      </trkpt>
      <trkpt lat="45.85375" lon="4.82106">
        <ele>335</ele>
        <time>2015-09-06T09:00:34Z</time>
      </trkpt>
      <trkpt lat="45.85374" lon="4.82101">
        <ele>335</ele>
        <time>2015-09-06T09:00:37Z</time>
      </trkpt>
      <trkpt lat="45.85374" lon="4.82099">
        <ele>335</ele>
        <time>2015-09-06T09:00:38Z</time>
      </trkpt>
      <trkpt lat="45.85375" lon="4.82096">
        <ele>336</ele>
        <time>2015-09-06T09:00:40Z</time>
      </trkpt>
      <trkpt lat="45.85375" lon="4.82092">
        <ele>336</ele>
        <time>2015-09-06T09:00:42Z</time>
      </trkpt>
      <trkpt lat="45.85375" lon="4.82091">
        <ele>336</ele>
        <time>2015-09-06T09:00:43Z</time>
      </trkpt>
      <trkpt lat="45.8538" lon="4.82082">
        <ele>346</ele>
        <time>2015-09-06T09:00:50Z</time>
      </trkpt>
      <trkpt lat="45.85384" lon="4.82076">
        <ele>347</ele>
        <time>2015-09-06T09:00:57Z</time>
      </trkpt>
      <trkpt lat="45.85384" lon="4.82075">
        <ele>347</ele>
        <time>2015-09-06T09:00:58Z</time>
      </trkpt>
      <trkpt lat="45.85384" lon="4.82072">
        <ele>347</ele>
        <time>2015-09-06T09:01:00Z</time>
      </trkpt>
      <trkpt lat="45.85384" lon="4.82071">
        <ele>347</ele>
        <time>2015-09-06T09:01:02Z</time>
      </trkpt>
      <trkpt lat="45.85386" lon="4.82069">
        <ele>347</ele>
        <time>2015-09-06T09:01:05Z</time>
      </trkpt>
      <trkpt lat="45.85387" lon="4.82069">
        <ele>347</ele>
        <time>2015-09-06T09:01:06Z</time>
      </trkpt>
      <trkpt lat="45.85391" lon="4.82064">
        <ele>347</ele>
        <time>2015-09-06T09:01:10Z</time>
      </trkpt>
      <trkpt lat="45.8539" lon="4.82055">
        <ele>348</ele>
        <time>2015-09-06T09:01:18Z</time>
      </trkpt>
      <trkpt lat="45.8539" lon="4.82048">
        <ele>349</ele>
        <time>2015-09-06T09:01:35Z</time>
      </trkpt>
      <trkpt lat="45.85391" lon="4.82046">
        <ele>349</ele>
        <time>2015-09-06T09:01:36Z</time>
      </trkpt>
      <trkpt lat="45.85395" lon="4.82043">
        <ele>350</ele>
        <time>2015-09-06T09:01:39Z</time>
      </trkpt>
      <trkpt lat="45.85396" lon="4.82037">
        <ele>350</ele>
        <time>2015-09-06T09:01:43Z</time>
      </trkpt>
      <trkpt lat="45.85396" lon="4.82036">
        <ele>350</ele>
        <time>2015-09-06T09:01:44Z</time>
      </trkpt>
      <trkpt lat="45.85396" lon="4.82035">
        <ele>351</ele>
        <time>2015-09-06T09:01:46Z</time>
      </trkpt>
      <trkpt lat="45.85398" lon="4.82036">
        <ele>351</ele>
        <time>2015-09-06T09:01:48Z</time>
      </trkpt>
      <trkpt lat="45.85413" lon="4.82034">
        <ele>351</ele>
        <time>2015-09-06T09:01:54Z</time>
      </trkpt>
      <trkpt lat="45.85403" lon="4.82035">
        <ele>351</ele>
        <time>2015-09-06T09:01:58Z</time>
      </trkpt>
      <trkpt lat="45.85407" lon="4.82044">
        <ele>350</ele>
        <time>2015-09-06T09:02:18Z</time>
      </trkpt>
      <trkpt lat="45.85409" lon="4.82046">
        <ele>349</ele>
        <time>2015-09-06T09:02:19Z</time>
      </trkpt>
      <trkpt lat="45.85413" lon="4.82049">
        <ele>349</ele>
        <time>2015-09-06T09:02:23Z</time>
      </trkpt>
      <trkpt lat="45.85418" lon="4.82054">
        <ele>360</ele>
        <time>2015-09-06T09:02:29Z</time>
      </trkpt>
      <trkpt lat="45.85417" lon="4.82056">
        <ele>360</ele>
        <time>2015-09-06T09:02:30Z</time>
      </trkpt>
      <trkpt lat="45.85418" lon="4.82061">
        <ele>358</ele>
        <time>2015-09-06T09:02:34Z</time>
      </trkpt>
      <trkpt lat="45.85421" lon="4.82064">
        <ele>357</ele>
        <time>2015-09-06T09:02:36Z</time>
      </trkpt>
      <trkpt lat="45.85424" lon="4.82064">
        <ele>357</ele>
        <time>2015-09-06T09:02:42Z</time>
      </trkpt>
      <trkpt lat="45.85425" lon="4.82067">
        <ele>357</ele>
        <time>2015-09-06T09:02:49Z</time>
      </trkpt>
      <trkpt lat="45.85427" lon="4.8207">
        <ele>356</ele>
        <time>2015-09-06T09:02:55Z</time>
      </trkpt>
      <trkpt lat="45.85428" lon="4.82067">
        <ele>358</ele>
        <time>2015-09-06T09:02:59Z</time>
      </trkpt>
      <trkpt lat="45.85431" lon="4.82065">
        <ele>359</ele>
        <time>2015-09-06T09:03:02Z</time>
      </trkpt>
      <trkpt lat="45.85431" lon="4.82064">
        <ele>360</ele>
        <time>2015-09-06T09:03:03Z</time>
      </trkpt>
      <trkpt lat="45.85431" lon="4.82053">
        <ele>362</ele>
        <time>2015-09-06T09:03:16Z</time>
      </trkpt>
      <trkpt lat="45.85433" lon="4.82047">
        <ele>364</ele>
        <time>2015-09-06T09:03:20Z</time>
      </trkpt>
      <trkpt lat="45.85432" lon="4.82043">
        <ele>364</ele>
        <time>2015-09-06T09:03:24Z</time>
      </trkpt>
      <trkpt lat="45.85433" lon="4.82042">
        <ele>365</ele>
        <time>2015-09-06T09:03:26Z</time>
      </trkpt>
      <trkpt lat="45.85433" lon="4.82038">
        <ele>365</ele>
        <time>2015-09-06T09:03:30Z</time>
      </trkpt>
      <trkpt lat="45.85436" lon="4.82032">
        <ele>366</ele>
        <time>2015-09-06T09:03:44Z</time>
      </trkpt>
      <trkpt lat="45.8544" lon="4.82028">
        <ele>367</ele>
        <time>2015-09-06T09:03:49Z</time>
      </trkpt>
      <trkpt lat="45.8544" lon="4.82023">
        <ele>367</ele>
        <time>2015-09-06T09:03:54Z</time>
      </trkpt>
      <trkpt lat="45.85442" lon="4.82019">
        <ele>367</ele>
        <time>2015-09-06T09:03:57Z</time>
      </trkpt>
      <trkpt lat="45.85444" lon="4.82021">
        <ele>368</ele>
        <time>2015-09-06T09:04:01Z</time>
      </trkpt>
      <trkpt lat="45.85444" lon="4.82024">
        <ele>367</ele>
        <time>2015-09-06T09:04:08Z</time>
      </trkpt>
      <trkpt lat="45.85449" lon="4.82027">
        <ele>369</ele>
        <time>2015-09-06T09:04:16Z</time>
      </trkpt>
      <trkpt lat="45.8545" lon="4.82027">
        <ele>369</ele>
        <time>2015-09-06T09:04:17Z</time>
      </trkpt>
      <trkpt lat="45.85452" lon="4.82031">
        <ele>369</ele>
        <time>2015-09-06T09:04:21Z</time>
      </trkpt>
      <trkpt lat="45.85454" lon="4.82033">
        <ele>369</ele>
        <time>2015-09-06T09:04:23Z</time>
      </trkpt>
      <trkpt lat="45.85456" lon="4.82038">
        <ele>370</ele>
        <time>2015-09-06T09:04:27Z</time>
      </trkpt>
      <trkpt lat="45.85458" lon="4.8204">
        <ele>370</ele>
        <time>2015-09-06T09:04:37Z</time>
      </trkpt>
      <trkpt lat="45.85461" lon="4.82033">
        <ele>371</ele>
        <time>2015-09-06T09:04:42Z</time>
      </trkpt>
      <trkpt lat="45.85464" lon="4.82026">
        <ele>372</ele>
        <time>2015-09-06T09:04:49Z</time>
      </trkpt>
      <trkpt lat="45.85464" lon="4.82023">
        <ele>373</ele>
        <time>2015-09-06T09:04:52Z</time>
      </trkpt>
      <trkpt lat="45.85463" lon="4.82022">
        <ele>373</ele>
        <time>2015-09-06T09:04:53Z</time>
      </trkpt>
      <trkpt lat="45.85465" lon="4.8202">
        <ele>373</ele>
        <time>2015-09-06T09:04:55Z</time>
      </trkpt>
      <trkpt lat="45.85467" lon="4.82017">
        <ele>374</ele>
        <time>2015-09-06T09:05:00Z</time>
      </trkpt>
      <trkpt lat="45.85467" lon="4.82015">
        <ele>374</ele>
        <time>2015-09-06T09:05:01Z</time>
      </trkpt>
      <trkpt lat="45.85472" lon="4.8201">
        <ele>376</ele>
        <time>2015-09-06T09:05:11Z</time>
      </trkpt>
      <trkpt lat="45.85474" lon="4.82016">
        <ele>376</ele>
        <time>2015-09-06T09:05:15Z</time>
      </trkpt>
      <trkpt lat="45.85474" lon="4.82017">
        <ele>377</ele>
        <time>2015-09-06T09:05:16Z</time>
      </trkpt>
      <trkpt lat="45.85472" lon="4.82017">
        <ele>376</ele>
        <time>2015-09-06T09:05:18Z</time>
      </trkpt>
      <trkpt lat="45.8547" lon="4.82016">
        <ele>375</ele>
        <time>2015-09-06T09:05:20Z</time>
      </trkpt>
      <trkpt lat="45.85466" lon="4.82015">
        <ele>374</ele>
        <time>2015-09-06T09:05:24Z</time>
      </trkpt>
      <trkpt lat="45.85466" lon="4.82017">
        <ele>374</ele>
        <time>2015-09-06T09:05:25Z</time>
      </trkpt>
      <trkpt lat="45.85472" lon="4.82022">
        <ele>375</ele>
        <time>2015-09-06T09:05:29Z</time>
      </trkpt>
      <trkpt lat="45.85475" lon="4.82026">
        <ele>375</ele>
        <time>2015-09-06T09:05:34Z</time>
      </trkpt>
      <trkpt lat="45.85476" lon="4.82029">
        <ele>375</ele>
        <time>2015-09-06T09:05:36Z</time>
      </trkpt>
      <trkpt lat="45.85477" lon="4.8203">
        <ele>375</ele>
        <time>2015-09-06T09:05:37Z</time>
      </trkpt>
      <trkpt lat="45.85479" lon="4.82035">
        <ele>375</ele>
        <time>2015-09-06T09:05:40Z</time>
      </trkpt>
      <trkpt lat="45.85483" lon="4.82035">
        <ele>376</ele>
        <time>2015-09-06T09:05:47Z</time>
      </trkpt>
      <trkpt lat="45.85486" lon="4.82028">
        <ele>378</ele>
        <time>2015-09-06T09:05:55Z</time>
      </trkpt>
      <trkpt lat="45.85486" lon="4.82025">
        <ele>378</ele>
        <time>2015-09-06T09:05:58Z</time>
      </trkpt>
      <trkpt lat="45.85486" lon="4.82018">
        <ele>380</ele>
        <time>2015-09-06T09:06:02Z</time>
      </trkpt>
      <trkpt lat="45.85486" lon="4.82017">
        <ele>380</ele>
        <time>2015-09-06T09:06:03Z</time>
      </trkpt>
      <trkpt lat="45.85488" lon="4.82004">
        <ele>384</ele>
        <time>2015-09-06T09:06:13Z</time>
      </trkpt>
      <trkpt lat="45.8549" lon="4.81991">
        <ele>389</ele>
        <time>2015-09-06T09:06:21Z</time>
      </trkpt>
      <trkpt lat="45.85491" lon="4.81989">
        <ele>389</ele>
        <time>2015-09-06T09:06:22Z</time>
      </trkpt>
      <trkpt lat="45.85493" lon="4.81988">
        <ele>389</ele>
        <time>2015-09-06T09:06:25Z</time>
      </trkpt>
      <trkpt lat="45.85494" lon="4.81988">
        <ele>389</ele>
        <time>2015-09-06T09:06:26Z</time>
      </trkpt>
      <trkpt lat="45.85493" lon="4.81981">
        <ele>388</ele>
        <time>2015-09-06T09:06:33Z</time>
      </trkpt>
      <trkpt lat="45.85494" lon="4.81978">
        <ele>388</ele>
        <time>2015-09-06T09:06:36Z</time>
      </trkpt>
      <trkpt lat="45.85494" lon="4.81972">
        <ele>387</ele>
        <time>2015-09-06T09:06:39Z</time>
      </trkpt>
      <trkpt lat="45.85493" lon="4.81965">
        <ele>387</ele>
        <time>2015-09-06T09:06:44Z</time>
      </trkpt>
      <trkpt lat="45.85497" lon="4.81961">
        <ele>388</ele>
        <time>2015-09-06T09:06:48Z</time>
      </trkpt>
      <trkpt lat="45.85497" lon="4.8196">
        <ele>388</ele>
        <time>2015-09-06T09:06:49Z</time>
      </trkpt>
      <trkpt lat="45.85499" lon="4.81949">
        <ele>389</ele>
        <time>2015-09-06T09:06:57Z</time>
      </trkpt>
      <trkpt lat="45.85499" lon="4.81946">
        <ele>390</ele>
        <time>2015-09-06T09:07:00Z</time>
      </trkpt>
      <trkpt lat="45.85499" lon="4.81943">
        <ele>390</ele>
        <time>2015-09-06T09:07:03Z</time>
      </trkpt>
      <trkpt lat="45.85498" lon="4.81938">
        <ele>392</ele>
        <time>2015-09-06T09:07:07Z</time>
      </trkpt>
      <trkpt lat="45.85498" lon="4.81937">
        <ele>392</ele>
        <time>2015-09-06T09:07:08Z</time>
      </trkpt>
      <trkpt lat="45.85499" lon="4.81933">
        <ele>393</ele>
        <time>2015-09-06T09:07:13Z</time>
      </trkpt>
      <trkpt lat="45.85499" lon="4.81931">
        <ele>394</ele>
        <time>2015-09-06T09:07:14Z</time>
      </trkpt>
      <trkpt lat="45.85499" lon="4.81926">
        <ele>396</ele>
        <time>2015-09-06T09:07:18Z</time>
      </trkpt>
      <trkpt lat="45.85498" lon="4.81923">
        <ele>398</ele>
        <time>2015-09-06T09:07:20Z</time>
      </trkpt>
      <trkpt lat="45.855" lon="4.81919">
        <ele>400</ele>
        <time>2015-09-06T09:07:25Z</time>
      </trkpt>
      <trkpt lat="45.85502" lon="4.81919">
        <ele>403</ele>
        <time>2015-09-06T09:07:26Z</time>
      </trkpt>
      <trkpt lat="45.85506" lon="4.81914">
        <ele>405</ele>
        <time>2015-09-06T09:07:32Z</time>
      </trkpt>
      <trkpt lat="45.85507" lon="4.81914">
        <ele>405</ele>
        <time>2015-09-06T09:07:33Z</time>
      </trkpt>
      <trkpt lat="45.85508" lon="4.81913">
        <ele>406</ele>
        <time>2015-09-06T09:07:34Z</time>
      </trkpt>
      <trkpt lat="45.85508" lon="4.81908">
        <ele>407</ele>
        <time>2015-09-06T09:07:37Z</time>
      </trkpt>
      <trkpt lat="45.85507" lon="4.81904">
        <ele>407</ele>
        <time>2015-09-06T09:07:39Z</time>
      </trkpt>
      <trkpt lat="45.85511" lon="4.819">
        <ele>409</ele>
        <time>2015-09-06T09:07:47Z</time>
      </trkpt>
      <trkpt lat="45.85512" lon="4.81897">
        <ele>409</ele>
        <time>2015-09-06T09:07:49Z</time>
      </trkpt>
      <trkpt lat="45.85514" lon="4.81896">
        <ele>410</ele>
        <time>2015-09-06T09:07:50Z</time>
      </trkpt>
      <trkpt lat="45.85518" lon="4.8189">
        <ele>411</ele>
        <time>2015-09-06T09:07:58Z</time>
      </trkpt>
      <trkpt lat="45.85521" lon="4.81886">
        <ele>412</ele>
        <time>2015-09-06T09:08:01Z</time>
      </trkpt>
      <trkpt lat="45.85523" lon="4.81885">
        <ele>412</ele>
        <time>2015-09-06T09:08:03Z</time>
      </trkpt>
      <trkpt lat="45.85524" lon="4.81883">
        <ele>412</ele>
        <time>2015-09-06T09:08:06Z</time>
      </trkpt>
      <trkpt lat="45.85527" lon="4.81878">
        <ele>413</ele>
        <time>2015-09-06T09:08:11Z</time>
      </trkpt>
      <trkpt lat="45.85527" lon="4.81875">
        <ele>413</ele>
        <time>2015-09-06T09:08:13Z</time>
      </trkpt>
      <trkpt lat="45.85533" lon="4.81871">
        <ele>414</ele>
        <time>2015-09-06T09:08:18Z</time>
      </trkpt>
      <trkpt lat="45.85534" lon="4.8187">
        <ele>414</ele>
        <time>2015-09-06T09:08:19Z</time>
      </trkpt>
      <trkpt lat="45.85534" lon="4.81868">
        <ele>414</ele>
        <time>2015-09-06T09:08:21Z</time>
      </trkpt>
      <trkpt lat="45.85535" lon="4.81863">
        <ele>414</ele>
        <time>2015-09-06T09:08:25Z</time>
      </trkpt>
      <trkpt lat="45.85535" lon="4.81858">
        <ele>414</ele>
        <time>2015-09-06T09:08:27Z</time>
      </trkpt>
      <trkpt lat="45.85532" lon="4.81849">
        <ele>414</ele>
        <time>2015-09-06T09:08:31Z</time>
      </trkpt>
      <trkpt lat="45.85532" lon="4.81842">
        <ele>414</ele>
        <time>2015-09-06T09:08:34Z</time>
      </trkpt>
      <trkpt lat="45.8553" lon="4.81839">
        <ele>414</ele>
        <time>2015-09-06T09:08:36Z</time>
      </trkpt>
      <trkpt lat="45.8553" lon="4.81836">
        <ele>414</ele>
        <time>2015-09-06T09:08:38Z</time>
      </trkpt>
      <trkpt lat="45.85527" lon="4.81831">
        <ele>416</ele>
        <time>2015-09-06T09:08:42Z</time>
      </trkpt>
      <trkpt lat="45.85525" lon="4.81826">
        <ele>415</ele>
        <time>2015-09-06T09:08:45Z</time>
      </trkpt>
      <trkpt lat="45.85522" lon="4.81818">
        <ele>415</ele>
        <time>2015-09-06T09:08:51Z</time>
      </trkpt>
      <trkpt lat="45.85522" lon="4.81817">
        <ele>416</ele>
        <time>2015-09-06T09:08:52Z</time>
      </trkpt>
      <trkpt lat="45.85525" lon="4.81808">
        <ele>416</ele>
        <time>2015-09-06T09:08:59Z</time>
      </trkpt>
      <trkpt lat="45.85529" lon="4.81807">
        <ele>417</ele>
        <time>2015-09-06T09:09:05Z</time>
      </trkpt>
      <trkpt lat="45.85531" lon="4.81802">
        <ele>417</ele>
        <time>2015-09-06T09:09:10Z</time>
      </trkpt>
      <trkpt lat="45.8553" lon="4.818">
        <ele>417</ele>
        <time>2015-09-06T09:09:11Z</time>
      </trkpt>
      <trkpt lat="45.85529" lon="4.81799">
        <ele>417</ele>
        <time>2015-09-06T09:09:12Z</time>
      </trkpt>
      <trkpt lat="45.85526" lon="4.81793">
        <ele>417</ele>
        <time>2015-09-06T09:09:16Z</time>
      </trkpt>
      <trkpt lat="45.85523" lon="4.8179">
        <ele>417</ele>
        <time>2015-09-06T09:09:18Z</time>
      </trkpt>
      <trkpt lat="45.8552" lon="4.81787">
        <ele>417</ele>
        <time>2015-09-06T09:09:21Z</time>
      </trkpt>
      <trkpt lat="45.8552" lon="4.81787">
        <ele>417</ele>
        <time>2015-09-06T09:09:22Z</time>
      </trkpt>
      <trkpt lat="45.85519" lon="4.81785">
        <ele>417</ele>
        <time>2015-09-06T09:09:23Z</time>
      </trkpt>
      <trkpt lat="45.85518" lon="4.81781">
        <ele>417</ele>
        <time>2015-09-06T09:09:25Z</time>
      </trkpt>
      <trkpt lat="45.85517" lon="4.81779">
        <ele>417</ele>
        <time>2015-09-06T09:09:26Z</time>
      </trkpt>
      <trkpt lat="45.85516" lon="4.81776">
        <ele>417</ele>
        <time>2015-09-06T09:09:28Z</time>
      </trkpt>
      <trkpt lat="45.85519" lon="4.81773">
        <ele>417</ele>
        <time>2015-09-06T09:09:32Z</time>
      </trkpt>
      <trkpt lat="45.85527" lon="4.81769">
        <ele>418</ele>
        <time>2015-09-06T09:09:39Z</time>
      </trkpt>
      <trkpt lat="45.85527" lon="4.81767">
        <ele>418</ele>
        <time>2015-09-06T09:09:40Z</time>
      </trkpt>
      <trkpt lat="45.85529" lon="4.81764">
        <ele>418</ele>
        <time>2015-09-06T09:09:42Z</time>
      </trkpt>
      <trkpt lat="45.85536" lon="4.81752">
        <ele>418</ele>
        <time>2015-09-06T09:09:50Z</time>
      </trkpt>
      <trkpt lat="45.85536" lon="4.81748">
        <ele>419</ele>
        <time>2015-09-06T09:09:52Z</time>
      </trkpt>
      <trkpt lat="45.85535" lon="4.81744">
        <ele>419</ele>
        <time>2015-09-06T09:09:55Z</time>
      </trkpt>
      <trkpt lat="45.85534" lon="4.81742">
        <ele>419</ele>
        <time>2015-09-06T09:09:56Z</time>
      </trkpt>
      <trkpt lat="45.85527" lon="4.81736">
        <ele>419</ele>
        <time>2015-09-06T09:10:02Z</time>
      </trkpt>
      <trkpt lat="45.85521" lon="4.81726">
        <ele>420</ele>
        <time>2015-09-06T09:10:09Z</time>
      </trkpt>
      <trkpt lat="45.85519" lon="4.81723">
        <ele>420</ele>
        <time>2015-09-06T09:10:11Z</time>
      </trkpt>
      <trkpt lat="45.85517" lon="4.81719">
        <ele>420</ele>
        <time>2015-09-06T09:10:14Z</time>
      </trkpt>
      <trkpt lat="45.85515" lon="4.81716">
        <ele>420</ele>
        <time>2015-09-06T09:10:16Z</time>
      </trkpt>
      <trkpt lat="45.85512" lon="4.81711">
        <ele>420</ele>
        <time>2015-09-06T09:10:19Z</time>
      </trkpt>
      <trkpt lat="45.8551" lon="4.81706">
        <ele>420</ele>
        <time>2015-09-06T09:10:22Z</time>
      </trkpt>
      <trkpt lat="45.85508" lon="4.81702">
        <ele>421</ele>
        <time>2015-09-06T09:10:24Z</time>
      </trkpt>
      <trkpt lat="45.85507" lon="4.817">
        <ele>421</ele>
        <time>2015-09-06T09:10:25Z</time>
      </trkpt>
      <trkpt lat="45.85504" lon="4.81696">
        <ele>421</ele>
        <time>2015-09-06T09:10:28Z</time>
      </trkpt>
      <trkpt lat="45.85501" lon="4.81688">
        <ele>422</ele>
        <time>2015-09-06T09:10:32Z</time>
      </trkpt>
      <trkpt lat="45.855" lon="4.81685">
        <ele>424</ele>
        <time>2015-09-06T09:10:34Z</time>
      </trkpt>
      <trkpt lat="45.85497" lon="4.8168">
        <ele>424</ele>
        <time>2015-09-06T09:10:37Z</time>
      </trkpt>
      <trkpt lat="45.85495" lon="4.81676">
        <ele>424</ele>
        <time>2015-09-06T09:10:40Z</time>
      </trkpt>
      <trkpt lat="45.85489" lon="4.81667">
        <ele>427</ele>
        <time>2015-09-06T09:10:48Z</time>
      </trkpt>
      <trkpt lat="45.85485" lon="4.81661">
        <ele>427</ele>
        <time>2015-09-06T09:10:53Z</time>
      </trkpt>
      <trkpt lat="45.85481" lon="4.81654">
        <ele>428</ele>
        <time>2015-09-06T09:10:58Z</time>
      </trkpt>
      <trkpt lat="45.85472" lon="4.81641">
        <ele>429</ele>
        <time>2015-09-06T09:11:08Z</time>
      </trkpt>
      <trkpt lat="45.85471" lon="4.8164">
        <ele>429</ele>
        <time>2015-09-06T09:11:09Z</time>
      </trkpt>
      <trkpt lat="45.85464" lon="4.8163">
        <ele>430</ele>
        <time>2015-09-06T09:11:17Z</time>
      </trkpt>
      <trkpt lat="45.8546" lon="4.81622">
        <ele>430</ele>
        <time>2015-09-06T09:11:23Z</time>
      </trkpt>
      <trkpt lat="45.85459" lon="4.81619">
        <ele>430</ele>
        <time>2015-09-06T09:11:25Z</time>
      </trkpt>
      <trkpt lat="45.85458" lon="4.81616">
        <ele>431</ele>
        <time>2015-09-06T09:11:27Z</time>
      </trkpt>
      <trkpt lat="45.85457" lon="4.81607">
        <ele>431</ele>
        <time>2015-09-06T09:11:32Z</time>
      </trkpt>
      <trkpt lat="45.85455" lon="4.81605">
        <ele>431</ele>
        <time>2015-09-06T09:11:36Z</time>
      </trkpt>
      <trkpt lat="45.85454" lon="4.81603">
        <ele>431</ele>
        <time>2015-09-06T09:11:38Z</time>
      </trkpt>
      <trkpt lat="45.85455" lon="4.81599">
        <ele>431</ele>
        <time>2015-09-06T09:11:41Z</time>
      </trkpt>
      <trkpt lat="45.85455" lon="4.81598">
        <ele>431</ele>
        <time>2015-09-06T09:11:42Z</time>
      </trkpt>
      <trkpt lat="45.85459" lon="4.81592">
        <ele>431</ele>
        <time>2015-09-06T09:11:48Z</time>
      </trkpt>
      <trkpt lat="45.85455" lon="4.81585">
        <ele>432</ele>
        <time>2015-09-06T09:11:54Z</time>
      </trkpt>
      <trkpt lat="45.85456" lon="4.81583">
        <ele>432</ele>
        <time>2015-09-06T09:11:56Z</time>
      </trkpt>
      <trkpt lat="45.85456" lon="4.81576">
        <ele>435</ele>
        <time>2015-09-06T09:12:02Z</time>
      </trkpt>
      <trkpt lat="45.85455" lon="4.81571">
        <ele>435</ele>
        <time>2015-09-06T09:12:04Z</time>
      </trkpt>
      <trkpt lat="45.85455" lon="4.81565">
        <ele>435</ele>
        <time>2015-09-06T09:12:08Z</time>
      </trkpt>
      <trkpt lat="45.85459" lon="4.81555">
        <ele>435</ele>
        <time>2015-09-06T09:12:16Z</time>
      </trkpt>
      <trkpt lat="45.85464" lon="4.8155">
        <ele>434</ele>
        <time>2015-09-06T09:12:20Z</time>
      </trkpt>
      <trkpt lat="45.85465" lon="4.81548">
        <ele>434</ele>
        <time>2015-09-06T09:12:21Z</time>
      </trkpt>
      <trkpt lat="45.85467" lon="4.81545">
        <ele>434</ele>
        <time>2015-09-06T09:12:23Z</time>
      </trkpt>
      <trkpt lat="45.85469" lon="4.81541">
        <ele>434</ele>
        <time>2015-09-06T09:12:25Z</time>
      </trkpt>
      <trkpt lat="45.8547" lon="4.81531">
        <ele>434</ele>
        <time>2015-09-06T09:12:30Z</time>
      </trkpt>
      <trkpt lat="45.85469" lon="4.81526">
        <ele>434</ele>
        <time>2015-09-06T09:12:32Z</time>
      </trkpt>
      <trkpt lat="45.8547" lon="4.81524">
        <ele>434</ele>
        <time>2015-09-06T09:12:34Z</time>
      </trkpt>
      <trkpt lat="45.8547" lon="4.81521">
        <ele>434</ele>
        <time>2015-09-06T09:12:36Z</time>
      </trkpt>
      <trkpt lat="45.85469" lon="4.81509">
        <ele>434</ele>
        <time>2015-09-06T09:12:42Z</time>
      </trkpt>
      <trkpt lat="45.8547" lon="4.81505">
        <ele>434</ele>
        <time>2015-09-06T09:12:44Z</time>
      </trkpt>
      <trkpt lat="45.8547" lon="4.81497">
        <ele>436</ele>
        <time>2015-09-06T09:12:49Z</time>
      </trkpt>
      <trkpt lat="45.8547" lon="4.81495">
        <ele>436</ele>
        <time>2015-09-06T09:12:50Z</time>
      </trkpt>
      <trkpt lat="45.85471" lon="4.81495">
        <ele>436</ele>
        <time>2015-09-06T09:12:51Z</time>
      </trkpt>
      <trkpt lat="45.85472" lon="4.81494">
        <ele>436</ele>
        <time>2015-09-06T09:12:52Z</time>
      </trkpt>
      <trkpt lat="45.85474" lon="4.81491">
        <ele>435</ele>
        <time>2015-09-06T09:12:54Z</time>
      </trkpt>
      <trkpt lat="45.85475" lon="4.81489">
        <ele>435</ele>
        <time>2015-09-06T09:12:55Z</time>
      </trkpt>
      <trkpt lat="45.85478" lon="4.8148">
        <ele>435</ele>
        <time>2015-09-06T09:12:59Z</time>
      </trkpt>
      <trkpt lat="45.85478" lon="4.81472">
        <ele>436</ele>
        <time>2015-09-06T09:13:02Z</time>
      </trkpt>
      <trkpt lat="45.85477" lon="4.81459">
        <ele>436</ele>
        <time>2015-09-06T09:13:06Z</time>
      </trkpt>
      <trkpt lat="45.85475" lon="4.81445">
        <ele>436</ele>
        <time>2015-09-06T09:13:10Z</time>
      </trkpt>
      <trkpt lat="45.85475" lon="4.8144">
        <ele>436</ele>
        <time>2015-09-06T09:13:12Z</time>
      </trkpt>
      <trkpt lat="45.85475" lon="4.81435">
        <ele>436</ele>
        <time>2015-09-06T09:13:14Z</time>
      </trkpt>
      <trkpt lat="45.85476" lon="4.81429">
        <ele>435</ele>
        <time>2015-09-06T09:13:17Z</time>
      </trkpt>
      <trkpt lat="45.85474" lon="4.81418">
        <ele>435</ele>
        <time>2015-09-06T09:13:20Z</time>
      </trkpt>
      <trkpt lat="45.85474" lon="4.81408">
        <ele>438</ele>
        <time>2015-09-06T09:13:23Z</time>
      </trkpt>
      <trkpt lat="45.85474" lon="4.81405">
        <ele>438</ele>
        <time>2015-09-06T09:13:24Z</time>
      </trkpt>
      <trkpt lat="45.85477" lon="4.81396">
        <ele>438</ele>
        <time>2015-09-06T09:13:27Z</time>
      </trkpt>
      <trkpt lat="45.8548" lon="4.81391">
        <ele>438</ele>
        <time>2015-09-06T09:13:29Z</time>
      </trkpt>
      <trkpt lat="45.85484" lon="4.81388">
        <ele>438</ele>
        <time>2015-09-06T09:13:31Z</time>
      </trkpt>
      <trkpt lat="45.85486" lon="4.81387">
        <ele>438</ele>
        <time>2015-09-06T09:13:32Z</time>
      </trkpt>
      <trkpt lat="45.85492" lon="4.8138">
        <ele>438</ele>
        <time>2015-09-06T09:13:36Z</time>
      </trkpt>
      <trkpt lat="45.85495" lon="4.81375">
        <ele>438</ele>
        <time>2015-09-06T09:13:38Z</time>
      </trkpt>
      <trkpt lat="45.85507" lon="4.81365">
        <ele>431</ele>
        <time>2015-09-06T09:13:43Z</time>
      </trkpt>
      <trkpt lat="45.85512" lon="4.81359">
        <ele>431</ele>
        <time>2015-09-06T09:13:46Z</time>
      </trkpt>
      <trkpt lat="45.85514" lon="4.81352">
        <ele>432</ele>
        <time>2015-09-06T09:13:49Z</time>
      </trkpt>
      <trkpt lat="45.85515" lon="4.81344">
        <ele>432</ele>
        <time>2015-09-06T09:13:53Z</time>
      </trkpt>
      <trkpt lat="45.85515" lon="4.81341">
        <ele>433</ele>
        <time>2015-09-06T09:13:55Z</time>
      </trkpt>
      <trkpt lat="45.85514" lon="4.81335">
        <ele>433</ele>
        <time>2015-09-06T09:13:59Z</time>
      </trkpt>
      <trkpt lat="45.85508" lon="4.81329">
        <ele>434</ele>
        <time>2015-09-06T09:14:01Z</time>
      </trkpt>
      <trkpt lat="45.85503" lon="4.81323">
        <ele>434</ele>
        <time>2015-09-06T09:14:03Z</time>
      </trkpt>
      <trkpt lat="45.85498" lon="4.81318">
        <ele>440</ele>
        <time>2015-09-06T09:14:06Z</time>
      </trkpt>
      <trkpt lat="45.85492" lon="4.81309">
        <ele>441</ele>
        <time>2015-09-06T09:14:08Z</time>
      </trkpt>
      <trkpt lat="45.8549" lon="4.81306">
        <ele>441</ele>
        <time>2015-09-06T09:14:09Z</time>
      </trkpt>
      <trkpt lat="45.8548" lon="4.81296">
        <ele>442</ele>
        <time>2015-09-06T09:14:15Z</time>
      </trkpt>
      <trkpt lat="45.85478" lon="4.81294">
        <ele>442</ele>
        <time>2015-09-06T09:14:16Z</time>
      </trkpt>
      <trkpt lat="45.85473" lon="4.81289">
        <ele>442</ele>
        <time>2015-09-06T09:14:19Z</time>
      </trkpt>
      <trkpt lat="45.8547" lon="4.81286">
        <ele>442</ele>
        <time>2015-09-06T09:14:22Z</time>
      </trkpt>
      <trkpt lat="45.85466" lon="4.81284">
        <ele>443</ele>
        <time>2015-09-06T09:14:25Z</time>
      </trkpt>
      <trkpt lat="45.85464" lon="4.81282">
        <ele>443</ele>
        <time>2015-09-06T09:14:28Z</time>
      </trkpt>
      <trkpt lat="45.85463" lon="4.81282">
        <ele>443</ele>
        <time>2015-09-06T09:14:30Z</time>
      </trkpt>
      <trkpt lat="45.85462" lon="4.81282">
        <ele>443</ele>
        <time>2015-09-06T09:14:31Z</time>
      </trkpt>
      <trkpt lat="45.85461" lon="4.81282">
        <ele>443</ele>
        <time>2015-09-06T09:14:32Z</time>
      </trkpt>
      <trkpt lat="45.8546" lon="4.81281">
        <ele>443</ele>
        <time>2015-09-06T09:14:33Z</time>
      </trkpt>
      <trkpt lat="45.85458" lon="4.8128">
        <ele>444</ele>
        <time>2015-09-06T09:14:36Z</time>
      </trkpt>
      <trkpt lat="45.85456" lon="4.81279">
        <ele>444</ele>
        <time>2015-09-06T09:14:38Z</time>
      </trkpt>
      <trkpt lat="45.85449" lon="4.81274">
        <ele>445</ele>
        <time>2015-09-06T09:14:45Z</time>
      </trkpt>
      <trkpt lat="45.85442" lon="4.81274">
        <ele>446</ele>
        <time>2015-09-06T09:14:50Z</time>
      </trkpt>
      <trkpt lat="45.85441" lon="4.81273">
        <ele>446</ele>
        <time>2015-09-06T09:14:51Z</time>
      </trkpt>
      <trkpt lat="45.85436" lon="4.81272">
        <ele>447</ele>
        <time>2015-09-06T09:14:55Z</time>
      </trkpt>
      <trkpt lat="45.85434" lon="4.81271">
        <ele>447</ele>
        <time>2015-09-06T09:14:56Z</time>
      </trkpt>
      <trkpt lat="45.85433" lon="4.8127">
        <ele>447</ele>
        <time>2015-09-06T09:14:57Z</time>
      </trkpt>
      <trkpt lat="45.85432" lon="4.81269">
        <ele>447</ele>
        <time>2015-09-06T09:14:58Z</time>
      </trkpt>
      <trkpt lat="45.85428" lon="4.81265">
        <ele>448</ele>
        <time>2015-09-06T09:15:04Z</time>
      </trkpt>
      <trkpt lat="45.85424" lon="4.81266">
        <ele>448</ele>
        <time>2015-09-06T09:15:07Z</time>
      </trkpt>
      <trkpt lat="45.85422" lon="4.81267">
        <ele>449</ele>
        <time>2015-09-06T09:15:10Z</time>
      </trkpt>
      <trkpt lat="45.8542" lon="4.81267">
        <ele>449</ele>
        <time>2015-09-06T09:15:11Z</time>
      </trkpt>
      <trkpt lat="45.85416" lon="4.81267">
        <ele>456</ele>
        <time>2015-09-06T09:15:15Z</time>
      </trkpt>
      <trkpt lat="45.85408" lon="4.81264">
        <ele>456</ele>
        <time>2015-09-06T09:15:21Z</time>
      </trkpt>
      <trkpt lat="45.85404" lon="4.81263">
        <ele>456</ele>
        <time>2015-09-06T09:15:24Z</time>
      </trkpt>
      <trkpt lat="45.854" lon="4.81261">
        <ele>457</ele>
        <time>2015-09-06T09:15:28Z</time>
      </trkpt>
      <trkpt lat="45.85395" lon="4.81259">
        <ele>457</ele>
        <time>2015-09-06T09:15:34Z</time>
      </trkpt>
      <trkpt lat="45.85388" lon="4.8125">
        <ele>458</ele>
        <time>2015-09-06T09:15:41Z</time>
      </trkpt>
      <trkpt lat="45.85383" lon="4.81246">
        <ele>454</ele>
        <time>2015-09-06T09:15:46Z</time>
      </trkpt>
      <trkpt lat="45.85382" lon="4.81245">
        <ele>454</ele>
        <time>2015-09-06T09:15:47Z</time>
      </trkpt>
      <trkpt lat="45.85373" lon="4.81237">
        <ele>455</ele>
        <time>2015-09-06T09:15:54Z</time>
      </trkpt>
      <trkpt lat="45.85364" lon="4.81227">
        <ele>455</ele>
        <time>2015-09-06T09:16:01Z</time>
      </trkpt>
      <trkpt lat="45.85359" lon="4.8122">
        <ele>455</ele>
        <time>2015-09-06T09:16:07Z</time>
      </trkpt>
      <trkpt lat="45.85357" lon="4.81219">
        <ele>455</ele>
        <time>2015-09-06T09:16:09Z</time>
      </trkpt>
      <trkpt lat="45.85347" lon="4.81212">
        <ele>455</ele>
        <time>2015-09-06T09:16:17Z</time>
      </trkpt>
      <trkpt lat="45.85342" lon="4.81208">
        <ele>455</ele>
        <time>2015-09-06T09:16:21Z</time>
      </trkpt>
      <trkpt lat="45.85339" lon="4.81206">
        <ele>455</ele>
        <time>2015-09-06T09:16:23Z</time>
      </trkpt>
      <trkpt lat="45.85338" lon="4.81205">
        <ele>455</ele>
        <time>2015-09-06T09:16:24Z</time>
      </trkpt>
      <trkpt lat="45.85335" lon="4.81204">
        <ele>455</ele>
        <time>2015-09-06T09:16:27Z</time>
      </trkpt>
      <trkpt lat="45.85333" lon="4.81203">
        <ele>455</ele>
        <time>2015-09-06T09:16:28Z</time>
      </trkpt>
      <trkpt lat="45.85329" lon="4.81201">
        <ele>464</ele>
        <time>2015-09-06T09:16:31Z</time>
      </trkpt>
      <trkpt lat="45.85325" lon="4.81198">
        <ele>463</ele>
        <time>2015-09-06T09:16:34Z</time>
      </trkpt>
      <trkpt lat="45.85322" lon="4.81196">
        <ele>463</ele>
        <time>2015-09-06T09:16:37Z</time>
      </trkpt>
      <trkpt lat="45.85316" lon="4.81193">
        <ele>463</ele>
        <time>2015-09-06T09:16:41Z</time>
      </trkpt>
      <trkpt lat="45.8531" lon="4.81188">
        <ele>464</ele>
        <time>2015-09-06T09:16:46Z</time>
      </trkpt>
      <trkpt lat="45.85309" lon="4.81187">
        <ele>464</ele>
        <time>2015-09-06T09:16:47Z</time>
      </trkpt>
      <trkpt lat="45.85302" lon="4.81181">
        <ele>464</ele>
        <time>2015-09-06T09:16:51Z</time>
      </trkpt>
      <trkpt lat="45.85294" lon="4.81172">
        <ele>465</ele>
        <time>2015-09-06T09:16:56Z</time>
      </trkpt>
      <trkpt lat="45.85292" lon="4.81169">
        <ele>465</ele>
        <time>2015-09-06T09:16:57Z</time>
      </trkpt>
      <trkpt lat="45.85285" lon="4.8116">
        <ele>461</ele>
        <time>2015-09-06T09:17:01Z</time>
      </trkpt>
      <trkpt lat="45.85284" lon="4.81159">
        <ele>461</ele>
        <time>2015-09-06T09:17:02Z</time>
      </trkpt>
      <trkpt lat="45.8528" lon="4.81153">
        <ele>461</ele>
        <time>2015-09-06T09:17:04Z</time>
      </trkpt>
      <trkpt lat="45.85277" lon="4.8115">
        <ele>461</ele>
        <time>2015-09-06T09:17:06Z</time>
      </trkpt>
      <trkpt lat="45.85268" lon="4.81139">
        <ele>462</ele>
        <time>2015-09-06T09:17:11Z</time>
      </trkpt>
      <trkpt lat="45.85266" lon="4.81137">
        <ele>462</ele>
        <time>2015-09-06T09:17:12Z</time>
      </trkpt>
      <trkpt lat="45.85264" lon="4.81134">
        <ele>462</ele>
        <time>2015-09-06T09:17:13Z</time>
      </trkpt>
      <trkpt lat="45.85255" lon="4.81122">
        <ele>462</ele>
        <time>2015-09-06T09:17:19Z</time>
      </trkpt>
      <trkpt lat="45.85253" lon="4.8112">
        <ele>462</ele>
        <time>2015-09-06T09:17:20Z</time>
      </trkpt>
      <trkpt lat="45.85252" lon="4.81118">
        <ele>462</ele>
        <time>2015-09-06T09:17:21Z</time>
      </trkpt>
      <trkpt lat="45.85249" lon="4.81115">
        <ele>471</ele>
        <time>2015-09-06T09:17:23Z</time>
      </trkpt>
      <trkpt lat="45.8524" lon="4.81108">
        <ele>471</ele>
        <time>2015-09-06T09:17:27Z</time>
      </trkpt>
      <trkpt lat="45.85238" lon="4.81106">
        <ele>471</ele>
        <time>2015-09-06T09:17:28Z</time>
      </trkpt>
      <trkpt lat="45.85236" lon="4.81103">
        <ele>471</ele>
        <time>2015-09-06T09:17:29Z</time>
      </trkpt>
      <trkpt lat="45.85231" lon="4.81098">
        <ele>471</ele>
        <time>2015-09-06T09:17:32Z</time>
      </trkpt>
      <trkpt lat="45.85229" lon="4.81095">
        <ele>471</ele>
        <time>2015-09-06T09:17:33Z</time>
      </trkpt>
      <trkpt lat="45.85224" lon="4.81092">
        <ele>472</ele>
        <time>2015-09-06T09:17:36Z</time>
      </trkpt>
      <trkpt lat="45.85219" lon="4.81089">
        <ele>472</ele>
        <time>2015-09-06T09:17:39Z</time>
      </trkpt>
      <trkpt lat="45.85211" lon="4.81082">
        <ele>470</ele>
        <time>2015-09-06T09:17:46Z</time>
      </trkpt>
      <trkpt lat="45.85204" lon="4.81074">
        <ele>471</ele>
        <time>2015-09-06T09:17:51Z</time>
      </trkpt>
      <trkpt lat="45.85203" lon="4.81073">
        <ele>471</ele>
        <time>2015-09-06T09:17:52Z</time>
      </trkpt>
      <trkpt lat="45.85197" lon="4.81065">
        <ele>471</ele>
        <time>2015-09-06T09:17:58Z</time>
      </trkpt>
      <trkpt lat="45.85191" lon="4.8106">
        <ele>472</ele>
        <time>2015-09-06T09:18:05Z</time>
      </trkpt>
      <trkpt lat="45.85189" lon="4.81059">
        <ele>472</ele>
        <time>2015-09-06T09:18:06Z</time>
      </trkpt>
      <trkpt lat="45.85184" lon="4.8105">
        <ele>472</ele>
        <time>2015-09-06T09:18:11Z</time>
      </trkpt>
      <trkpt lat="45.85183" lon="4.81048">
        <ele>472</ele>
        <time>2015-09-06T09:18:12Z</time>
      </trkpt>
      <trkpt lat="45.85182" lon="4.81047">
        <ele>472</ele>
        <time>2015-09-06T09:18:13Z</time>
      </trkpt>
      <trkpt lat="45.8518" lon="4.81042">
        <ele>472</ele>
        <time>2015-09-06T09:18:16Z</time>
      </trkpt>
      <trkpt lat="45.85177" lon="4.81037">
        <ele>472</ele>
        <time>2015-09-06T09:18:18Z</time>
      </trkpt>
      <trkpt lat="45.85175" lon="4.81031">
        <ele>472</ele>
        <time>2015-09-06T09:18:22Z</time>
      </trkpt>
      <trkpt lat="45.85174" lon="4.81029">
        <ele>472</ele>
        <time>2015-09-06T09:18:23Z</time>
      </trkpt>
      <trkpt lat="45.85168" lon="4.81016">
        <ele>473</ele>
        <time>2015-09-06T09:18:28Z</time>
      </trkpt>
      <trkpt lat="45.8516" lon="4.81005">
        <ele>479</ele>
        <time>2015-09-06T09:18:33Z</time>
      </trkpt>
      <trkpt lat="45.85153" lon="4.80998">
        <ele>478</ele>
        <time>2015-09-06T09:18:36Z</time>
      </trkpt>
      <trkpt lat="45.85148" lon="4.80993">
        <ele>478</ele>
        <time>2015-09-06T09:18:39Z</time>
      </trkpt>
      <trkpt lat="45.85139" lon="4.80985">
        <ele>478</ele>
        <time>2015-09-06T09:18:44Z</time>
      </trkpt>
      <trkpt lat="45.85138" lon="4.80984">
        <ele>478</ele>
        <time>2015-09-06T09:18:45Z</time>
      </trkpt>
      <trkpt lat="45.85127" lon="4.80976">
        <ele>478</ele>
        <time>2015-09-06T09:18:50Z</time>
      </trkpt>
      <trkpt lat="45.85122" lon="4.80968">
        <ele>479</ele>
        <time>2015-09-06T09:18:54Z</time>
      </trkpt>
      <trkpt lat="45.8512" lon="4.80965">
        <ele>479</ele>
        <time>2015-09-06T09:18:56Z</time>
      </trkpt>
      <trkpt lat="45.85112" lon="4.80956">
        <ele>479</ele>
        <time>2015-09-06T09:19:03Z</time>
      </trkpt>
      <trkpt lat="45.85108" lon="4.80948">
        <ele>479</ele>
        <time>2015-09-06T09:19:08Z</time>
      </trkpt>
      <trkpt lat="45.85107" lon="4.80945">
        <ele>480</ele>
        <time>2015-09-06T09:19:10Z</time>
      </trkpt>
      <trkpt lat="45.85102" lon="4.80944">
        <ele>480</ele>
        <time>2015-09-06T09:19:13Z</time>
      </trkpt>
      <trkpt lat="45.851" lon="4.80946">
        <ele>480</ele>
        <time>2015-09-06T09:19:15Z</time>
      </trkpt>
      <trkpt lat="45.85097" lon="4.80949">
        <ele>480</ele>
        <time>2015-09-06T09:19:17Z</time>
      </trkpt>
      <trkpt lat="45.85091" lon="4.8095">
        <ele>481</ele>
        <time>2015-09-06T09:19:20Z</time>
      </trkpt>
      <trkpt lat="45.85089" lon="4.8095">
        <ele>481</ele>
        <time>2015-09-06T09:19:21Z</time>
      </trkpt>
      <trkpt lat="45.85083" lon="4.8095">
        <ele>481</ele>
        <time>2015-09-06T09:19:25Z</time>
      </trkpt>
      <trkpt lat="45.85084" lon="4.80953">
        <ele>481</ele>
        <time>2015-09-06T09:19:31Z</time>
      </trkpt>
      <trkpt lat="45.85085" lon="4.80955">
        <ele>481</ele>
        <time>2015-09-06T09:19:33Z</time>
      </trkpt>
      <trkpt lat="45.85088" lon="4.80957">
        <ele>481</ele>
        <time>2015-09-06T09:19:36Z</time>
      </trkpt>
      <trkpt lat="45.85089" lon="4.8095">
        <ele>481</ele>
        <time>2015-09-06T09:19:41Z</time>
      </trkpt>
      <trkpt lat="45.85089" lon="4.80949">
        <ele>481</ele>
        <time>2015-09-06T09:19:42Z</time>
      </trkpt>
      <trkpt lat="45.85088" lon="4.80945">
        <ele>481</ele>
        <time>2015-09-06T09:19:44Z</time>
      </trkpt>
      <trkpt lat="45.85083" lon="4.80935">
        <ele>486</ele>
        <time>2015-09-06T09:19:49Z</time>
      </trkpt>
      <trkpt lat="45.85082" lon="4.80931">
        <ele>487</ele>
        <time>2015-09-06T09:19:52Z</time>
      </trkpt>
      <trkpt lat="45.85082" lon="4.80929">
        <ele>487</ele>
        <time>2015-09-06T09:19:54Z</time>
      </trkpt>
      <trkpt lat="45.85083" lon="4.80927">
        <ele>487</ele>
        <time>2015-09-06T09:19:56Z</time>
      </trkpt>
      <trkpt lat="45.85084" lon="4.80926">
        <ele>484</ele>
        <time>2015-09-06T09:19:58Z</time>
      </trkpt>
      <trkpt lat="45.85084" lon="4.80925">
        <ele>484</ele>
        <time>2015-09-06T09:19:59Z</time>
      </trkpt>
      <trkpt lat="45.85083" lon="4.80921">
        <ele>487</ele>
        <time>2015-09-06T09:20:01Z</time>
      </trkpt>
      <trkpt lat="45.8508" lon="4.80917">
        <ele>487</ele>
        <time>2015-09-06T09:20:03Z</time>
      </trkpt>
      <trkpt lat="45.85074" lon="4.80907">
        <ele>487</ele>
        <time>2015-09-06T09:20:07Z</time>
      </trkpt>
      <trkpt lat="45.85072" lon="4.80904">
        <ele>487</ele>
        <time>2015-09-06T09:20:08Z</time>
      </trkpt>
      <trkpt lat="45.85063" lon="4.80887">
        <ele>486</ele>
        <time>2015-09-06T09:20:14Z</time>
      </trkpt>
      <trkpt lat="45.85061" lon="4.80884">
        <ele>486</ele>
        <time>2015-09-06T09:20:15Z</time>
      </trkpt>
      <trkpt lat="45.85054" lon="4.80873">
        <ele>486</ele>
        <time>2015-09-06T09:20:19Z</time>
      </trkpt>
      <trkpt lat="45.85049" lon="4.80865">
        <ele>486</ele>
        <time>2015-09-06T09:20:22Z</time>
      </trkpt>
      <trkpt lat="45.85046" lon="4.8086">
        <ele>486</ele>
        <time>2015-09-06T09:20:24Z</time>
      </trkpt>
      <trkpt lat="45.85038" lon="4.80847">
        <ele>487</ele>
        <time>2015-09-06T09:20:29Z</time>
      </trkpt>
      <trkpt lat="45.85036" lon="4.80844">
        <ele>487</ele>
        <time>2015-09-06T09:20:30Z</time>
      </trkpt>
      <trkpt lat="45.85031" lon="4.80833">
        <ele>483</ele>
        <time>2015-09-06T09:20:34Z</time>
      </trkpt>
      <trkpt lat="45.8503" lon="4.80831">
        <ele>484</ele>
        <time>2015-09-06T09:20:35Z</time>
      </trkpt>
      <trkpt lat="45.85026" lon="4.80824">
        <ele>484</ele>
        <time>2015-09-06T09:20:38Z</time>
      </trkpt>
      <trkpt lat="45.85024" lon="4.80821">
        <ele>484</ele>
        <time>2015-09-06T09:20:39Z</time>
      </trkpt>
      <trkpt lat="45.85014" lon="4.80802">
        <ele>484</ele>
        <time>2015-09-06T09:20:45Z</time>
      </trkpt>
      <trkpt lat="45.85004" lon="4.80786">
        <ele>483</ele>
        <time>2015-09-06T09:20:51Z</time>
      </trkpt>
      <trkpt lat="45.85001" lon="4.8078">
        <ele>483</ele>
        <time>2015-09-06T09:20:53Z</time>
      </trkpt>
      <trkpt lat="45.84995" lon="4.80771">
        <ele>491</ele>
        <time>2015-09-06T09:20:56Z</time>
      </trkpt>
      <trkpt lat="45.84988" lon="4.80761">
        <ele>490</ele>
        <time>2015-09-06T09:21:00Z</time>
      </trkpt>
      <trkpt lat="45.84986" lon="4.80755">
        <ele>490</ele>
        <time>2015-09-06T09:21:02Z</time>
      </trkpt>
      <trkpt lat="45.8498" lon="4.80739">
        <ele>488</ele>
        <time>2015-09-06T09:21:07Z</time>
      </trkpt>
      <trkpt lat="45.84979" lon="4.80736">
        <ele>488</ele>
        <time>2015-09-06T09:21:08Z</time>
      </trkpt>
      <trkpt lat="45.84973" lon="4.8072">
        <ele>488</ele>
        <time>2015-09-06T09:21:13Z</time>
      </trkpt>
      <trkpt lat="45.84971" lon="4.80712">
        <ele>487</ele>
        <time>2015-09-06T09:21:15Z</time>
      </trkpt>
      <trkpt lat="45.84965" lon="4.80697">
        <ele>487</ele>
        <time>2015-09-06T09:21:19Z</time>
      </trkpt>
      <trkpt lat="45.84962" lon="4.80687">
        <ele>487</ele>
        <time>2015-09-06T09:21:22Z</time>
      </trkpt>
      <trkpt lat="45.84957" lon="4.8068">
        <ele>488</ele>
        <time>2015-09-06T09:21:25Z</time>
      </trkpt>
      <trkpt lat="45.84947" lon="4.80669">
        <ele>489</ele>
        <time>2015-09-06T09:21:31Z</time>
      </trkpt>
      <trkpt lat="45.84937" lon="4.80664">
        <ele>488</ele>
        <time>2015-09-06T09:21:36Z</time>
      </trkpt>
      <trkpt lat="45.8493" lon="4.80661">
        <ele>490</ele>
        <time>2015-09-06T09:21:39Z</time>
      </trkpt>
      <trkpt lat="45.84926" lon="4.8066">
        <ele>491</ele>
        <time>2015-09-06T09:21:41Z</time>
      </trkpt>
      <trkpt lat="45.84924" lon="4.8066">
        <ele>492</ele>
        <time>2015-09-06T09:21:42Z</time>
      </trkpt>
      <trkpt lat="45.84917" lon="4.80655">
        <ele>491</ele>
        <time>2015-09-06T09:21:46Z</time>
      </trkpt>
      <trkpt lat="45.84915" lon="4.80654">
        <ele>496</ele>
        <time>2015-09-06T09:21:47Z</time>
      </trkpt>
      <trkpt lat="45.84913" lon="4.80652">
        <ele>496</ele>
        <time>2015-09-06T09:21:48Z</time>
      </trkpt>
      <trkpt lat="45.84902" lon="4.80644">
        <ele>497</ele>
        <time>2015-09-06T09:21:53Z</time>
      </trkpt>
      <trkpt lat="45.84896" lon="4.80641">
        <ele>497</ele>
        <time>2015-09-06T09:21:56Z</time>
      </trkpt>
      <trkpt lat="45.84885" lon="4.80638">
        <ele>497</ele>
        <time>2015-09-06T09:22:00Z</time>
      </trkpt>
      <trkpt lat="45.84876" lon="4.80634">
        <ele>497</ele>
        <time>2015-09-06T09:22:04Z</time>
      </trkpt>
      <trkpt lat="45.84868" lon="4.80633">
        <ele>497</ele>
        <time>2015-09-06T09:22:07Z</time>
      </trkpt>
      <trkpt lat="45.84857" lon="4.80634">
        <ele>497</ele>
        <time>2015-09-06T09:22:11Z</time>
      </trkpt>
      <trkpt lat="45.8485" lon="4.80631">
        <ele>497</ele>
        <time>2015-09-06T09:22:14Z</time>
      </trkpt>
      <trkpt lat="45.84838" lon="4.8063">
        <ele>498</ele>
        <time>2015-09-06T09:22:18Z</time>
      </trkpt>
      <trkpt lat="45.84828" lon="4.80629">
        <ele>498</ele>
        <time>2015-09-06T09:22:22Z</time>
      </trkpt>
      <trkpt lat="45.8482" lon="4.80628">
        <ele>498</ele>
        <time>2015-09-06T09:22:25Z</time>
      </trkpt>
      <trkpt lat="45.8481" lon="4.80628">
        <ele>498</ele>
        <time>2015-09-06T09:22:28Z</time>
      </trkpt>
      <trkpt lat="45.84802" lon="4.80627">
        <ele>498</ele>
        <time>2015-09-06T09:22:31Z</time>
      </trkpt>
      <trkpt lat="45.84791" lon="4.80625">
        <ele>498</ele>
        <time>2015-09-06T09:22:35Z</time>
      </trkpt>
      <trkpt lat="45.84782" lon="4.80623">
        <ele>498</ele>
        <time>2015-09-06T09:22:38Z</time>
      </trkpt>
      <trkpt lat="45.84777" lon="4.80623">
        <ele>498</ele>
        <time>2015-09-06T09:22:40Z</time>
      </trkpt>
      <trkpt lat="45.84769" lon="4.80624">
        <ele>498</ele>
        <time>2015-09-06T09:22:44Z</time>
      </trkpt>
      <trkpt lat="45.84762" lon="4.80623">
        <ele>498</ele>
        <time>2015-09-06T09:22:47Z</time>
      </trkpt>
      <trkpt lat="45.84757" lon="4.80623">
        <ele>498</ele>
        <time>2015-09-06T09:22:49Z</time>
      </trkpt>
      <trkpt lat="45.84745" lon="4.80628">
        <ele>496</ele>
        <time>2015-09-06T09:22:54Z</time>
      </trkpt>
      <trkpt lat="45.84743" lon="4.80629">
        <ele>496</ele>
        <time>2015-09-06T09:22:55Z</time>
      </trkpt>
      <trkpt lat="45.8473" lon="4.8063">
        <ele>496</ele>
        <time>2015-09-06T09:23:00Z</time>
      </trkpt>
      <trkpt lat="45.84723" lon="4.80631">
        <ele>496</ele>
        <time>2015-09-06T09:23:03Z</time>
      </trkpt>
      <trkpt lat="45.84713" lon="4.80631">
        <ele>496</ele>
        <time>2015-09-06T09:23:07Z</time>
      </trkpt>
      <trkpt lat="45.84704" lon="4.80633">
        <ele>495</ele>
        <time>2015-09-06T09:23:10Z</time>
      </trkpt>
      <trkpt lat="45.84696" lon="4.80636">
        <ele>495</ele>
        <time>2015-09-06T09:23:13Z</time>
      </trkpt>
      <trkpt lat="45.84685" lon="4.80641">
        <ele>495</ele>
        <time>2015-09-06T09:23:17Z</time>
      </trkpt>
      <trkpt lat="45.84682" lon="4.80641">
        <ele>495</ele>
        <time>2015-09-06T09:23:18Z</time>
      </trkpt>
      <trkpt lat="45.84675" lon="4.80638">
        <ele>495</ele>
        <time>2015-09-06T09:23:21Z</time>
      </trkpt>
      <trkpt lat="45.84673" lon="4.80639">
        <ele>495</ele>
        <time>2015-09-06T09:23:22Z</time>
      </trkpt>
      <trkpt lat="45.84665" lon="4.80638">
        <ele>493</ele>
        <time>2015-09-06T09:23:25Z</time>
      </trkpt>
      <trkpt lat="45.84653" lon="4.80635">
        <ele>493</ele>
        <time>2015-09-06T09:23:30Z</time>
      </trkpt>
      <trkpt lat="45.84647" lon="4.80634">
        <ele>493</ele>
        <time>2015-09-06T09:23:32Z</time>
      </trkpt>
      <trkpt lat="45.84639" lon="4.80632">
        <ele>493</ele>
        <time>2015-09-06T09:23:36Z</time>
      </trkpt>
      <trkpt lat="45.84628" lon="4.80632">
        <ele>492</ele>
        <time>2015-09-06T09:23:40Z</time>
      </trkpt>
      <trkpt lat="45.84622" lon="4.80632">
        <ele>492</ele>
        <time>2015-09-06T09:23:43Z</time>
      </trkpt>
      <trkpt lat="45.84611" lon="4.80628">
        <ele>492</ele>
        <time>2015-09-06T09:23:47Z</time>
      </trkpt>
      <trkpt lat="45.84608" lon="4.80627">
        <ele>492</ele>
        <time>2015-09-06T09:23:48Z</time>
      </trkpt>
      <trkpt lat="45.84597" lon="4.80618">
        <ele>492</ele>
        <time>2015-09-06T09:23:54Z</time>
      </trkpt>
      <trkpt lat="45.84596" lon="4.80615">
        <ele>492</ele>
        <time>2015-09-06T09:23:55Z</time>
      </trkpt>
      <trkpt lat="45.84589" lon="4.80602">
        <ele>493</ele>
        <time>2015-09-06T09:23:59Z</time>
      </trkpt>
      <trkpt lat="45.84585" lon="4.80591">
        <ele>494</ele>
        <time>2015-09-06T09:24:02Z</time>
      </trkpt>
      <trkpt lat="45.84583" lon="4.80585">
        <ele>494</ele>
        <time>2015-09-06T09:24:04Z</time>
      </trkpt>
      <trkpt lat="45.84575" lon="4.80568">
        <ele>497</ele>
        <time>2015-09-06T09:24:09Z</time>
      </trkpt>
      <trkpt lat="45.84563" lon="4.80556">
        <ele>499</ele>
        <time>2015-09-06T09:24:15Z</time>
      </trkpt>
      <trkpt lat="45.84559" lon="4.80553">
        <ele>499</ele>
        <time>2015-09-06T09:24:17Z</time>
      </trkpt>
      <trkpt lat="45.84554" lon="4.80552">
        <ele>499</ele>
        <time>2015-09-06T09:24:20Z</time>
      </trkpt>
      <trkpt lat="45.8454" lon="4.80559">
        <ele>499</ele>
        <time>2015-09-06T09:24:26Z</time>
      </trkpt>
      <trkpt lat="45.84527" lon="4.80569">
        <ele>498</ele>
        <time>2015-09-06T09:24:32Z</time>
      </trkpt>
      <trkpt lat="45.84523" lon="4.80571">
        <ele>498</ele>
        <time>2015-09-06T09:24:34Z</time>
      </trkpt>
      <trkpt lat="45.84521" lon="4.80574">
        <ele>497</ele>
        <time>2015-09-06T09:24:35Z</time>
      </trkpt>
      <trkpt lat="45.84518" lon="4.80576">
        <ele>497</ele>
        <time>2015-09-06T09:24:37Z</time>
      </trkpt>
      <trkpt lat="45.84513" lon="4.80578">
        <ele>496</ele>
        <time>2015-09-06T09:24:39Z</time>
      </trkpt>
      <trkpt lat="45.84505" lon="4.8058">
        <ele>495</ele>
        <time>2015-09-06T09:24:42Z</time>
      </trkpt>
      <trkpt lat="45.84503" lon="4.80581">
        <ele>494</ele>
        <time>2015-09-06T09:24:43Z</time>
      </trkpt>
      <trkpt lat="45.84491" lon="4.80584">
        <ele>492</ele>
        <time>2015-09-06T09:24:48Z</time>
      </trkpt>
      <trkpt lat="45.84487" lon="4.80584">
        <ele>491</ele>
        <time>2015-09-06T09:24:50Z</time>
      </trkpt>
      <trkpt lat="45.8448" lon="4.80583">
        <ele>497</ele>
        <time>2015-09-06T09:24:53Z</time>
      </trkpt>
      <trkpt lat="45.84468" lon="4.80585">
        <ele>491</ele>
        <time>2015-09-06T09:24:58Z</time>
      </trkpt>
      <trkpt lat="45.84466" lon="4.80585">
        <ele>491</ele>
        <time>2015-09-06T09:24:59Z</time>
      </trkpt>
      <trkpt lat="45.84453" lon="4.80578">
        <ele>499</ele>
        <time>2015-09-06T09:25:06Z</time>
      </trkpt>
      <trkpt lat="45.84445" lon="4.80579">
        <ele>499</ele>
        <time>2015-09-06T09:25:10Z</time>
      </trkpt>
      <trkpt lat="45.8444" lon="4.8058">
        <ele>499</ele>
        <time>2015-09-06T09:25:12Z</time>
      </trkpt>
      <trkpt lat="45.84428" lon="4.80577">
        <ele>498</ele>
        <time>2015-09-06T09:25:19Z</time>
      </trkpt>
      <trkpt lat="45.84426" lon="4.80576">
        <ele>498</ele>
        <time>2015-09-06T09:25:21Z</time>
      </trkpt>
      <trkpt lat="45.84418" lon="4.80575">
        <ele>498</ele>
        <time>2015-09-06T09:25:26Z</time>
      </trkpt>
      <trkpt lat="45.84408" lon="4.80574">
        <ele>498</ele>
        <time>2015-09-06T09:25:32Z</time>
      </trkpt>
      <trkpt lat="45.84406" lon="4.80573">
        <ele>499</ele>
        <time>2015-09-06T09:25:34Z</time>
      </trkpt>
      <trkpt lat="45.84401" lon="4.8057">
        <ele>499</ele>
        <time>2015-09-06T09:25:37Z</time>
      </trkpt>
      <trkpt lat="45.8439" lon="4.80562">
        <ele>499</ele>
        <time>2015-09-06T09:25:43Z</time>
      </trkpt>
      <trkpt lat="45.84388" lon="4.8056">
        <ele>500</ele>
        <time>2015-09-06T09:25:44Z</time>
      </trkpt>
      <trkpt lat="45.84382" lon="4.80554">
        <ele>500</ele>
        <time>2015-09-06T09:25:48Z</time>
      </trkpt>
      <trkpt lat="45.84377" lon="4.80553">
        <ele>500</ele>
        <time>2015-09-06T09:25:50Z</time>
      </trkpt>
      <trkpt lat="45.84372" lon="4.80552">
        <ele>500</ele>
        <time>2015-09-06T09:25:52Z</time>
      </trkpt>
      <trkpt lat="45.84368" lon="4.80551">
        <ele>500</ele>
        <time>2015-09-06T09:25:54Z</time>
      </trkpt>
      <trkpt lat="45.84355" lon="4.8055">
        <ele>500</ele>
        <time>2015-09-06T09:25:59Z</time>
      </trkpt>
      <trkpt lat="45.84353" lon="4.80551">
        <ele>500</ele>
        <time>2015-09-06T09:26:00Z</time>
      </trkpt>
      <trkpt lat="45.84343" lon="4.80553">
        <ele>499</ele>
        <time>2015-09-06T09:26:04Z</time>
      </trkpt>
      <trkpt lat="45.84333" lon="4.80557">
        <ele>498</ele>
        <time>2015-09-06T09:26:10Z</time>
      </trkpt>
      <trkpt lat="45.84319" lon="4.80563">
        <ele>497</ele>
        <time>2015-09-06T09:26:16Z</time>
      </trkpt>
      <trkpt lat="45.84314" lon="4.80565">
        <ele>497</ele>
        <time>2015-09-06T09:26:19Z</time>
      </trkpt>
      <trkpt lat="45.84308" lon="4.80567">
        <ele>497</ele>
        <time>2015-09-06T09:26:22Z</time>
      </trkpt>
      <trkpt lat="45.84295" lon="4.80571">
        <ele>497</ele>
        <time>2015-09-06T09:26:28Z</time>
      </trkpt>
      <trkpt lat="45.84293" lon="4.80572">
        <ele>497</ele>
        <time>2015-09-06T09:26:29Z</time>
      </trkpt>
      <trkpt lat="45.8428" lon="4.80579">
        <ele>496</ele>
        <time>2015-09-06T09:26:35Z</time>
      </trkpt>
      <trkpt lat="45.84277" lon="4.80582">
        <ele>496</ele>
        <time>2015-09-06T09:26:36Z</time>
      </trkpt>
      <trkpt lat="45.84275" lon="4.80585">
        <ele>491</ele>
        <time>2015-09-06T09:26:37Z</time>
      </trkpt>
      <trkpt lat="45.84274" lon="4.80593">
        <ele>490</ele>
        <time>2015-09-06T09:26:39Z</time>
      </trkpt>
      <trkpt lat="45.84272" lon="4.80606">
        <ele>490</ele>
        <time>2015-09-06T09:26:42Z</time>
      </trkpt>
    </trkseg>
  </trk>
</gpx>